[[{"header":{"parameterUnit":"m.s-1","parameterCategory":1,"la1":31.0,"la2":29.5877,"lo1":-88.7671,"lo2":-86.6584,"dy":0.0162,"dx":0.0185,"nx":115,"ny":88,"refTime":"2023-04-24T00:00:00:Z","depth":0,"parameterNumber":2,"parameterNumberName":"U-component_of_WINDS"},"data":[0.0,0.0,0.0,0.0,0.0,0.0,0.0,0.0,0.0,0.0,0.0,0.0,0.0,0.0,0.0,0.0,0.0,0.0,0.0,0.0,0.0,0.0,0.0,0.0,0.0,0.0,0.0,0.0,0.0,0.0,0.0,0.0,0.0,0.0,0.0,0.0,0.0,0.0,0.0,0.0,0.0,0.0,0.0,0.0,0.0,0.0,0.0,0.0,0.0,0.0,0.0,0.0,0.0,0.0,0.0,0.0,0.0,0.0,0.0,0.0,0.0,0.0,0.0,0.0,0.0,0.0,0.0,0.0,0.0,0.0,0.0,0.0,0.0,0.0,0.0,0.0,0.0,0.0,0.0,0.0,0.0,0.0,0.0,0.0,0.0,0.0,0.0,0.0,0.0,0.0,0.0,0.0,0.0,0.0,0.0,0.0,0.0,0.0,0.0,0.0,0.0,0.0,0.0,0.0,0.0,0.0,0.0,0.0,0.0,0.0,0.0,0.0,0.0,0.0,0.0,0.0,0.0,0.0,0.0,0.0,0.0,0.0,0.0,0.0,0.0,0.0,0.0,0.0,0.0,0.0,0.0,0.0,0.0,0.0,0.0,0.0,0.0,0.0,0.0,0.0,0.0,0.0,0.0,0.0,0.0,0.0,0.0,0.0,0.0,0.0,0.0,0.0,0.0,0.0,0.0,0.0,0.0,0.0,0.0,0.0,0.0,0.0,0.0,0.0,0.0,0.0,0.0,0.0,0.0,0.0,0.0,0.0,0.0,0.0,0.0,0.0,0.0,0.0,0.0,0.0,0.0,0.0,0.0,0.0,0.0,0.0,0.0,0.0,0.0,0.0,0.0,0.0,0.0,0.0,0.0,0.0,0.0,0.0,0.0,0.0,0.0,0.0,0.0,0.0,0.0,0.0,0.0,0.0,0.0,0.0,0.0,0.0,0.0,0.0,0.0,0.0,0.0,0.0,0.0,0.0,0.0,0.0,0.0,0.0,0.0,0.0,0.0,0.0,0.0,0.0,0.0,0.0,0.0,0.0,0.0,0.0,0.0,0.0,0.0,0.0,0.0,0.0,0.0,0.0,0.0,0.0,0.0,0.0,0.0,0.0,0.0,0.0,0.0,0.0,0.0,0.0,0.0,0.0,0.0,0.0,0.0,0.0,0.0,0.0,0.0,0.0,0.0,0.0,0.0,0.0,0.0,0.0,0.0,0.0,0.0,0.0,0.0,0.0,0.0,0.0,0.0,0.0,0.0,0.0,0.0,0.0,0.0,0.0,0.0,0.0,0.0,0.0,0.0,0.0,0.0,0.0,0.0,0.0,0.0,0.0,0.0,0.0,0.0,0.0,0.0,0.0,0.0,0.0,0.0,0.0,0.0,0.0,0.0,0.0,0.0,0.0,0.0,0.0,0.0,0.0,0.0,0.0,0.0,0.0,0.0,0.0,0.0,0.0,0.0,0.0,0.0,0.0,0.0,0.0,0.0,0.0,0.0,0.0,0.0,0.0,0.0,0.0,0.0,0.0,0.0,0.0,0.0,0.0,0.0,0.0,0.0,0.0,0.0,0.0,0.0,0.0,0.0,0.0,0.0,0.0,0.0,0.0,0.0,0.0,0.0,0.0,0.0,0.0,0.0,0.0,0.0,0.0,0.0,0.0,0.0,0.0,0.0,0.0,0.0,0.0,0.0,0.0,0.0,0.0,0.0,0.0,0.0,0.0,0.0,0.0,0.0,0.0,0.0,0.0,0.0,0.0,0.0,0.0,0.0,0.0,0.0,0.0,0.0,0.0,0.0,0.0,0.0,0.0,0.0,0.0,0.0,0.0,0.0,0.0,0.0,0.0,0.0,0.0,0.0,0.0,0.0,0.0,0.0,0.0,0.0,0.0,0.0,0.0,0.0,0.0,0.0,0.0,0.0,0.0,0.0,0.0,0.0,0.0,0.0,0.0,0.0,0.0,0.0,0.0,0.0,0.0,0.0,0.0,0.0,0.0,0.0,0.0,0.0,0.0,0.0,0.0,0.0,0.0,0.0,0.0,0.0,0.0,0.0,0.0,0.0,0.0,0.0,0.0,0.0,0.0,0.0,0.0,0.0,0.0,0.0,0.0,0.0,0.0,0.0,0.0,0.0,0.0,0.0,0.0,0.0,0.0,0.0,0.0,0.0,0.0,0.0,0.0,0.0,0.0,0.0,0.0,0.0,0.0,0.0,0.0,0.0,0.0,0.0,0.0,0.0,0.0,0.0,0.0,0.0,0.0,0.0,0.0,0.0,0.0,0.0,0.0,0.0,0.0,0.0,0.0,0.0,0.0,0.0,0.0,0.0,0.0,0.0,0.0,0.0,0.0,0.0,0.0,0.0,0.0,0.0,0.0,0.0,0.0,0.0,0.0,0.0,0.0,0.0,0.0,0.0,0.0,0.0,0.0,0.0,0.0,0.0,0.0,0.0,0.0,0.0,0.0,0.0,0.0,0.0,0.0,0.0,0.0,0.0,0.0,0.0,0.0,0.0,0.0,0.0,0.0,0.0,0.0,0.0,0.0,0.0,0.0,0.0,0.0,0.0,0.0,0.0,0.0,0.0,0.0,0.0,0.0,0.0,0.0,0.0,0.0,0.0,0.0,0.0,0.0,0.0,0.0,0.0,0.0,0.0,0.0,0.0,0.0,0.0,0.0,0.0,0.0,0.0,0.0,0.0,0.0,0.0,0.0,0.0,0.0,0.0,0.0,0.0,0.0,0.0,0.0,0.0,0.0,0.0,0.0,0.0,0.0,0.0,0.0,0.0,0.0,0.0,0.0,0.0,0.0,0.0,0.0,0.0,0.0,0.0,0.0,0.0,0.0,0.0,0.0,0.0,0.0,0.0,0.0,0.0,0.0,0.0,0.0,0.0,0.0,0.0,0.0,0.0,0.0,0.0,0.0,0.0,0.0,0.0,0.0,0.0,0.0,0.0,0.0,0.0,0.0,0.0,0.0,0.0,0.0,0.0,0.0,0.0,0.0,0.0,0.0,0.0,0.0,0.0,0.0,0.0,0.0,0.0,0.0,0.0,0.0,0.0,0.0,0.0,0.0,0.0,0.0,0.0,0.0,0.0,0.0,0.0,0.0,0.0,0.0,0.0,0.0,0.0,0.0,0.0,0.0,0.0,0.0,0.0,0.0,0.0,0.0,0.0,0.0,0.0,0.0,0.0,0.0,0.0,0.0,0.0,0.0,0.0,0.0,0.0,0.0,0.0,0.0,0.0,0.0,0.0,0.0,0.0,0.0,0.0,0.0,0.0,0.0,0.0,0.0,0.0,0.0,0.0,0.0,0.0,0.0,0.0,0.0,0.0,0.0,0.0,0.0,0.0,0.0,0.0,0.0,0.0,0.0,0.0,0.0,0.0,0.0,0.0,0.0,0.0,0.0,0.0,0.0,0.0,0.0,0.0,0.0,0.0,0.0,0.0,0.0,0.0,0.0,0.0,0.0,0.0,0.0,0.0,0.0,0.0,0.0,0.0,0.0,0.0,0.0,0.0,0.0,0.0,0.0,0.0,0.0,0.0,0.0,0.0,0.0,0.0,0.0,0.0,0.0,0.0,0.0,0.0,0.0,0.0,0.0,0.0,0.0,0.0,0.0,0.0,0.0,0.0,0.0,0.0,0.0,0.0,0.0,0.0,0.0,0.0,0.0,0.0,0.0,0.0,0.0,0.0,0.0,0.0,0.0,0.0,0.0,0.0,0.0,0.0,0.0,0.0,0.0,0.0,0.0,0.0,0.0,0.0,0.0,0.0,0.0,0.0,0.0,0.0,0.0,0.0,0.0,0.0,0.0,0.0,0.0,0.0,0.0,0.0,0.0,0.0,0.0,0.0,0.0,0.0,0.0,0.0,0.0,0.0,0.0,0.0,0.0,0.0,0.0,0.0,0.0,0.0,0.0,0.0,0.0,0.0,0.0,0.0,0.0,0.0,0.0,0.0,0.0,0.0,0.0,0.0,0.0,0.0,0.0,0.0,0.0,0.0,0.0,0.0,0.0,0.0,0.0,0.0,0.0,0.0,0.0,0.0,0.0,0.0,0.0,0.0,0.0,0.0,0.0,0.0,0.0,0.0,0.0,0.0,0.0,0.0,0.0,0.0,0.0,0.0,0.0,0.0,0.0,0.0,0.0,0.0,0.0,0.0,0.0,0.0,0.0,0.0,0.0,0.0,0.0,0.0,0.0,0.0,0.0,0.0,0.0,0.0,0.0,0.0,0.0,0.0,0.0,0.0,0.0,0.0,0.0,0.0,0.0,4.872,0.0,0.0,0.0,0.0,0.0,0.0,0.0,0.0,0.0,0.0,0.0,0.0,0.0,0.0,0.0,0.0,0.0,0.0,0.0,0.0,0.0,0.0,0.0,0.0,0.0,0.0,0.0,0.0,0.0,0.0,0.0,0.0,0.0,0.0,0.0,0.0,0.0,0.0,0.0,0.0,0.0,0.0,0.0,0.0,0.0,0.0,0.0,0.0,0.0,0.0,0.0,0.0,0.0,0.0,0.0,0.0,0.0,0.0,0.0,0.0,0.0,0.0,0.0,0.0,0.0,0.0,0.0,0.0,0.0,0.0,0.0,0.0,0.0,0.0,0.0,0.0,0.0,0.0,0.0,0.0,0.0,0.0,0.0,0.0,0.0,0.0,0.0,0.0,0.0,0.0,0.0,0.0,0.0,0.0,0.0,0.0,0.0,0.0,0.0,0.0,0.0,0.0,0.0,0.0,0.0,0.0,0.0,0.0,0.0,0.0,4.7235,4.8885,4.6585,4.6524,4.9083,0.0,0.0,0.0,0.0,0.0,0.0,0.0,0.0,0.0,0.0,0.0,0.0,0.0,0.0,0.0,0.0,0.0,0.0,0.0,0.0,0.0,0.0,0.0,0.0,0.0,0.0,0.0,0.0,0.0,0.0,0.0,0.0,0.0,0.0,0.0,0.0,0.0,0.0,0.0,0.0,0.0,0.0,0.0,0.0,0.0,0.0,0.0,0.0,0.0,0.0,0.0,0.0,0.0,0.0,0.0,0.0,0.0,0.0,0.0,0.0,0.0,0.0,0.0,0.0,0.0,0.0,0.0,0.0,0.0,0.0,0.0,0.0,0.0,0.0,0.0,0.0,0.0,0.0,0.0,0.0,0.0,0.0,0.0,0.0,0.0,0.0,0.0,0.0,0.0,0.0,0.0,0.0,0.0,0.0,0.0,0.0,0.0,0.0,0.0,0.0,0.0,0.0,0.0,0.0,0.0,0.0,0.0,0.0,0.0,0.0,0.0,0.0,4.6928,4.6571,4.8607,0.0,0.0,0.0,0.0,0.0,0.0,0.0,0.0,0.0,0.0,0.0,0.0,0.0,0.0,0.0,0.0,0.0,0.0,0.0,0.0,0.0,0.0,0.0,0.0,0.0,0.0,0.0,0.0,0.0,0.0,0.0,0.0,0.0,0.0,0.0,0.0,0.0,0.0,0.0,0.0,0.0,0.0,0.0,0.0,0.0,0.0,0.0,0.0,0.0,0.0,0.0,0.0,0.0,0.0,0.0,0.0,0.0,0.0,0.0,0.0,0.0,0.0,0.0,0.0,0.0,0.0,0.0,0.0,0.0,0.0,0.0,0.0,0.0,0.0,0.0,0.0,0.0,0.0,0.0,0.0,0.0,0.0,0.0,0.0,0.0,0.0,0.0,0.0,0.0,0.0,0.0,0.0,0.0,0.0,0.0,0.0,0.0,0.0,0.0,0.0,0.0,0.0,0.0,0.0,0.0,0.0,0.0,0.0,0.0,0.0,5.0596,5.0206,4.9927,0.0,4.7293,0.0,0.0,0.0,0.0,0.0,0.0,0.0,0.0,0.0,0.0,0.0,0.0,0.0,0.0,0.0,0.0,0.0,0.0,0.0,0.0,0.0,0.0,0.0,0.0,0.0,0.0,0.0,0.0,0.0,0.0,0.0,0.0,0.0,0.0,0.0,0.0,0.0,0.0,0.0,0.0,0.0,0.0,0.0,0.0,0.0,0.0,0.0,0.0,0.0,0.0,0.0,0.0,0.0,0.0,0.0,0.0,0.0,0.0,0.0,0.0,0.0,0.0,0.0,0.0,0.0,0.0,0.0,0.0,0.0,0.0,0.0,0.0,0.0,0.0,0.0,0.0,0.0,0.0,0.0,0.0,0.0,0.0,0.0,0.0,0.0,0.0,0.0,0.0,0.0,0.0,0.0,0.0,0.0,0.0,0.0,0.0,0.0,0.0,0.0,0.0,0.0,0.0,0.0,0.0,0.0,0.0,0.0,0.0,0.0,0.0,5.1065,5.0367,5.006,4.9155,0.0,0.0,0.0,0.0,0.0,0.0,0.0,0.0,0.0,0.0,0.0,0.0,0.0,0.0,0.0,0.0,0.0,0.0,0.0,0.0,0.0,0.0,0.0,0.0,0.0,0.0,0.0,0.0,0.0,0.0,0.0,0.0,0.0,0.0,0.0,0.0,0.0,0.0,0.0,0.0,0.0,0.0,0.0,0.0,0.0,0.0,0.0,0.0,0.0,0.0,0.0,0.0,0.0,0.0,0.0,0.0,0.0,0.0,0.0,0.0,0.0,0.0,0.0,0.0,0.0,0.0,0.0,0.0,0.0,0.0,0.0,0.0,0.0,0.0,0.0,0.0,0.0,0.0,0.0,0.0,0.0,0.0,0.0,0.0,0.0,0.0,0.0,0.0,0.0,0.0,0.0,0.0,0.0,0.0,0.0,0.0,0.0,0.0,0.0,0.0,0.0,0.0,0.0,0.0,0.0,0.0,0.0,0.0,0.0,0.0,5.2423,5.1734,5.08,4.9933,4.8967,4.7803,0.0,0.0,0.0,0.0,0.0,0.0,0.0,0.0,0.0,0.0,0.0,0.0,0.0,0.0,0.0,0.0,0.0,0.0,0.0,0.0,0.0,0.0,0.0,0.0,0.0,0.0,0.0,0.0,0.0,0.0,0.0,0.0,0.0,0.0,0.0,0.0,0.0,0.0,0.0,0.0,0.0,0.0,0.0,0.0,0.0,0.0,0.0,0.0,0.0,0.0,0.0,0.0,0.0,0.0,0.0,0.0,0.0,0.0,0.0,0.0,0.0,0.0,0.0,0.0,0.0,0.0,0.0,0.0,0.0,0.0,0.0,0.0,0.0,0.0,0.0,0.0,0.0,0.0,0.0,0.0,0.0,0.0,0.0,0.0,0.0,0.0,0.0,0.0,0.0,0.0,0.0,0.0,0.0,0.0,0.0,0.0,0.0,0.0,0.0,0.0,0.0,0.0,0.0,0.0,0.0,0.0,0.0,0.0,0.0,5.387,5.3178,5.174,5.0298,4.8697,0.0,0.0,0.0,0.0,0.0,0.0,0.0,0.0,0.0,0.0,0.0,0.0,0.0,0.0,0.0,0.0,0.0,0.0,0.0,0.0,0.0,0.0,0.0,0.0,0.0,0.0,0.0,0.0,0.0,0.0,0.0,0.0,0.0,0.0,0.0,0.0,0.0,0.0,0.0,0.0,0.0,0.0,0.0,0.0,0.0,0.0,0.0,0.0,0.0,0.0,0.0,0.0,0.0,0.0,0.0,0.0,0.0,0.0,0.0,0.0,0.0,0.0,0.0,0.0,0.0,0.0,0.0,0.0,0.0,0.0,0.0,0.0,0.0,0.0,0.0,0.0,0.0,0.0,0.0,0.0,0.0,0.0,0.0,0.0,0.0,0.0,0.0,0.0,0.0,0.0,0.0,0.0,0.0,0.0,0.0,0.0,0.0,0.0,0.0,0.0,0.0,0.0,0.0,0.0,0.0,0.0,0.0,0.0,0.0,5.3809,5.3419,5.2775,5.1931,5.079,4.9157,0.0,0.0,0.0,0.0,0.0,0.0,0.0,0.0,0.0,0.0,0.0,0.0,0.0,0.0,0.0,0.0,0.0,0.0,0.0,0.0,0.0,0.0,0.0,0.0,0.0,0.0,0.0,0.0,0.0,0.0,0.0,0.0,0.0,0.0,0.0,0.0,0.0,0.0,0.0,0.0,0.0,0.0,0.0,0.0,0.0,0.0,0.0,0.0,0.0,0.0,0.0,0.0,0.0,0.0,0.0,0.0,0.0,0.0,0.0,0.0,0.0,0.0,0.0,0.0,0.0,0.0,0.0,0.0,0.0,0.0,0.0,0.0,0.0,0.0,0.0,0.0,0.0,0.0,0.0,0.0,0.0,0.0,0.0,0.0,0.0,0.0,0.0,0.0,0.0,0.0,0.0,0.0,0.0,0.0,0.0,0.0,0.0,0.0,0.0,0.0,0.0,0.0,0.0,0.0,0.0,0.0,0.0,0.0,0.0,5.5329,0.0,5.4067,0.0,5.2586,5.0462,0.0,0.0,0.0,0.0,0.0,0.0,0.0,0.0,0.0,0.0,0.0,0.0,0.0,0.0,0.0,0.0,0.0,0.0,0.0,0.0,0.0,0.0,0.0,0.0,0.0,0.0,0.0,0.0,0.0,0.0,0.0,0.0,0.0,0.0,0.0,0.0,0.0,0.0,0.0,0.0,0.0,0.0,0.0,0.0,0.0,0.0,0.0,0.0,0.0,0.0,0.0,0.0,0.0,0.0,0.0,0.0,0.0,0.0,0.0,0.0,0.0,0.0,0.0,0.0,0.0,0.0,0.0,0.0,0.0,0.0,0.0,0.0,0.0,0.0,0.0,0.0,0.0,0.0,0.0,0.0,0.0,0.0,0.0,0.0,0.0,0.0,0.0,0.0,0.0,0.0,0.0,0.0,0.0,0.0,0.0,0.0,0.0,0.0,0.0,0.0,0.0,0.0,0.0,0.0,0.0,0.0,0.0,0.0,5.5542,5.8693,5.8209,5.7541,5.679,5.5888,5.2767,0.0,0.0,0.0,0.0,0.0,0.0,0.0,0.0,0.0,0.0,0.0,0.0,0.0,0.0,0.0,0.0,0.0,0.0,0.0,0.0,0.0,0.0,0.0,0.0,0.0,0.0,0.0,0.0,0.0,0.0,0.0,0.0,0.0,0.0,0.0,0.0,0.0,0.0,0.0,0.0,0.0,0.0,0.0,0.0,0.0,0.0,0.0,0.0,0.0,0.0,0.0,0.0,0.0,0.0,0.0,0.0,0.0,0.0,0.0,0.0,0.0,0.0,0.0,0.0,0.0,0.0,0.0,0.0,0.0,0.0,0.0,0.0,0.0,0.0,0.0,0.0,0.0,0.0,0.0,0.0,0.0,0.0,0.0,0.0,0.0,0.0,0.0,0.0,0.0,0.0,0.0,0.0,0.0,0.0,0.0,0.0,0.0,0.0,0.0,0.0,0.0,0.0,0.0,0.0,0.0,0.0,0.0,0.0,0.0,6.1176,6.0876,6.1471,6.2889,5.9014,5.5485,0.0,0.0,0.0,0.0,0.0,0.0,0.0,0.0,0.0,0.0,0.0,0.0,0.0,0.0,0.0,0.0,0.0,0.0,0.0,0.0,0.0,0.0,0.0,0.0,0.0,0.0,0.0,0.0,0.0,0.0,0.0,0.0,0.0,0.0,0.0,0.0,0.0,0.0,0.0,0.0,0.0,0.0,0.0,0.0,0.0,0.0,0.0,0.0,0.0,0.0,0.0,0.0,0.0,0.0,0.0,0.0,0.0,0.0,0.0,0.0,0.0,0.0,0.0,0.0,0.0,0.0,0.0,0.0,0.0,0.0,0.0,0.0,0.0,0.0,0.0,0.0,0.0,0.0,0.0,0.0,0.0,0.0,0.0,0.0,0.0,0.0,0.0,0.0,0.0,0.0,0.0,0.0,0.0,0.0,0.0,0.0,0.0,0.0,0.0,0.0,0.0,0.0,0.0,0.0,0.0,0.0,0.0,0.0,0.0,6.5186,6.5213,6.5805,6.7136,6.2838,5.8762,5.5003,0.0,0.0,0.0,0.0,0.0,0.0,0.0,0.0,0.0,0.0,0.0,0.0,0.0,0.0,0.0,0.0,0.0,0.0,0.0,0.0,0.0,0.0,0.0,0.0,0.0,0.0,0.0,0.0,0.0,0.0,0.0,0.0,0.0,0.0,0.0,0.0,0.0,0.0,0.0,0.0,0.0,0.0,0.0,0.0,0.0,0.0,0.0,0.0,0.0,0.0,0.0,0.0,0.0,0.0,0.0,0.0,0.0,0.0,0.0,0.0,0.0,0.0,0.0,0.0,0.0,0.0,0.0,0.0,0.0,0.0,0.0,0.0,0.0,0.0,0.0,0.0,0.0,0.0,0.0,0.0,0.0,0.0,0.0,0.0,0.0,0.0,0.0,0.0,0.0,0.0,0.0,0.0,0.0,0.0,0.0,0.0,0.0,0.0,0.0,0.0,0.0,0.0,0.0,0.0,0.0,0.0,0.0,0.0,7.0552,7.0884,7.0629,6.9788,6.7208,6.2468,0.0,0.0,0.0,0.0,0.0,0.0,0.0,0.0,0.0,0.0,0.0,0.0,0.0,0.0,0.0,0.0,0.0,0.0,0.0,0.0,0.0,0.0,0.0,0.0,0.0,0.0,0.0,0.0,0.0,0.0,0.0,0.0,0.0,0.0,0.0,0.0,0.0,0.0,0.0,0.0,0.0,0.0,0.0,0.0,0.0,0.0,0.0,0.0,0.0,0.0,0.0,0.0,0.0,0.0,0.0,0.0,0.0,0.0,0.0,0.0,0.0,0.0,0.0,0.0,0.0,0.0,0.0,0.0,0.0,0.0,0.0,0.0,0.0,0.0,0.0,0.0,0.0,0.0,0.0,0.0,0.0,0.0,0.0,0.0,0.0,0.0,0.0,0.0,0.0,0.0,0.0,0.0,0.0,0.0,0.0,0.0,0.0,0.0,0.0,0.0,0.0,0.0,0.0,0.0,0.0,0.0,0.0,0.0,0.0,7.3198,7.5956,7.7264,7.6874,7.0597,6.5123,0.0,0.0,0.0,0.0,0.0,0.0,0.0,0.0,0.0,0.0,0.0,0.0,0.0,0.0,0.0,0.0,0.0,0.0,0.0,0.0,0.0,0.0,0.0,0.0,0.0,0.0,0.0,0.0,0.0,0.0,0.0,0.0,0.0,0.0,0.0,0.0,0.0,0.0,0.0,0.0,0.0,0.0,0.0,0.0,0.0,0.0,0.0,0.0,0.0,0.0,0.0,0.0,0.0,0.0,0.0,0.0,0.0,0.0,0.0,0.0,0.0,0.0,0.0,0.0,0.0,0.0,0.0,0.0,0.0,0.0,0.0,0.0,0.0,0.0,0.0,0.0,0.0,0.0,0.0,0.0,0.0,0.0,0.0,0.0,0.0,0.0,0.0,0.0,0.0,0.0,0.0,0.0,0.0,0.0,0.0,0.0,0.0,0.0,0.0,0.0,0.0,0.0,0.0,0.0,0.0,0.0,0.0,0.0,7.1474,7.5089,7.8523,8.0322,8.0322,7.4022,6.8289,0.0,0.0,0.0,0.0,0.0,0.0,0.0,0.0,0.0,0.0,0.0,0.0,0.0,0.0,0.0,0.0,0.0,0.0,0.0,0.0,0.0,0.0,0.0,0.0,0.0,0.0,0.0,0.0,0.0,0.0,0.0,0.0,0.0,0.0,0.0,0.0,0.0,0.0,0.0,0.0,0.0,0.0,0.0,0.0,0.0,0.0,0.0,0.0,0.0,0.0,0.0,0.0,0.0,0.0,0.0,0.0,0.0,0.0,0.0,0.0,0.0,0.0,0.0,0.0,0.0,0.0,0.0,0.0,0.0,0.0,0.0,0.0,0.0,0.0,0.0,0.0,0.0,0.0,0.0,0.0,0.0,0.0,0.0,0.0,0.0,0.0,0.0,0.0,0.0,0.0,0.0,0.0,0.0,0.0,0.0,0.0,0.0,0.0,0.0,0.0,0.0,0.0,0.0,0.0,0.0,0.0,0.0,0.0,7.2632,7.6846,7.9722,8.1155,8.0947,7.6752,7.1187,0.0,0.0,0.0,0.0,0.0,0.0,0.0,0.0,0.0,0.0,0.0,0.0,0.0,0.0,0.0,0.0,0.0,0.0,0.0,0.0,0.0,0.0,0.0,0.0,0.0,0.0,0.0,0.0,0.0,0.0,0.0,0.0,0.0,0.0,0.0,0.0,0.0,0.0,0.0,0.0,0.0,0.0,0.0,0.0,0.0,0.0,0.0,0.0,0.0,0.0,0.0,0.0,0.0,0.0,0.0,0.0,0.0,0.0,0.0,0.0,0.0,0.0,0.0,0.0,0.0,0.0,0.0,0.0,0.0,0.0,0.0,0.0,0.0,0.0,0.0,0.0,0.0,0.0,0.0,0.0,0.0,0.0,0.0,0.0,0.0,0.0,0.0,0.0,0.0,0.0,0.0,0.0,0.0,0.0,0.0,0.0,0.0,0.0,0.0,0.0,0.0,0.0,0.0,0.0,0.0,0.0,0.0,0.0,7.436,8.0697,8.2047,8.2299,8.1462,7.5729,7.0536,0.0,0.0,0.0,0.0,0.0,0.0,0.0,0.0,0.0,0.0,0.0,0.0,0.0,0.0,0.0,0.0,0.0,0.0,0.0,0.0,0.0,0.0,0.0,0.0,0.0,0.0,0.0,0.0,0.0,0.0,0.0,0.0,0.0,0.0,0.0,0.0,0.0,0.0,0.0,0.0,0.0,0.0,0.0,0.0,0.0,0.0,0.0,0.0,5.0281,0.0,0.0,0.0,0.0,0.0,0.0,0.0,0.0,0.0,0.0,0.0,0.0,0.0,0.0,0.0,0.0,0.0,0.0,0.0,0.0,0.0,0.0,0.0,0.0,0.0,0.0,0.0,0.0,0.0,0.0,0.0,0.0,0.0,0.0,0.0,0.0,0.0,0.0,0.0,0.0,0.0,0.0,0.0,0.0,0.0,0.0,0.0,0.0,0.0,0.0,0.0,0.0,0.0,0.0,0.0,0.0,0.0,0.0,0.0,7.6039,8.2178,8.278,8.2643,8.185,7.6223,7.1206,0.0,0.0,0.0,0.0,0.0,0.0,0.0,0.0,0.0,0.0,0.0,0.0,0.0,0.0,0.0,0.0,0.0,0.0,0.0,0.0,0.0,0.0,0.0,0.0,0.0,0.0,0.0,0.0,0.0,0.0,0.0,0.0,0.0,0.0,0.0,0.0,0.0,0.0,0.0,0.0,0.0,0.0,0.0,0.0,0.0,0.0,0.0,0.0,0.0,0.0,0.0,0.0,0.0,0.0,0.0,0.0,0.0,0.0,0.0,0.0,0.0,0.0,0.0,0.0,0.0,0.0,0.0,0.0,0.0,0.0,0.0,0.0,0.0,0.0,0.0,0.0,0.0,0.0,0.0,0.0,0.0,0.0,0.0,0.0,0.0,0.0,0.0,0.0,0.0,0.0,0.0,0.0,0.0,0.0,0.0,0.0,0.0,0.0,0.0,0.0,0.0,0.0,0.0,0.0,0.0,0.0,0.0,7.3618,7.781,8.2769,8.2898,8.271,8.2369,7.7093,7.2235,6.7996,0.0,0.0,0.0,0.0,0.0,0.0,0.0,0.0,0.0,0.0,0.0,0.0,0.0,0.0,0.0,0.0,0.0,0.0,0.0,0.0,0.0,0.0,0.0,0.0,0.0,0.0,0.0,0.0,0.0,0.0,0.0,0.0,0.0,0.0,0.0,0.0,0.0,0.0,5.0148,5.2025,0.0,0.0,0.0,0.0,0.0,0.0,0.0,0.0,5.1733,0.0,0.0,0.0,0.0,0.0,0.0,0.0,0.0,0.0,0.0,0.0,0.0,0.0,0.0,0.0,0.0,0.0,0.0,0.0,0.0,0.0,0.0,0.0,0.0,0.0,0.0,0.0,0.0,0.0,0.0,0.0,0.0,0.0,0.0,0.0,0.0,0.0,0.0,0.0,0.0,0.0,0.0,0.0,0.0,0.0,0.0,0.0,0.0,0.0,0.0,0.0,0.0,0.0,0.0,0.0,0.0,7.2126,7.5617,7.9558,8.3894,8.3398,8.2793,8.2148,7.7038,7.2208,6.7917,0.0,0.0,0.0,0.0,0.0,0.0,0.0,0.0,0.0,0.0,0.0,0.0,0.0,0.0,0.0,0.0,0.0,0.0,0.0,0.0,0.0,0.0,0.0,0.0,0.0,0.0,0.0,0.0,0.0,0.0,0.0,0.0,0.0,0.0,0.0,0.0,0.0,0.0,0.0,5.3441,5.5047,0.0,0.0,0.0,0.0,0.0,0.0,0.0,0.0,5.1927,0.0,0.0,0.0,0.0,0.0,0.0,0.0,0.0,0.0,0.0,0.0,0.0,0.0,0.0,0.0,0.0,0.0,0.0,0.0,0.0,0.0,0.0,0.0,0.0,0.0,0.0,0.0,0.0,0.0,0.0,0.0,0.0,0.0,0.0,0.0,0.0,0.0,0.0,0.0,0.0,0.0,0.0,0.0,0.0,0.0,0.0,0.0,0.0,0.0,0.0,0.0,0.0,0.0,0.0,0.0,7.1906,7.6389,8.0361,8.3676,8.3057,8.245,8.1936,7.6238,7.154,0.0,0.0,0.0,0.0,0.0,0.0,0.0,0.0,0.0,0.0,0.0,0.0,0.0,0.0,0.0,0.0,0.0,0.0,0.0,0.0,0.0,0.0,0.0,0.0,0.0,0.0,0.0,0.0,0.0,0.0,0.0,0.0,0.0,0.0,0.0,0.0,0.0,0.0,0.0,0.0,5.4035,5.4992,5.4262,0.0,0.0,0.0,0.0,0.0,0.0,5.3663,5.4232,0.0,0.0,0.0,0.0,0.0,0.0,0.0,0.0,0.0,0.0,0.0,0.0,0.0,0.0,0.0,0.0,0.0,0.0,0.0,0.0,0.0,0.0,0.0,0.0,0.0,0.0,0.0,0.0,0.0,0.0,0.0,0.0,0.0,0.0,0.0,0.0,0.0,0.0,0.0,0.0,0.0,0.0,0.0,0.0,0.0,0.0,0.0,0.0,0.0,0.0,0.0,0.0,0.0,0.0,0.0,7.1581,7.7377,8.1399,8.3356,8.272,8.21,8.1616,7.5855,7.1205,0.0,0.0,0.0,0.0,0.0,0.0,0.0,0.0,0.0,0.0,0.0,0.0,0.0,0.0,0.0,0.0,0.0,0.0,0.0,0.0,0.0,0.0,0.0,0.0,0.0,0.0,0.0,0.0,0.0,0.0,0.0,0.0,0.0,0.0,0.0,0.0,0.0,0.0,0.0,0.0,0.0,5.5518,5.339,5.5284,0.0,0.0,0.0,0.0,5.3859,5.6077,0.0,0.0,0.0,0.0,0.0,0.0,0.0,0.0,0.0,0.0,0.0,0.0,0.0,0.0,0.0,0.0,0.0,0.0,0.0,0.0,0.0,0.0,0.0,0.0,0.0,0.0,0.0,0.0,0.0,0.0,0.0,0.0,0.0,0.0,0.0,0.0,0.0,0.0,0.0,0.0,0.0,0.0,0.0,0.0,0.0,0.0,0.0,0.0,0.0,0.0,0.0,0.0,0.0,0.0,0.0,0.0,7.248,7.9683,8.3612,8.3783,8.3047,8.2139,8.1009,7.6956,7.2276,0.0,0.0,0.0,0.0,0.0,0.0,0.0,0.0,0.0,0.0,0.0,0.0,0.0,0.0,0.0,0.0,0.0,0.0,0.0,0.0,0.0,0.0,0.0,0.0,0.0,0.0,0.0,0.0,0.0,0.0,0.0,0.0,0.0,0.0,0.0,0.0,0.0,0.0,0.0,0.0,0.0,5.8459,5.5994,5.8083,5.8837,0.0,0.0,0.0,5.5511,5.7817,0.0,0.0,0.0,0.0,0.0,0.0,0.0,0.0,0.0,0.0,0.0,0.0,0.0,0.0,0.0,0.0,0.0,0.0,0.0,0.0,0.0,0.0,0.0,0.0,0.0,0.0,0.0,0.0,0.0,0.0,0.0,0.0,0.0,0.0,0.0,0.0,0.0,0.0,0.0,0.0,0.0,0.0,0.0,0.0,0.0,0.0,0.0,0.0,0.0,0.0,0.0,0.0,0.0,0.0,0.0,7.13,7.3285,7.9666,8.3345,8.3903,8.3202,8.2607,8.2179,7.6931,7.231,0.0,0.0,0.0,0.0,0.0,0.0,0.0,0.0,0.0,0.0,0.0,0.0,0.0,0.0,0.0,0.0,0.0,0.0,0.0,0.0,0.0,0.0,0.0,0.0,0.0,0.0,0.0,0.0,0.0,0.0,0.0,0.0,0.0,0.0,0.0,0.0,0.0,0.0,0.0,0.0,0.0,0.0,5.5743,5.8994,0.0,0.0,0.0,6.1105,5.9508,0.0,0.0,0.0,0.0,0.0,0.0,0.0,0.0,0.0,0.0,0.0,0.0,0.0,0.0,0.0,0.0,0.0,0.0,0.0,0.0,0.0,0.0,0.0,0.0,0.0,0.0,0.0,0.0,0.0,0.0,0.0,0.0,0.0,0.0,0.0,0.0,0.0,0.0,0.0,0.0,0.0,0.0,0.0,0.0,0.0,0.0,0.0,0.0,0.0,0.0,0.0,0.0,0.0,0.0,0.0,0.0,0.0,7.3978,7.9961,8.3476,8.4261,8.376,8.3384,8.3092,7.7837,0.0,0.0,0.0,0.0,0.0,0.0,0.0,0.0,0.0,0.0,0.0,0.0,0.0,0.0,0.0,0.0,0.0,0.0,0.0,0.0,0.0,0.0,0.0,0.0,0.0,0.0,0.0,4.5399,0.0,0.0,0.0,0.0,0.0,0.0,0.0,0.0,0.0,0.0,0.0,0.0,0.0,0.0,5.9584,5.6061,6.041,6.2797,0.0,0.0,6.4059,6.2687,6.3179,6.2543,0.0,0.0,0.0,0.0,0.0,0.0,0.0,0.0,0.0,0.0,0.0,0.0,0.0,0.0,0.0,0.0,0.0,0.0,0.0,0.0,0.0,0.0,0.0,0.0,0.0,0.0,0.0,0.0,0.0,0.0,0.0,0.0,0.0,0.0,0.0,0.0,0.0,0.0,0.0,0.0,0.0,0.0,0.0,0.0,0.0,0.0,0.0,0.0,0.0,0.0,0.0,0.0,0.0,0.0,0.0,7.4697,8.1563,8.512,8.5123,8.5042,8.4457,8.3233,8.0702,7.6665,0.0,0.0,0.0,0.0,0.0,0.0,0.0,0.0,0.0,0.0,0.0,0.0,0.0,0.0,0.0,0.0,0.0,0.0,0.0,0.0,0.0,0.0,0.0,0.0,0.0,0.0,0.0,0.0,0.0,0.0,0.0,0.0,0.0,0.0,0.0,0.0,0.0,0.0,0.0,0.0,0.0,6.2605,5.8544,6.3257,6.6019,0.0,0.0,6.5972,6.3668,6.5327,6.5225,6.0307,0.0,0.0,0.0,0.0,0.0,0.0,0.0,0.0,0.0,0.0,0.0,0.0,0.0,0.0,0.0,0.0,0.0,0.0,0.0,0.0,0.0,0.0,0.0,0.0,0.0,0.0,0.0,0.0,0.0,0.0,0.0,0.0,0.0,0.0,0.0,0.0,0.0,0.0,0.0,0.0,0.0,0.0,0.0,0.0,0.0,0.0,0.0,0.0,0.0,0.0,0.0,0.0,0.0,7.3252,7.5141,8.1497,8.4982,8.5444,8.5467,8.51,8.4434,8.1714,7.7463,0.0,0.0,0.0,0.0,0.0,0.0,0.0,0.0,0.0,0.0,0.0,0.0,0.0,0.0,0.0,0.0,0.0,0.0,0.0,0.0,0.0,0.0,0.0,0.0,0.0,0.0,0.0,0.0,4.6942,4.8039,4.9251,0.0,0.0,0.0,0.0,0.0,0.0,0.0,0.0,0.0,0.0,6.4248,6.3176,6.5836,0.0,0.0,6.5949,6.6656,6.5655,6.5122,6.3945,6.1248,5.9628,0.0,0.0,0.0,0.0,0.0,0.0,0.0,0.0,0.0,0.0,0.0,0.0,0.0,0.0,0.0,0.0,0.0,0.0,0.0,0.0,0.0,0.0,0.0,0.0,0.0,0.0,0.0,0.0,0.0,0.0,0.0,0.0,0.0,0.0,0.0,0.0,0.0,0.0,0.0,0.0,0.0,0.0,0.0,0.0,0.0,0.0,0.0,0.0,0.0,0.0,0.0,0.0,7.359,7.5588,8.1677,8.5216,8.5919,8.5868,8.5613,8.5159,8.2829,7.886,0.0,0.0,0.0,0.0,0.0,0.0,0.0,0.0,0.0,0.0,0.0,0.0,0.0,0.0,0.0,0.0,0.0,0.0,0.0,0.0,0.0,0.0,0.0,0.0,0.0,0.0,0.0,0.0,4.7538,4.8913,5.0898,0.0,0.0,0.0,0.0,0.0,0.0,0.0,0.0,0.0,0.0,6.6031,6.6161,6.7702,6.8326,6.6896,6.6968,6.7169,6.7175,6.5127,6.308,6.1887,0.0,0.0,0.0,0.0,0.0,0.0,0.0,0.0,0.0,0.0,0.0,0.0,0.0,0.0,0.0,0.0,0.0,0.0,0.0,0.0,0.0,0.0,0.0,0.0,0.0,0.0,0.0,0.0,0.0,0.0,0.0,0.0,0.0,0.0,0.0,0.0,0.0,0.0,0.0,0.0,0.0,0.0,0.0,0.0,0.0,0.0,0.0,0.0,0.0,0.0,0.0,0.0,0.0,0.0,7.6018,8.246,8.6112,8.6632,8.6409,8.5917,8.5205,8.4343,8.1359,7.6006,0.0,0.0,0.0,0.0,0.0,0.0,0.0,0.0,0.0,0.0,0.0,0.0,0.0,0.0,0.0,0.0,0.0,0.0,0.0,0.0,0.0,0.0,0.0,0.0,0.0,0.0,5.1443,5.0963,5.0863,0.0,0.0,0.0,0.0,0.0,0.0,0.0,0.0,0.0,0.0,6.6086,6.82,6.6856,6.8717,6.9829,6.8842,6.8004,6.7621,6.7944,6.5565,6.3269,0.0,0.0,0.0,0.0,0.0,0.0,0.0,0.0,0.0,0.0,0.0,0.0,0.0,0.0,0.0,0.0,0.0,0.0,0.0,0.0,0.0,0.0,0.0,0.0,0.0,0.0,0.0,5.1504,5.1523,0.0,0.0,0.0,0.0,0.0,0.0,0.0,0.0,0.0,0.0,0.0,6.3817,6.3594,0.0,0.0,0.0,0.0,0.0,0.0,0.0,0.0,0.0,0.0,0.0,0.0,7.4052,7.5948,8.2456,8.5992,8.6181,8.6244,8.5768,8.47,8.4065,8.131,7.6135,0.0,0.0,0.0,0.0,0.0,0.0,0.0,0.0,0.0,0.0,0.0,0.0,0.0,0.0,0.0,0.0,0.0,0.0,0.0,0.0,0.0,0.0,0.0,0.0,0.0,5.2533,0.0,0.0,0.0,0.0,0.0,0.0,0.0,0.0,0.0,0.0,0.0,5.995,6.3545,6.6507,6.8333,6.8378,6.957,6.9939,0.0,0.0,0.0,0.0,0.0,0.0,0.0,0.0,0.0,0.0,0.0,0.0,0.0,0.0,5.8206,5.6667,5.6515,5.6752,5.72,0.0,0.0,0.0,0.0,0.0,0.0,0.0,0.0,0.0,0.0,0.0,0.0,0.0,0.0,0.0,0.0,5.278,0.0,0.0,0.0,0.0,0.0,0.0,0.0,0.0,6.1876,6.4423,6.8835,6.8332,6.8648,0.0,6.9543,6.7743,0.0,0.0,0.0,0.0,0.0,0.0,0.0,0.0,7.4601,7.6779,8.2581,8.5725,8.5903,8.5967,8.5495,8.4438,8.2929,8.0122,7.5818,7.1408,6.7825,0.0,0.0,0.0,0.0,0.0,0.0,0.0,0.0,0.0,0.0,0.0,0.0,0.0,0.0,0.0,0.0,0.0,0.0,0.0,0.0,0.0,0.0,0.0,5.355,0.0,0.0,0.0,0.0,0.0,0.0,0.0,0.0,0.0,5.9368,5.9715,6.1469,6.584,6.7714,6.8745,6.9052,0.0,0.0,0.0,0.0,0.0,0.0,0.0,6.4318,6.5113,6.3993,6.3577,6.5253,6.5033,6.4402,6.3759,0.0,0.0,5.9003,5.8817,5.9369,6.0332,6.1094,6.1779,6.2431,6.3124,6.3775,0.0,0.0,0.0,0.0,0.0,0.0,0.0,0.0,5.5356,5.5765,0.0,5.4024,0.0,0.0,0.0,0.0,0.0,0.0,0.0,0.0,6.4168,6.6494,6.9865,7.1136,7.1628,7.1683,7.2464,7.2244,7.1066,6.6915,0.0,0.0,0.0,0.0,0.0,0.0,7.5524,7.86,8.289,8.5351,8.584,8.5635,8.5191,8.438,8.1279,7.8287,7.5474,7.4302,7.175,6.7498,6.5102,0.0,0.0,0.0,0.0,0.0,0.0,0.0,0.0,0.0,0.0,0.0,0.0,0.0,0.0,0.0,0.0,0.0,0.0,0.0,0.0,5.3858,0.0,0.0,0.0,0.0,0.0,0.0,0.0,0.0,0.0,0.0,6.1761,6.2628,6.4656,6.8755,0.0,0.0,0.0,0.0,6.9609,6.7982,6.7717,6.7791,6.7939,6.6549,6.5835,6.6895,0.0,0.0,6.7452,6.7137,6.6711,6.6905,6.6146,6.4729,6.2068,6.2037,6.2937,6.456,6.5109,6.5673,6.6394,6.7112,6.7623,6.1563,0.0,0.0,0.0,0.0,5.8863,5.9367,5.9741,5.983,5.9597,5.9054,5.7166,0.0,0.0,0.0,0.0,0.0,0.0,6.5312,6.865,7.0595,7.3412,7.6816,7.6321,7.6488,7.7164,7.6834,7.6346,7.5618,7.2837,7.0368,6.8334,0.0,0.0,0.0,0.0,7.7034,7.9476,8.316,8.5155,8.5325,8.5622,8.5445,8.4724,8.2708,8.084,7.929,7.7016,7.4541,7.1925,6.8688,0.0,0.0,0.0,0.0,0.0,0.0,0.0,0.0,0.0,0.0,0.0,0.0,0.0,0.0,0.0,0.0,0.0,0.0,0.0,5.5589,5.5929,5.6035,0.0,0.0,0.0,0.0,0.0,0.0,0.0,0.0,0.0,6.6496,6.5058,6.4862,0.0,0.0,6.9279,6.8765,6.9675,7.0183,6.9558,0.0,0.0,0.0,6.8973,6.8741,6.9031,6.8999,6.9025,6.9237,6.9351,6.9248,6.866,6.7987,6.7172,6.6418,6.5309,6.5306,6.6773,6.7834,6.8767,6.9986,7.0731,7.1159,6.6468,6.3507,6.2224,6.18,6.2048,6.263,6.3058,6.324,6.3171,6.2799,6.2119,6.0054,5.94,5.9901,6.0303,0.0,0.0,0.0,6.8829,7.2112,7.4107,7.6904,8.0102,7.9429,7.934,7.9883,7.9454,7.8854,7.8176,7.6898,7.5322,7.3303,0.0,0.0,7.41,7.6644,7.8944,8.1031,8.3589,8.4958,8.509,8.5348,8.5198,8.463,8.3253,8.2135,8.1396,7.9111,7.7212,7.577,7.2225,6.8658,0.0,0.0,0.0,0.0,0.0,0.0,0.0,0.0,0.0,0.0,0.0,5.041,0.0,0.0,0.0,0.0,5.4885,5.6155,5.7047,5.7231,0.0,0.0,0.0,0.0,0.0,0.0,0.0,6.1466,6.3954,6.6685,6.9371,6.8305,6.7923,6.9812,7.0028,6.9939,6.9635,0.0,7.1495,7.0871,7.1296,7.1487,7.0838,7.0877,7.1081,7.1365,7.17,7.1926,7.1743,7.1798,7.1691,7.12,7.0748,7.048,7.0326,6.9525,6.8991,6.9571,7.0512,7.1629,7.2734,7.3389,7.3832,7.077,6.9935,6.7366,6.6288,6.6294,6.6491,6.6677,6.6799,6.5851,6.556,6.5529,6.2706,6.2354,6.3942,6.4612,0.0,0.0,6.8196,7.111,7.38,7.5615,7.8098,8.1021,8.0774,8.0615,8.0615,8.0547,8.0071,7.9304,7.946,7.9494,7.9181,7.515,7.4565,7.74,7.9141,8.1052,8.324,8.4159,8.4786,8.5077,8.4946,8.4742,8.4471,8.3276,8.2484,8.2125,8.0697,7.9624,7.8832,7.5617,7.2739,7.0447,0.0,0.0,0.0,0.0,0.0,0.0,0.0,0.0,0.0,0.0,0.0,0.0,0.0,0.0,0.0,5.5433,0.0,5.7728,5.8055,0.0,0.0,0.0,5.9866,6.1044,6.1931,6.3098,6.481,0.0,0.0,0.0,0.0,7.2586,7.3426,7.216,7.1221,7.1285,7.2664,7.3267,7.2189,7.2695,7.3088,7.2679,7.2771,7.3123,7.3574,7.409,7.4226,7.4249,7.3976,7.3839,7.3696,7.3833,7.3685,7.3501,7.3572,7.3853,7.2451,7.3118,7.4078,7.4639,7.5192,7.5491,7.4138,7.3876,7.2667,7.1457,7.0385,7.0446,7.0697,7.1004,6.9696,6.8652,6.7731,6.5865,6.4976,6.4931,6.6197,6.7108,6.7871,7.1968,7.4808,7.6723,7.9202,8.0964,8.1999,8.1214,8.0837,8.079,8.0263,8.0157,8.0464,8.0549,8.0922,8.1549,8.1072,8.1014,8.1421,8.2067,8.3108,8.4624,8.4867,8.5011,8.509,8.5232,8.5222,8.4941,8.4298,8.3473,8.245,8.1451,8.0322,7.9016,7.7607,7.546,7.2476,6.998,0.0,0.0,0.0,0.0,0.0,0.0,0.0,0.0,0.0,5.253,5.4666,0.0,5.749,0.0,5.8961,5.9474,5.9494,5.9707,0.0,0.0,6.0607,6.1757,6.3178,6.4575,6.5775,6.6746,6.9146,7.1189,7.2377,7.3376,7.4376,7.5239,7.3896,7.3041,7.3838,7.4232,7.4585,7.4614,7.4717,7.5066,7.5504,7.5787,7.5527,7.4853,7.5028,7.5171,7.4817,7.4408,7.4046,7.3924,7.3729,7.3603,7.3567,7.4183,7.4753,7.465,7.4942,7.5464,7.6141,7.6154,7.6048,7.6298,7.657,7.6079,7.5459,7.4783,7.3452,7.3043,7.3223,7.2434,7.1442,7.0357,6.9082,6.8281,6.7999,6.9555,7.0528,7.1187,7.5125,7.739,7.833,8.0572,8.1734,8.1995,8.1434,8.1051,8.0886,8.0668,8.0681,8.0886,8.1071,8.1556,8.2335,8.3161,8.3543,8.3462,8.3935,8.4571,8.526,8.5142,8.5011,8.4892,8.5273,8.5318,8.4933,8.4901,8.4232,8.2859,8.2199,8.1225,7.9907,7.9243,7.775,7.5129,7.2209,6.8488,0.0,0.0,0.0,0.0,0.0,0.0,0.0,0.0,0.0,0.0,0.0,6.0174,0.0,6.1975,0.0,6.2097,6.1974,6.2063,6.2454,6.3308,6.4422,6.5868,6.7386,6.874,6.9826,7.1763,7.3368,7.4282,7.5092,7.5819,7.6489,7.5695,7.518,7.5509,7.5897,7.6248,7.6388,7.6463,7.6503,7.6788,7.6658,7.6308,7.5522,7.5297,7.5232,7.5108,7.4797,7.4571,7.468,7.4585,7.4503,7.4515,7.5007,7.5534,7.5696,7.6061,7.6564,7.701,7.6595,7.6281,7.7706,7.8349,7.7991,7.8162,7.8426,7.5799,7.4719,7.4707,7.4537,7.389,7.2904,7.2033,7.1684,7.1807,7.3434,7.4114,7.4305,7.7429,7.9044,7.9314,8.0804,8.1618,8.1786,8.1645,8.1417,8.1105,8.1317,8.1317,8.1071,8.1377,8.1818,8.2402,8.3248,8.3837,8.4278,8.505,8.5428,8.5463,8.5194,8.4958,8.4694,8.5194,8.5276,8.4841,8.519,8.4722,8.3269,8.265,8.1794,8.0697,8.0049,7.9019,7.7363,7.3205,6.9611,0.0,6.2774,0.0,0.0,0.0,0.0,0.0,0.0,0.0,0.0,5.9951,6.2427,6.5679,6.4568,6.405,6.4849,6.4503,6.449,6.5198,6.6227,6.7418,6.8828,7.0242,7.1641,7.306,7.4126,7.5086,7.5792,7.646,7.6862,7.7031,7.6984,7.6796,7.6703,7.722,7.7661,7.7558,7.7704,7.7469,7.671,7.6473,7.6316,7.5798,7.5539,7.5232,7.539,7.5263,7.5281,7.5578,7.5586,7.5608,7.5676,7.5842,7.6017,7.6042,7.6484,7.6951,7.7174,7.692,7.6717,7.8358,7.8859,7.8003,7.7841,7.8089,7.7525,7.7362,7.744,7.6271,7.5179,7.4234,7.3817,7.3981,7.4553,7.528,7.5597,7.5686,7.7518,7.9143,8.0573,8.1255,8.2201,8.3272,8.2492,8.2029,8.1917,8.1429,8.1442,8.195,8.1829,8.2297,8.3411,8.3379,8.3749,8.4493,0.0,0.0,0.0,8.5116,8.505,8.5011,8.5312,8.5459,8.5352,8.5076,0.0,8.3236,8.2177,8.0826,7.9192,7.7891,0.0,0.0,0.0,0.0,0.0,0.0,0.0,0.0,0.0,0.0,0.0,6.3259,6.2767,6.1717,6.3713,6.5567,6.6623,6.6535,6.6433,6.662,6.6548,6.6939,6.7995,6.8862,7.0051,7.1688,7.2675,7.3533,7.42,7.4984,7.549,7.5584,7.6097,7.6656,7.6919,7.6896,7.7042,7.7363,7.7685,7.7956,7.8094,7.8119,7.7674,7.6242,7.6894,7.705,7.6305,7.6462,7.646,7.606,7.5907,7.5778,7.5745,7.5676,7.5676,7.5664,7.5757,7.592,7.6063,7.6081,7.6067,7.6326,7.7078,7.7529,7.9877,0.0,7.9443,7.9178,0.0,7.9178,7.9133,7.9109,7.7529,7.6465,7.5861,7.6095,7.6295,7.6597,7.7676,7.8088,7.8059,7.9487,8.0682,8.1551,8.2036,8.2633,8.3346,8.2827,8.2331,8.2012,8.1827,8.1757,8.1781,8.2175,8.2623,8.3075,8.3631,8.3961,8.3946,8.4258,8.462,8.5077,8.5077,8.4841,8.4336,8.4551,8.4557,8.4208,0.0,0.0,0.0,0.0,0.0,0.0,0.0,0.0,0.0,0.0,0.0,6.9094,6.7049,6.5293,6.4048,6.4556,6.5283,6.5985,6.7268,6.7357,6.5654,6.7237,6.842,6.8704,6.8858,6.8945,6.899,6.9184,6.9693,7.0657,7.1275,7.2088,7.3294,7.4459,7.5238,7.5572,7.6393,7.695,7.6984,7.7174,7.746,7.7683,7.7729,7.7868,7.819,7.7974,7.7841,7.8068,7.8111,7.7779,7.6978,7.7073,7.732,7.654,7.6485,7.6586,7.6525,7.6171,7.5952,7.6041,7.5896,7.5674,7.5576,7.5918,7.632,7.653,7.6978,7.7234,7.7096,7.699,7.7041,8.1288,8.185,8.0955,8.0773,8.0969,8.0596,8.047,8.0453,0.0,0.0,0.0,7.8381,7.8652,7.8702,8.0161,8.0642,8.0393,8.1571,8.2178,8.2205,8.256,8.2779,8.2954,8.2855,8.2515,8.1938,8.2321,8.2196,8.1674,8.26,8.2892,8.2642,8.3724,8.3988,8.3427,8.3665,8.4197,8.4958,8.4945,8.4508,8.3674,8.3754,8.3498,8.2861,8.3032,8.2636,8.1618,8.1725,8.1037,7.934,7.9182,7.8267,7.6219,7.3798,7.1921,7.0778,6.8368,6.7042,6.7217,6.748,6.7921,6.8516,7.0346,7.0766,6.9166,7.0146,7.0834,7.0822,7.1078,7.1262,7.1408,7.1785,7.244,7.33,7.3663,7.4127,7.4958,7.6073,7.6871,7.6937,7.7659,7.8346,7.8444,7.8326,7.837,7.8572,7.8566,7.8751,7.8874,7.8442,7.8122,7.8253,7.83,7.8061,7.7803,7.7592,7.7251,7.6881,7.6588,7.6496,7.6719,7.6376,7.6156,7.6524,7.6154,7.5817,7.5717,7.6255,7.6854,7.699,7.8007,7.8686,7.7921,7.6838,7.6466,8.1618,8.1558,8.1176,8.1183,8.1417,8.1356,8.1558,8.1784,8.0166,7.9668,7.9972,8.0455,8.1047,8.1606,8.2264,8.2186,8.1581,8.1746,8.1985,0.0,8.2029,8.2427,8.3187,8.2694,8.2386,8.2372,8.2742,8.2877,8.2833,8.3257,8.3305,8.2979,8.3107,8.3392,8.3704,8.3775,8.4089,8.4654,8.4453,8.4251,8.411,8.3736,8.3404,8.3071,8.2899,8.228,8.1081,8.0885,8.0016,7.8265,7.699,7.5862,7.489,7.3342,7.2201,7.1782,7.0792,7.0118,6.9946,7.036,7.0728,7.1135,7.2713,7.2842,7.0825,7.1536,7.2144,7.2144,7.2393,7.2737,7.3309,7.3672,7.4472,7.5924,7.6412,7.6988,7.7779,7.811,7.8243,7.803,7.8164,7.8303,7.8273,7.8325,7.8422,7.8426,7.8739,7.8782,7.8866,7.8992,7.9155,7.9155,7.9051,7.8912,7.8613,7.8421,7.795,7.775,7.7392,7.7146,7.7145,7.6961,7.6856,7.6982,7.6475,7.624,7.6613,7.6636,7.6944,7.7398,7.8052,7.8087,7.7456,7.6927,7.6961,8.3004,8.2965,8.2088,8.1768,8.1857,8.1618,8.1758,8.218,8.1858,8.1704,8.1812,8.2392,8.2635,8.2635,8.3205,8.3082,8.24,8.2386,8.2456,8.2554,8.2274,8.2383,8.2751,8.2399,8.2294,8.2498,8.2468,8.2677,8.3118,8.3481,8.3378,8.28,8.2728,8.2811,8.3038,8.3374,8.3582,8.3692,8.4034,8.4009,8.3625,8.3241,8.2623,8.1744,8.1721,8.1319,8.0332,8.0352,7.9826,7.8619,7.7402,7.6202,7.5043,7.3715,7.2801,7.2386,7.1815,7.1673,7.204,7.2729,7.3366,7.3921,7.4528,7.458,7.3699,7.4184,7.4501,7.4513,7.4727,7.4997,7.5322,7.5592,7.6178,7.7122,7.7358,7.7665,7.8235,7.8691,7.888,7.8816,7.9097,7.9284,7.9219,7.9272,7.9334,7.9346,7.9457,7.9519,7.9507,7.9669,7.9568,7.8946,7.8716,7.8524,7.8308,7.8065,7.7782,7.75,7.7363,7.7426,7.7534,7.7408,7.7244,7.7422,7.7018,7.6709,7.6942,7.7233,7.7581,7.8051,7.8644,7.8647,7.8219,7.7536,7.7063,8.4174,8.4053,8.2905,8.235,8.235,8.2205,8.2331,8.2669,8.3526,8.3719,8.3508,8.401,8.3844,8.3248,8.3943,8.3844,8.32,8.3077,8.295,8.2742,8.2471,8.2295,8.2285,8.2025,8.2035,8.229,8.211,8.2347,8.2928,8.3368,8.3265,8.2627,8.2393,8.2399,8.251,8.3052,8.3234,8.3136,8.3692,8.3664,8.3093,8.2743,8.2012,8.0909,8.0792,8.0513,7.989,7.9946,7.9681,7.8926,7.8144,7.7086,7.5689,7.4791,7.4075,7.3532,7.323,7.3347,7.399,7.468,7.526,7.5766,7.5784,7.5823,7.6049,7.6459,7.6577,7.639,7.6373,7.6576,7.6781,7.7129,7.753,7.785,7.8022,7.8228,7.8352,7.89,7.9263,7.9343,7.9786,8.0187,8.0209,8.0209,8.0154,8.012,8.0209,8.0209,8.0209,8.0209,7.9696,7.8951,7.8585,7.853,7.8026,7.7921,7.7828,7.7545,7.7489,7.7751,7.8005,7.7751,7.7599,7.7897,7.7555,7.7268,7.7172,7.7586,7.8204,7.8681,7.9103,7.9196,7.8455,7.7401,7.6722,8.4227,8.3581,8.31,8.2893,8.2907,8.3681,8.3905,8.3953,8.5153,8.5421,8.4786,8.4956,8.4573,8.4076,8.4625,8.4558,8.3815,8.359,8.3097,8.2508,8.2169,8.2039,8.204,8.1701,8.157,8.166,8.1904,8.206,8.233,8.29,8.3019,8.2586,8.221,8.2299,8.2798,8.315,8.3429,8.3692,8.3499,8.3229,8.2905,8.2469,8.2084,8.1688,8.0942,8.0354,8.0008,7.9631,7.9098,7.836,7.8213,7.7658,7.6706,7.6654,7.6465,7.5976,7.6092,7.6218,7.6032,7.5898,7.5773,7.5593,7.6149,7.6496,7.6563,7.7379,7.7449,7.6643,7.6357,7.6728,7.7271,7.7814,7.8255,7.8626,7.911,7.9523,7.9268,7.9518,7.9739,7.9739,7.9964,8.0209,8.0183,8.0196,8.0209,8.0209,8.0209,8.0209,8.0209,8.0171,7.9972,7.9476,7.9443,7.9422,7.9085,7.8925,7.8628,7.8582,7.8471,7.8405,7.8372,7.8379,7.8398,7.8193,7.7894,7.7655,7.7947,7.8212,7.8267,7.884,7.8916,7.8463,7.7383,7.6473,7.6051,8.4457,8.4406,8.3438,8.2957,8.3002,8.3356,8.3475,8.3456,8.4366,8.4423,8.3958,8.4705,8.4705,8.4043,8.4757,8.4473,8.3385,8.3462,8.3351,8.2982,8.2354,8.212,8.2271,8.153,8.1316,8.1474,8.1278,8.1567,8.2231,8.2147,8.2047,8.2198,8.172,8.1716,8.2356,8.2996,8.3304,8.3282,8.3122,8.2911,8.2652,8.2613,8.2347,8.186,8.1592,8.1009,8.0148,8.0021,7.969,7.894,7.8363,7.782,7.7424,7.6906,7.6511,7.6337,7.6813,7.7013,7.675,7.6819,7.6799,7.6526,7.6641,7.6776,7.6956,7.7492,7.7661,7.7469,7.751,7.7735,7.8014,7.8279,7.8557,7.8856,7.9133,7.929,7.9401,7.9479,7.9557,7.9583,7.9801,7.9968,7.9993,8.0107,8.0196,8.0209,8.0209,8.0209,8.0209,8.0069,7.9814,7.9492,7.9362,7.9146,7.8909,7.8764,7.8684,7.8657,7.8577,7.8484,7.8484,7.8484,7.8497,7.8484,7.8186,7.8086,7.8391,7.8445,7.8465,7.8821,7.8325,7.7665,7.7355,7.6237,7.5561,8.4486,8.4863,8.3953,8.3445,8.3215,8.328,8.3167,8.2992,8.365,8.3536,8.3049,8.4227,8.4449,8.4013,8.4641,8.43,8.3344,8.3267,8.3308,8.3262,8.2232,8.1883,8.2059,8.1297,8.096,8.1001,8.0594,8.0867,8.1691,8.1086,8.1105,8.1697,8.1225,8.1343,8.2258,8.2827,8.301,8.2897,8.2798,8.2656,8.2452,8.2571,8.2411,8.1897,8.1814,8.1315,8.0288,8.0093,7.9788,7.9335,7.8451,7.7986,7.8019,7.7324,7.6907,7.694,7.7404,7.7569,7.7335,7.743,7.7394,7.7088,7.6825,7.6797,7.706,7.7389,7.7733,7.8046,7.8336,7.8451,7.8484,7.8564,7.8671,7.8803,7.8843,7.8988,7.9127,7.9206,7.9271,7.9297,7.9505,7.9737,7.9827,8.0031,8.0209,8.0209,8.0209,8.0209,8.0196,8.0044,7.9814,7.9453,7.9172,7.8922,7.8577,7.8511,7.8484,7.8484,7.8484,7.8484,7.8484,7.8484,7.8484,7.8484,7.8484,7.8484,7.8497,7.8511,7.8292,7.8158,7.773,7.7082,7.6636,7.5707,7.5124,8.4186,8.4735,8.4943,8.4567,8.3991,8.4162,8.3768,8.2921,8.3482,8.3421,8.2912,8.363,8.3794,8.3527,8.4258,8.4378,8.3918,8.3082,8.2835,8.2923,8.1714,8.106,8.1043,8.0689,8.0358,8.009,7.996,7.9967,8.009,7.9778,8.0261,8.1505,8.0928,8.1349,8.2603,8.2628,8.2614,8.277,8.2585,8.2395,8.2338,8.2141,8.2025,8.1861,8.1379,8.0996,8.0705,7.9543,7.896,7.9208,7.8523,7.8236,7.8437,7.8398,7.8285,7.8318,7.8384,7.8297,7.7926,7.7486,7.7074,7.6765,7.6496,7.6421,7.6718,7.7278,7.7719,7.8066,7.8323,7.8484,7.8511,7.8671,7.8724,7.8577,7.875,7.8777,7.8577,7.8817,7.8876,7.8975,7.9219,7.9518,7.9776,8.001,8.0171,8.0196,8.0209,8.0209,8.0196,8.0171,7.9891,7.9531,7.931,7.9153,7.8631,7.8484,7.8484,7.8484,7.8484,7.8484,7.8484,7.8484,7.8484,7.8484,7.8484,7.8484,7.8484,7.8305,7.7934,7.7699,7.7373,7.6835,7.6119,7.5395,7.4882,8.3787,8.4477,8.5393,8.5382,8.4672,8.4323,8.3682,8.2967,8.266,8.2151,8.1662,8.2567,8.2785,8.2328,8.3505,8.377,8.3376,8.3094,8.2775,8.235,8.1438,8.0988,8.0944,8.0418,7.9921,7.9597,7.9301,7.9315,7.9574,7.9523,8.0074,8.1061,8.1252,8.1615,8.23,8.287,8.2861,8.2346,8.2198,8.2054,8.185,8.1529,8.1352,8.1381,8.1534,8.1373,8.0914,8.0376,7.9945,7.9603,7.9075,7.8832,7.8908,7.8654,7.8417,7.8269,7.8242,7.7943,7.7292,7.7032,7.6648,7.6192,7.6235,7.6324,7.6534,7.7125,7.7665,7.7829,7.8255,7.847,7.8497,7.8591,7.8617,7.8557,7.8577,7.8617,7.8537,7.8591,7.8644,7.8684,7.8896,7.9251,7.966,7.9891,8.0019,8.0171,8.0209,8.0209,8.0145,7.9942,7.9634,7.9388,7.9074,7.877,7.8564,7.8484,7.8484,7.8484,7.8484,7.8484,7.8484,7.8484,7.8484,7.8484,7.8484,7.8418,7.8384,7.8398,7.7987,7.7527,7.7214,7.6468,7.561,7.5089,7.4797,8.4027,8.4664,8.5869,8.5924,8.5094,8.4599,8.3662,8.2568,8.2091,8.1526,8.1121,8.1827,8.2109,8.2031,8.2689,8.2769,8.2414,8.2668,8.2553,8.1993,8.1207,8.0698,8.0357,7.9847,7.9309,7.8879,7.8698,7.8825,7.9165,7.9263,8.0036,8.1327,8.1452,8.1758,8.2342,8.2939,8.2775,8.2098,8.1894,8.1734,8.1499,8.1174,8.0995,8.104,8.1352,8.1344,8.0943,8.0743,8.0445,7.9994,7.9491,7.9209,7.9139,7.8652,7.8282,7.8107,7.7821,7.7347,7.6648,7.6278,7.5919,7.5557,7.5702,7.589,7.6135,7.6957,7.743,7.7692,7.8147,7.8484,7.8511,7.8577,7.8617,7.8617,7.8631,7.8631,7.8617,7.8551,7.8497,7.8537,7.875,7.9094,7.942,7.9609,7.9789,8.0044,8.0082,8.0048,8.0019,7.9801,7.9427,7.9258,7.8922,7.8671,7.8524,7.8484,7.8484,7.8484,7.8484,7.8484,7.8484,7.8484,7.8451,7.8484,7.8418,7.8351,7.8332,7.8398,7.8073,7.7547,7.6956,7.6233,7.554,7.4901,7.4818,8.4905,8.5314,8.6319,8.6075,8.518,8.4968,8.3721,8.1893,8.1867,8.1589,8.1101,8.1363,8.1569,8.2072,8.15,8.1244,8.1144,8.1583,8.1873,8.172,8.0879,8.005,7.9356,7.9047,7.8511,7.788,7.8081,7.8445,7.8903,7.909,8.0075,8.1601,8.1539,8.1936,8.3054,8.282,8.2462,8.1948,8.1561,8.1393,8.1422,8.101,8.0801,8.0816,8.0604,8.0619,8.0901,8.0392,8.0198,8.0319,7.9755,7.9308,7.9179,7.8686,7.8192,7.8012,7.732,7.6712,7.6274,7.557,7.5206,7.5022,7.5005,7.5345,7.585,7.6662,7.7352,7.7754,7.8266,7.8597,7.873,7.8996,7.9042,7.8876,7.8896,7.8889,7.8777,7.8624,7.8484,7.8524,7.8711,7.8863,7.8955,7.9185,7.9492,7.9724,7.9801,7.9768,7.9789,7.9673,7.9459,7.9107,7.883,7.8657,7.8551,7.8484,7.8484,7.8484,7.8484,7.8484,7.8484,7.8484,7.8318,7.8285,7.8153,7.8053,7.7855,7.7868,7.745,7.6913,7.6437,7.5958,7.5377,7.4864,7.5139,8.4876,8.5566,8.5649,8.5371,8.4799,8.433,8.3221,8.192,8.1538,8.0728,7.9917,7.9761,7.9647,7.9381,7.9131,7.9306,7.962,7.9885,8.0044,8.0204,8.0054,7.9472,7.8728,7.8629,7.8434,7.8086,7.8136,7.8554,7.9154,7.9441,8.0365,8.1531,8.229,8.2617,8.2811,8.2871,8.2465,8.1423,8.0769,8.036,8.0117,7.9828,7.9659,7.9611,7.9503,7.9611,7.9949,8.0214,8.0493,8.0773,8.0344,7.9931,7.9664,7.9569,7.914,7.8348,7.7985,7.7329,7.6467,7.6058,7.5565,7.5222,7.5353,7.5489,7.5655,7.6599,7.7558,7.8265,7.8919,7.9479,8.0153,8.0589,8.0215,7.9049,7.9094,7.8999,7.8403,7.802,7.8014,7.8398,7.8564,7.8697,7.887,7.9041,7.9159,7.9453,7.9518,7.9518,7.9505,7.9342,7.9172,7.8902,7.8777,7.8644,7.8551,7.8484,7.8484,7.8484,7.8484,7.8484,7.8484,7.8451,7.8285,7.8086,7.7967,7.7702,7.7537,7.7272,7.6887,7.6402,7.5916,7.5494,7.5038,7.5156,7.5591,8.4731,8.515,8.4955,8.4651,8.4283,8.3675,8.2713,8.1595,8.1072,8.029,7.947,7.908,7.8891,7.8625,7.8425,7.8438,7.8712,7.8848,7.8967,7.9184,7.9555,7.9224,7.8486,7.8198,7.8177,7.8135,7.8035,7.8481,7.938,7.9789,8.0549,8.1785,8.2644,8.2895,8.2683,8.2727,8.2242,8.131,8.061,8.0025,7.9714,7.9479,7.9242,7.9021,7.888,7.899,7.9317,7.9827,8.0347,8.0702,8.0654,8.0474,8.0235,7.9879,7.927,7.8459,7.7687,7.6995,7.6305,7.6057,7.5855,7.5418,7.5878,7.6357,7.6494,7.7385,7.8383,7.9186,7.981,8.0431,8.1001,8.1511,8.1149,8.0213,8.0311,7.9743,7.8674,7.8125,7.7908,7.8186,7.8298,7.8558,7.8697,7.8764,7.887,7.912,7.9232,7.9219,7.9192,7.9041,7.8922,7.8803,7.8631,7.8537,7.8511,7.8484,7.8484,7.8484,7.8484,7.8484,7.8484,7.8484,7.8384,7.8119,7.7934,7.7338,7.706,7.694,7.6622,7.6069,7.5662,7.5801,7.5786,7.6034,7.6466,8.4452,8.4218,8.409,8.3847,8.3505,8.313,8.212,8.0797,8.0566,8.0281,7.9789,7.9111,7.9102,7.941,7.8685,7.8268,7.8265,7.8435,7.8677,7.8867,7.9275,7.9304,7.8892,7.8072,7.7854,7.8038,7.7862,7.8336,7.9452,7.9759,8.0653,8.1986,8.2444,8.2692,8.2568,8.2334,8.1952,8.1459,8.0793,8.0254,7.9905,7.9778,7.9495,7.8912,7.8548,7.8486,7.8817,7.9317,7.9888,8.0509,8.088,8.0945,8.0634,7.96,7.898,7.8335,7.6832,7.637,7.6026,7.604,7.5804,7.5727,7.6523,7.7302,7.7768,7.8575,7.9519,8.0301,8.0854,8.1261,8.1483,8.1933,8.2125,8.2137,8.1714,8.0811,7.95,7.9042,7.8637,7.814,7.8259,7.8597,7.869,7.869,7.879,7.8817,7.8922,7.8975,7.8962,7.8909,7.879,7.8684,7.8591,7.8511,7.8484,7.8484,7.8484,7.8484,7.8484,7.8484,7.8418,7.8351,7.8252,7.7987,7.7669,7.704,7.6569,7.6396,7.6306,7.6005,7.6015,7.6446,7.6859,7.7153,7.766,8.3416,8.4151,8.3164,8.2511,8.211,8.1802,8.1265,8.0529,8.0217,7.9955,7.9478,7.8826,7.8501,7.8296,7.771,7.736,7.752,7.7646,7.8183,7.8847,7.905,7.9231,7.9025,7.8295,7.8045,7.838,7.8161,7.8632,7.9688,7.9847,8.0549,8.1717,8.2107,8.2314,8.2266,8.1952,8.1587,8.1148,8.0307,7.988,7.9655,7.8942,7.8467,7.8265,7.7737,7.7635,7.7991,7.8943,8.0071,8.1156,8.1541,8.1338,8.0711,8.0368,7.9548,7.8217,7.77,7.7143,7.6836,7.6837,7.6716,7.641,7.7432,7.8128,7.8256,7.9327,8.0325,8.1257,8.1939,8.2481,8.2983,8.3369,8.3638,8.3643,8.2505,8.1344,8.0865,7.988,7.9189,7.9881,7.954,7.936,7.9313,7.928,7.9141,7.8883,7.8817,7.8936,7.8975,7.8962,7.8909,7.879,7.8684,7.8564,7.8484,7.8484,7.8484,7.8484,7.8484,7.8484,7.8318,7.81,7.7868,7.7557,7.7139,7.6576,7.6117,7.5796,7.5726,7.6061,7.6523,7.703,7.7982,7.8504,7.9086,8.3207,8.3342,8.2345,8.1886,8.1708,8.1392,8.1025,8.0626,8.0284,7.9836,7.9315,7.8645,7.8184,7.7927,7.7563,7.7288,7.7209,7.7481,7.8043,7.8722,7.9316,7.9628,7.9463,7.8725,7.8473,7.8883,7.8287,7.8728,7.9688,7.99,8.0531,8.1444,8.1802,8.1989,8.2146,8.1653,8.1367,8.116,8.0456,7.9981,7.9734,7.8932,7.8325,7.7984,7.7385,7.7261,7.7975,7.8958,8.0071,8.1052,8.1437,8.1304,8.0769,8.0299,7.9503,7.8087,7.7749,7.7361,7.7179,7.7326,7.74,7.7428,7.8358,7.9135,7.9638,8.0513,8.1515,8.2154,8.281,8.3332,8.3723,8.4143,8.4392,8.4357,8.3298,8.2201,8.1692,8.0496,7.9845,7.9921,7.9942,7.9968,8.0001,8.0001,7.9768,7.9442,7.9221,7.9207,7.912,7.9107,7.8993,7.8828,7.8716,7.8584,7.8445,7.8418,7.8325,7.8345,7.8306,7.8345,7.8312,7.8047,7.7974,7.7643,7.6867,7.6323,7.6238,7.6168,7.6304,7.6686,7.7137,7.7954,7.8948,7.956,8.0188,8.3272,8.2104,8.1649,8.1611,8.1709,8.1445,8.0903,8.0686,8.0236,7.9821,7.9238,7.8536,7.8211,7.8191,7.8055,7.7777,7.7153,7.7847,7.8286,7.886,7.954,8.0139,8.0161,7.922,7.9099,7.9464,7.8437,7.8888,7.9836,8.0082,8.054,8.1303,8.1529,8.17,8.1808,8.1411,8.1308,8.1319,8.0907,8.0476,8.0196,7.9557,7.8969,7.8446,7.7714,7.7786,7.8451,7.9178,7.9934,8.0766,8.0901,8.0946,8.0721,7.9642,7.866,7.799,7.7484,7.7235,7.7145,7.7533,7.7859,7.8232,7.9331,8.0375,8.0962,8.173,8.2425,8.2788,8.3416,8.3543,8.3755,8.4177,8.448,8.4479,8.4438,8.3479,8.1776,8.1031,8.041,7.9028,7.9995,8.0392,8.0565,8.0578,8.0511,7.9881,7.9704,7.9546,7.9353,7.9146,7.8994,7.8744,7.8664,7.8575,7.8437,7.8345,7.8206,7.8113,7.8033,7.8066,7.8332,7.8239,7.8359,7.8047,7.7241,7.7063,7.7317,7.725,7.7173,7.7715,7.8446,7.9284,8.0109,8.0374,8.0884,8.2234,8.1666,8.1031,8.0763,8.0693,8.0125,7.9836,7.9759,7.9365,7.9161,7.8837,7.8409,7.8191,7.8172,7.8129,7.7788,7.731,7.8086,7.8712,7.9162,7.9465,8.0157,8.0463,7.988,7.9867,8.008,7.9878,8.002,8.0507,8.0634,8.0823,8.1144,8.1255,8.1268,8.1293,8.1238,8.1135,8.1172,8.1032,8.0922,8.073,8.0186,7.9707,7.9386,7.8651,7.8473,7.8839,7.929,7.9581,7.9949,8.0481,8.0676,8.0087,7.9177,7.8231,7.7583,7.7626,7.7621,7.7608,7.8089,7.8746,7.888,7.9857,8.1035,8.1654,8.228,8.2841,8.3108,8.3117,8.3187,8.3452,8.3933,8.4238,8.4359,8.4565,8.4227,8.2779,8.2007,8.1561,8.1317,8.091,8.0819,8.1013,8.1052,8.0829,8.0382,8.012,7.9951,7.9685,7.9381,7.915,7.8994,7.8585,7.8507,7.8523,7.852,7.8597,7.8511,7.8378,7.8389,7.8643,7.8465,7.8565,7.8224,7.7594,7.7727,7.8232,7.8139,7.8,7.8869,7.9618,8.0052,8.0506,8.0979,8.0946,8.1463,8.1183,8.051,8.0413,8.0581,8.0113,7.9893,7.9773,7.943,7.8979,7.8493,7.8099,7.7825,7.7719,7.7947,7.776,7.7631,7.8399,7.9063,7.9365,7.971,8.0186,8.0521,8.0532,8.0549,8.0741,8.0335,8.0471,8.0791,8.092,8.094,8.1075,8.1082,8.11,8.1082,8.1082,8.11,8.11,8.1082,8.1082,8.0973,8.0463,7.9878,7.9638,7.8998,7.8756,7.9022,7.9353,7.9489,7.9642,7.998,7.9995,7.9333,7.8501,7.7717,7.7241,7.7276,7.7564,7.7675,7.8012,7.8494,7.9085,8.0027,8.0721,8.1434,8.2079,8.2485,8.2656,8.2666,8.2794,8.3224,8.3686,8.398,8.4049,8.4216,8.3809,8.2907,8.2542,8.2241,8.1983,8.1478,8.1512,8.1563,8.1549,8.1549,8.1225,8.0737,8.0539,8.0502,8.0211,7.9698,7.9349,7.8751,7.8487,7.8551,7.8712,7.9036,7.9145,7.9212,7.9373,7.9609,7.9204,7.8754,7.8539,7.8426,7.8796,7.9178,7.901,7.8951,7.9537,8.0088,8.0473,8.0533,8.0338,8.0177,8.1175,8.1,8.0284,8.031,8.0723,8.0321,8.0068,8.0044,7.9729,7.8917,7.8243,7.7733,7.7394,7.73,7.776,7.7818,7.8144,7.8533,7.9161,7.9607,7.9856,8.0226,8.0482,8.0805,8.1085,8.126,8.0912,8.086,8.1033,8.1041,8.1123,8.1129,8.1082,8.1082,8.1082,8.1082,8.1082,8.1082,8.1082,8.1082,8.1052,8.0573,8.0128,7.9818,7.9454,7.934,7.9563,7.9637,7.9617,7.9585,7.9396,7.9006,7.8516,7.7909,7.7328,7.7063,7.728,7.7543,7.7775,7.7986,7.8545,7.9241,7.9859,8.0436,8.1127,8.1613,8.1967,8.2155,8.2313,8.2609,8.3084,8.3479,8.3611,8.3575,8.3463,8.312,8.2566,8.2717,8.2334,8.1542,8.1554,8.174,8.1919,8.2017,8.2083,8.2058,8.152,8.1119,8.1095,8.0877,8.0295,7.9722,7.9108,7.8779,7.8786,7.8326,7.8737,7.9217,7.9519,7.9655,7.9895,7.9342,7.8881,7.9518,7.9675,7.9775,7.9761,7.9654,7.9755,8.023,8.0233,8.0305,8.0006,7.9603,7.9488,8.2232,8.1667,8.0725,8.0369,8.0315,7.9479,7.9125,7.9004,7.8708,7.8382,7.8111,7.7486,7.7183,7.7265,7.7733,7.8477,7.9065,7.9287,7.9343,7.9799,7.9913,7.9981,8.0571,8.099,8.1463,8.1858,8.1771,8.1717,8.1735,8.174,8.1538,8.1217,8.1175,8.1175,8.1113,8.1082,8.1082,8.1082,8.1082,8.1082,8.1052,8.098,8.096,8.0842,8.0607,8.0573,8.0499,8.0253,8.0001,7.989,7.8895,7.851,7.8389,7.7896,7.7421,7.7239,7.7693,7.7972,7.8018,7.8955,7.9543,8.0036,8.0377,8.0841,8.126,8.1514,8.169,8.1967,8.2165,8.2438,8.2538,8.292,8.2946,8.2813,8.2778,8.2756,8.1956,8.1972,8.2193,8.1417,8.1589,8.1886,8.2049,8.2226,8.2261,8.2308,8.2079,8.1617,8.1363,8.1087,8.065,8.0063,7.9476,7.9232,7.908,7.8362,7.8201,7.8817,7.9102,7.9047,7.9119,7.8913,7.8994,7.9738,7.9925,7.9752,7.9841,8.0017,7.9995,7.9983,7.9982,7.9958,7.9498,7.9084,7.8935,8.1617,8.1267,8.0453,8.0008,7.9773,7.9119,7.8789,7.8735,7.8391,7.8001,7.7634,7.7257,7.6978,7.7081,7.784,7.8899,7.9667,7.9771,7.9653,7.978,7.9595,7.9615,8.0201,8.0724,8.1288,8.1792,8.2166,8.2399,8.2413,8.2414,8.2074,8.1753,8.1637,8.1435,8.1158,8.1082,8.1082,8.1082,8.1082,8.1082,8.1117,8.1238,8.1461,8.1497,8.1531,8.1417,8.1334,8.0964,8.0472,8.0088,7.9659,7.9016,7.8467,7.8119,7.7715,7.7301,7.7668,7.8103,7.8196,7.9037,7.9557,7.9848,8.0409,8.0754,8.0995,8.1144,8.144,8.1701,8.1992,8.2034,8.1668,8.2114,8.19,8.1451,8.1597,8.1521,8.1272,8.1404,8.1353,8.1268,8.1569,8.1808,8.2058,8.2222,8.235,8.243,8.2499,8.2175,8.1736,8.1574,8.1308,8.0903,8.0419,8.0328,8.0133,7.9567,7.8942,7.9267,7.9129,7.9046,7.9091,7.9203,7.9552,8.011,8.0064,7.9672,7.9948,8.0095,7.9906,7.9659,7.9511,7.9295,7.8904,7.8595,7.8506,8.1201,8.1123,8.0345,7.9808,7.9407,7.8753,7.8382,7.8202,7.7709,7.7269,7.6911,7.6646,7.6412,7.6614,7.7487,7.863,7.9849,7.9889,7.9647,7.9395,7.9405,7.9395,7.9588,8.0099,8.0762,8.118,8.1823,8.2552,8.274,8.2596,8.2397,8.2073,8.2006,8.1668,8.1175,8.1082,8.1082,8.1082,8.1082,8.11,8.1286,8.1444,8.17,8.1819,8.1861,8.1879,8.1761,8.1212,8.0751,8.0269,7.9807,7.9312,7.8408,7.8272,7.7948,7.7321,7.744,7.7797,7.8246,7.8849,7.9476,7.9799,8.0227,8.0485,8.0726,8.104,8.1278,8.1481,8.1789,8.1715,8.1234,8.1161,8.0885,8.0355,8.0063,8.0048,8.0379,8.0602,8.0805,8.098,8.1381,8.1681,8.1895,8.2292,8.2442,8.2625,8.267,8.2761,8.2414,8.246,8.2274,8.1914,8.1625,8.1556,8.1441,8.1256,8.0849,8.0818,8.0282,7.979,7.987,7.9962,8.0072,7.9831,7.9689,7.9397,7.9814,7.9907,7.947,7.9132,7.892,7.8729,7.8533,7.8326,7.8208,8.2548,8.2447,8.1153,8.0333,7.9507,7.8106,7.717,7.6617,7.5959,7.5784,7.6186,7.5385,7.5259,7.5842,7.6471,7.7497,7.8494,7.9113,7.9208,7.908,7.9299,7.9403,7.9554,8.0018,8.0324,8.0655,8.1026,8.1789,8.2468,8.2329,8.2112,8.1998,8.1602,8.1175,8.1144,8.1134,8.1082,8.1082,8.11,8.1255,8.1512,8.1601,8.1926,8.2266,8.2393,8.2261,8.1892,8.126,8.0685,8.0398,7.8861,7.8272,7.8294,7.7923,7.7676,7.757,7.7813,7.8166,7.8533,7.9084,7.9614,7.9923,8.0303,8.0621,8.0779,8.1079,8.1349,8.1481,8.1792,8.1596,8.1006,8.0882,8.0377,7.9845,7.9454,7.9509,7.9703,8.0186,8.0347,8.0675,8.1115,8.1395,8.167,8.2141,8.2545,8.2704,8.2875,8.2954,8.2986,8.2975,8.2975,8.2556,8.209,8.1963,8.1755,8.1718,8.1626,8.1769,8.1042,8.0195,8.0023,7.9791,7.9188,7.8945,7.8942,7.9056,7.9266,7.9183,7.8862,7.8672,7.853,7.8436,7.8347,7.8141,7.792,8.2009,8.1572,8.0625,7.9481,7.8296,7.7182,7.652,7.6077,7.5428,7.5342,7.556,7.49,7.5069,7.5901,7.6413,7.734,7.852,7.8876,7.889,7.8815,7.8963,7.9057,7.9094,7.946,7.9828,8.0478,8.096,8.1698,8.2225,8.2164,8.1888,8.1761,8.1686,8.1483,8.1151,8.1289,8.1358,8.1444,8.158,8.1782,8.1875,8.1781,8.1797,8.2098,8.1996,8.1813,8.1563,8.131,8.0815,8.0575,7.9542,7.9113,7.8921,7.8592,7.836,7.815,7.8262,7.8437,7.8643,7.9257,7.9691,8.0061,8.0316,8.0457,8.0577,8.0867,8.1059,8.0895,8.1403,8.1327,8.0688,8.0282,7.9668,7.92,7.9059,7.9235,7.9392,7.974,8.0086,8.0451,8.0799,8.1129,8.1443,8.1801,8.228,8.2659,8.283,8.2885,8.3019,8.312,8.3131,8.3072,8.2546,8.2125,8.1811,8.1625,8.1252,8.1174,8.0659,7.9974,7.9725,7.9336,7.882,7.8511,7.8606,7.8707,7.8782,7.8688,7.8521,7.8331,7.8119,7.8058,7.7961,7.7878,7.7577,8.1078,8.0524,7.9997,7.8912,7.7496,7.6711,7.6073,7.5535,7.4933,7.482,7.4863,7.4499,7.4942,7.5811,7.6118,7.6858,7.8416,7.8731,7.8663,7.8563,7.8704,7.8871,7.9062,7.9311,7.9801,8.0511,8.0641,8.1135,8.1465,8.1613,8.1489,8.1629,8.1777,8.1542,8.1214,8.1188,8.133,8.1068,8.1301,8.1517,8.1605,8.1476,8.1453,8.1477,8.1405,8.1266,8.1202,8.1045,8.0838,8.034,8.0058,7.9473,7.8965,7.8969,7.8973,7.8896,7.8959,7.9053,7.9178,7.9459,7.9785,8.0012,8.0182,8.0252,8.0107,8.0454,8.0628,8.0358,8.0946,8.0932,8.0515,8.0036,7.9701,7.9246,7.8812,7.9036,7.9265,7.9634,7.9993,8.0322,8.0659,8.0943,8.1214,8.1467,8.1919,8.2488,8.2773,8.2805,8.2857,8.2919,8.2857,8.2717,8.2144,8.1699,8.1512,8.1256,8.0986,8.0624,8.0108,7.9803,7.9638,7.9196,7.8683,7.8504,7.8367,7.8256,7.8269,7.8227,7.8197,7.8068,7.7893,7.771,7.7568,7.7481,7.75,8.0113,7.9878,7.977,7.9073,7.7935,7.7075,7.5751,7.4432,7.3915,7.3741,7.3821,7.3734,7.4053,7.4678,7.5302,7.6087,7.7292,7.7954,7.8263,7.8551,7.8933,7.9203,7.9376,7.9574,7.9852,8.0032,8.0302,8.0295,8.0302,8.0946,8.131,8.1875,8.1718,8.1244,8.0916,8.0882,8.0839,8.0625,8.0649,8.0799,8.09,8.0891,8.0942,8.1218,8.1395,8.1443,8.1203,8.0793,8.0349,7.9776,7.959,7.9385,7.9037,7.9274,7.9429,7.9459,7.9613,7.9722,7.9799,7.9676,7.9769,7.996,8.0092,8.0012,7.9809,7.96,7.9693,7.9873,8.0341,8.0598,8.05,8.0456,7.9735,7.9358,7.8968,7.9076,7.9332,7.9596,7.9942,8.0196,8.0464,8.0752,8.0817,8.0992,8.1373,8.1945,8.1962,8.2005,8.2263,8.2313,8.2204,8.1945,8.1372,8.1056,8.0986,8.067,8.0284,8.0041,7.968,7.9641,7.9592,7.9104,7.842,7.8357,7.8197,7.7971,7.7708,7.7699,7.7688,7.7741,7.7632,7.7346,7.71,7.6953,7.7296,7.9519,7.935,7.8576,7.7644,7.6584,7.5574,7.465,7.3841,7.3236,7.2961,7.299,7.3019,7.3338,7.4017,7.4849,7.5732,7.6869,7.7816,7.8192,7.868,7.9124,7.9375,7.9523,7.9723,7.9988,8.0182,8.0252,8.0457,8.0745,8.0788,8.114,8.1522,8.1516,8.0915,8.0588,8.0442,8.0351,8.0536,8.0622,8.0896,8.1076,8.0792,8.0761,8.1092,8.0693,8.0535,8.0237,8.0093,7.9731,7.9464,7.9383,7.9304,7.9272,7.9675,7.986,7.9891,8.0091,8.0137,8.0122,7.9999,8.0045,8.0205,8.0111,7.9809,7.9485,7.9163,7.8871,7.9044,7.9487,7.9884,7.9855,7.9635,7.9261,7.9172,7.9164,7.9249,7.9293,7.951,7.9735,7.9947,8.021,8.0542,8.0526,8.0506,8.0877,8.1309,8.126,8.1264,8.151,8.1614,8.1456,8.1218,8.0646,8.0294,8.0224,7.9908,7.9557,7.9434,7.9276,7.9206,7.916,7.8635,7.8076,7.8068,7.7928,7.7577,7.7312,7.7133,7.711,7.7189,7.7054,7.6839,7.6633,7.6425,7.6657,7.8516,7.8323,7.7245,7.6396,7.5697,7.4738,7.3962,7.3386,7.2955,7.2668,7.2613,7.2613,7.3051,7.3805,7.4447,7.5502,7.6487,7.7308,7.7967,7.8477,7.889,7.9243,7.9487,7.9723,8.0076,8.0422,8.0545,8.0667,8.1027,8.1151,8.1402,8.1523,8.145,8.1048,8.0385,7.9939,7.9943,8.0186,8.0538,8.0777,8.084,8.0663,8.0485,8.0718,8.0365,8.0068,7.9836,7.9695,7.9617,7.9523,7.9568,7.9769,7.9953,8.0152,8.0335,8.0365,8.0365,8.035,8.0335,8.0289,8.0349,8.0554,8.02,7.9665,7.9097,7.8726,7.8334,7.8103,7.8682,7.9199,7.9325,7.9594,7.9512,7.9532,7.9418,7.9449,7.9127,7.9172,7.941,7.9651,7.9753,7.9553,7.9551,7.9462,7.9795,8.0282,8.066,8.0675,8.0783,8.0793,8.0624,8.033,7.9908,7.9627,7.9427,7.9231,7.9059,7.8939,7.8781,7.8633,7.8408,7.8012,7.7763,7.7676,7.7467,7.7133,7.6805,7.6495,7.6495,7.6599,7.6391,7.6135,7.5945,7.5731,7.5695,7.7034,7.6636,7.5889,7.5721,7.5755,7.498,7.3929,7.2915,7.28,7.2674,7.2497,7.2544,7.3071,7.3863,7.4223,7.5092,7.6046,7.6715,7.7341,7.7999,7.8777,7.91,7.9356,7.9681,7.9937,8.0374,8.0261,8.0278,8.1031,8.1118,8.1354,8.1488,8.1411,8.1207,8.0508,7.9621,7.9179,7.9242,7.9587,7.9838,8.0025,8.0177,8.0298,8.0389,8.0279,8.0015,7.9769,7.9614,7.9521,7.9459,7.9816,8.0061,8.0273,8.0636,8.0831,8.0861,8.0891,8.0906,8.0906,8.0651,8.0696,8.0764,8.0348,7.9745,7.9,7.8463,7.8071,7.8027,7.8471,7.906,7.9561,8.0023,7.9716,7.9616,7.9487,7.9329,7.9008,7.8918,7.918,7.8901,7.8452,7.8166,7.8234,7.8363,7.8658,7.9155,7.9864,8.0087,8.0021,7.9939,7.9767,7.9631,7.928,7.915,7.8964,7.8732,7.8585,7.8431,7.8314,7.8197,7.8066,7.7872,7.7632,7.7367,7.6952,7.6576,7.6148,7.5711,7.5793,7.5816,7.565,7.5422,7.5213,7.5079,7.5045,7.6392,7.619,7.4802,7.4336,7.4326,7.3806,7.2857,7.1834,7.1568,7.1665,7.1945,7.201,7.2394,7.3195,7.4108,7.4787,7.5372,7.7075,7.7694,7.7808,7.8561,7.9177,7.9349,7.9241,7.9528,7.9694,7.9538,7.9668,8.0684,8.0847,8.0995,8.1112,8.0784,8.0225,8.0021,7.9525,7.9116,7.921,7.963,8.0015,8.0166,8.0303,8.0439,8.0606,8.0439,8.0183,7.9876,7.9722,7.9506,7.9459,7.9815,8.0152,8.0396,8.0711,8.0981,8.0981,8.0981,8.0876,8.0816,8.0696,8.0876,8.0739,8.0442,7.9939,7.9565,7.9184,7.8689,7.8297,7.8462,7.8792,7.8796,7.8949,7.886,7.902,7.8936,7.8837,7.8676,7.8788,7.8831,7.8059,7.748,7.7303,7.7249,7.728,7.7486,7.7766,7.8373,7.8807,7.8873,7.8895,7.883,7.8879,7.8736,7.8641,7.8536,7.8504,7.8406,7.8322,7.8122,7.7874,7.7776,7.7555,7.7154,7.6725,7.638,7.603,7.5556,7.5146,7.5033,7.4981,7.4861,7.4837,7.4725,7.4601,7.4527,7.5352,7.4915,7.369,7.2973,7.2626,7.2268,7.1597,7.0801,7.0557,7.0836,7.1324,7.1697,7.2193,7.2894,7.3621,7.4421,7.4674,7.5638,7.6884,7.7045,7.77,7.8095,7.8327,7.8446,7.8423,7.8671,7.8655,7.8759,8.012,8.0384,8.092,8.1053,7.9935,7.9604,7.943,7.9117,7.8751,7.9001,7.9528,8.0198,8.0394,8.0606,8.0771,8.0771,8.0591,8.0227,8.0015,7.9722,7.9428,7.9506,7.9784,8.0183,8.0441,8.0713,8.0936,8.0876,8.0696,8.056,8.0455,8.047,8.0509,8.0349,8.0289,8.0216,7.9968,7.9372,7.8862,7.8536,7.8479,7.8141,7.7889,7.7939,7.7874,7.8033,7.804,7.792,7.7747,7.7806,7.7577,7.6862,7.6459,7.6318,7.6307,7.6263,7.6325,7.6574,7.6851,7.7289,7.7796,7.7993,7.8133,7.8261,7.8346,7.8367,7.8388,7.8431,7.8322,7.8237,7.7915,7.7579,7.7133,7.685,7.6473,7.6124,7.5818,7.546,7.4938,7.4601,7.4364,7.4239,7.4188,7.4201,7.4239,7.4138,7.3998,7.3885,7.3,7.2558,7.1838,7.1012,7.0881,7.0471,7.0093,7.0041,7.0286,7.0732,7.1638,7.2203,7.2745,7.3146,7.365,7.4207,7.4154,7.4944,7.5654,7.6373,7.6759,7.7087,7.7137,7.7352,7.7499,7.7685,7.8169,7.9478,8.0403,8.1222,8.1354,8.0048,7.9401,7.8959,7.88,7.8542,7.896,7.9664,8.0286,8.0591,8.0816,8.0824,8.0699,8.032,7.9938,7.9634,7.9312,7.9377,7.958,7.9967,8.0364,8.0713,8.0953,8.0756,8.053,8.0242,8.0023,7.9931,7.996,7.9714,7.9569,8.014,8.0256,7.9998,7.9354,7.8934,7.8182,7.7744,7.7344,7.7019,7.6809,7.6609,7.6709,7.6742,7.6615,7.6383,7.6216,7.5954,7.5562,7.521,7.5121,7.5356,7.5359,7.5602,7.5701,7.594,7.605,7.6609,7.7388,7.7564,7.7893,7.799,7.8143,7.8119,7.7977,7.785,7.7643,7.7522,7.7178,7.6679,7.6113,7.5723,7.54,7.5243,7.4865,7.4306,7.3876,7.3577,7.3525,7.3654,7.3615,7.3679,7.3551,7.3422,7.3261,7.2877,7.1789,7.1321,7.1294,7.1037,7.0379,6.9511,6.9274,6.9617,7.0441,7.0719,7.1608,7.2754,7.2903,7.3348,7.3814,7.4298,7.4822,7.5289,7.5638,7.6331,7.6549,7.6457,7.6555,7.6729,7.7046,7.7593,7.8876,8.0077,8.0652,8.0442,8.0096,7.9353,7.8878,7.8844,7.8946,7.9156,7.9923,8.0388,8.0694,8.0871,8.0751,8.0423,7.9976,7.9533,7.8976,7.8897,7.89,7.873,7.9422,7.9875,7.9938,8.0213,8.0259,8.018,7.9722,7.9231,7.9065,7.9187,7.8973,7.8474,7.8852,7.9172,7.9194,7.9144,7.8801,7.8014,7.7241,7.6827,7.6466,7.6154,7.5993,7.596,7.6026,7.6026,7.5814,7.557,7.5249,7.4765,7.4414,7.4539,7.4709,7.4898,7.5109,7.5082,7.5082,7.5122,7.5293,7.604,7.655,7.684,7.7042,7.6982,7.7261,7.723,7.7143,7.7009,7.6862,7.6507,7.5806,7.5255,7.4902,7.4556,7.4218,7.3953,7.3634,7.3259,7.2965,7.3136,7.3266,7.3175,7.3116,7.2979,7.2847,7.2397,7.2277,7.1321,7.0927,7.0879,7.0868,7.0343,6.965,6.9432,6.9661,6.9934,7.0396,7.1111,7.1924,7.2351,7.2781,7.3134,7.348,7.4056,7.4787,7.5217,7.5607,7.5764,7.5817,7.5754,7.5952,7.6387,7.6995,7.8399,7.99,8.0713,8.0648,8.0333,7.9337,7.8907,7.9283,7.9814,7.9927,8.0197,8.0631,8.0794,8.0799,8.0442,8.0236,7.979,7.9109,7.8747,7.8844,7.8601,7.8273,7.8997,7.9071,7.899,7.9076,7.906,7.887,7.848,7.8104,7.7982,7.8042,7.7721,7.7506,7.7708,7.7946,7.8164,7.8207,7.8074,7.7696,7.7021,7.6406,7.6015,7.5675,7.5542,7.5397,7.5542,7.5641,7.5424,7.5182,7.4739,7.423,7.4095,7.4196,7.4372,7.4539,7.4546,7.4381,7.4192,7.4116,7.4121,7.4405,7.4866,7.5208,7.5481,7.564,7.5937,7.6177,7.6107,7.6002,7.6054,7.5628,7.4877,7.4331,7.394,7.3492,7.3038,7.2907,7.288,7.2643,7.2463,7.2635,7.2662,7.2463,7.2441,7.2508,7.2361,7.1379,7.1317,7.0941,7.0426,7.007,7.0423,7.0464,7.0314,7.0385,7.0073,6.9789,7.0414,7.0859,7.1318,7.1706,7.2021,7.2344,7.2677,7.3227,7.4078,7.4197,7.459,7.5029,7.5055,7.5249,7.5279,7.5885,7.7034,7.8315,7.9538,8.0386,8.0933,8.0427,7.951,7.8791,7.99,8.0399,8.0362,8.0462,8.0754,8.0816,8.0599,8.0228,8.0363,7.9902,7.9334,7.9483,7.94,7.9091,7.8614,7.8311,7.8195,7.7986,7.7667,7.753,7.7486,7.732,7.7134,7.7041,7.7055,7.6766,7.6755,7.7117,7.7058,7.7104,7.7571,7.7604,7.7284,7.664,7.609,7.5658,7.5305,7.5119,7.4823,7.4706,7.4675,7.4473,7.4309,7.4113,7.3764,7.3828,7.393,7.4095,7.431,7.4373,7.3919,7.3359,7.3205,7.3033,7.3038,7.3342,7.3691,7.3964,7.4259,7.4485,7.4708,7.4859,7.4894,7.4944,7.446,7.3511,7.3168,7.2946,7.2622,7.2302,7.2248,7.2181,7.1992,7.1898,7.1952,7.1911,7.168,7.1698,7.1807,7.1835,7.0397,7.01,6.9709,6.9662,6.9989,7.056,7.0897,7.1073,7.1339,7.1015,7.0502,7.0295,7.0567,7.117,7.0938,7.1195,7.1814,7.1988,7.2426,7.3152,7.3513,7.3946,7.4555,7.4804,7.5006,7.5544,7.6321,7.7377,7.861,7.9178,7.9161,7.9037,7.9321,7.9462,7.8754,8.0086,8.0825,8.0784,8.0945,8.1075,8.1166,8.0586,8.008,7.9469,7.8772,7.8481,7.8427,7.808,7.7775,7.7434,7.7388,7.7292,7.7211,7.6644,7.666,7.6883,7.6398,7.618,7.6054,7.6023,7.5892,7.5615,7.5787,7.5905,7.6245,7.6921,7.712,7.6701,7.631,7.578,7.5374,7.5062,7.4744,7.4298,7.3932,7.3771,7.3609,7.3499,7.3422,7.3526,7.3624,7.3752,7.3919,7.4039,7.4084,7.3596,7.2725,7.2231,7.1826,7.1727,7.2063,7.2393,7.2632,7.2881,7.3081,7.318,7.3316,7.3426,7.3462,7.2855,7.2203,7.1933,7.177,7.1803,7.1639,7.1516,7.1433,7.1438,7.1369,7.1383,7.1254,7.1074,7.0907,7.0949,7.106,6.9746,6.9653,6.9278,6.9588,7.0266,7.0451,7.0908,7.1573,7.1468,7.1264,7.1001,7.0489,7.044,7.0934,7.0477,7.0593,7.1309,7.1467,7.1869,7.2432,7.3155,7.3611,7.4082,7.4582,7.5057,7.5612,7.6706,7.777,7.8829,7.9012,7.8846,7.8517,7.9274,7.9335,7.8878,8.0158,8.109,8.1257,8.1382,8.1508,8.136,8.0387,8.004,7.9234,7.8781,7.834,7.8395,7.8143,7.7476,7.6788,7.6175,7.5218,7.4982,7.4782,7.4813,7.4879,7.4836,7.4951,7.487,7.493,7.5022,7.4875,7.5151,7.555,7.5725,7.6378,7.6664,7.6347,7.6265,7.5815,7.5523,7.5253,7.4839,7.4431,7.4149,7.3973,7.3554,7.3194,7.3384,7.3757,7.3836,7.3954,7.4097,7.4214,7.406,7.3039,7.222,7.187,7.1367,7.0798,7.105,7.1132,7.1367,7.1569,7.1755,7.1748,7.1695,7.1825,7.2096,7.1848,7.147,7.0917,7.0613,7.067,7.0684,7.0627,7.0571,7.0673,7.0757,7.074,7.0641,7.0501,7.0345,7.0204,7.0303,6.9203,6.9409,6.909,6.9644,7.0654,7.0218,7.0861,7.1964,7.1368,7.1178,7.1321,7.0776,7.0476,7.0324,7.0233,7.0426,7.0665,7.0939,7.1332,7.1845,7.2705,7.3124,7.3686,7.4301,7.4987,7.5877,7.6924,7.7856,7.8818,7.859,7.8376,7.8738,7.8751,7.8666,7.9158,7.9992,8.0768,8.1137,8.1386,8.1617,8.0935,7.9905,7.9944,7.9801,7.9461,7.9053,7.9202,7.874,7.7705,7.662,7.5241,7.4271,7.3758,7.3763,7.3327,7.3393,7.3604,7.3437,7.3282,7.3713,7.4022,7.4358,7.4927,7.5269,7.5416,7.5678,7.5959,7.5983,7.5936,7.5894,7.5608,7.5205,7.4825,7.4287,7.4051,7.3966,7.3448,7.3042,7.3465,7.3954,7.4158,7.4265,7.4227,7.4366,7.3764,7.2735,7.2042,7.1747,7.1389,7.0821,7.0594,7.0323,7.0118,7.0318,7.0583,7.0597,7.0566,7.0773,7.1068,7.0945,7.0722,7.0172,6.9775,6.9588,6.9602,6.9761,6.9832,6.9904,6.999,7.0161,7.009,6.999,6.9847,6.9717,6.9614,6.8465,6.8236,6.816,6.8987,7.0276,7.0274,7.1155,7.2406,7.1894,7.171,7.1523,7.1055,7.0531,6.9985,6.9608,6.9772,7.0295,7.048,7.069,7.1108,7.2137,7.2586,7.3291,7.4295,7.5214,7.6149,7.7052,7.7709,7.8288,7.7653,7.7213,7.7536,7.6825,7.6985,7.7587,7.8564,7.9561,8.0085,8.0639,8.0831,8.0398,7.9765,7.9693,7.936,7.8818,7.8527,7.8133,7.7119,7.6541,7.5791,7.4774,7.3836,7.3386,7.3264,7.294,7.2401,7.2577,7.2442,7.2458,7.2687,7.3041,7.3691,7.4177,7.4614,7.4838,7.5163,7.5318,7.5277,7.5311,7.5586,7.5342,7.4848,7.4404,7.3637,7.3205,7.3386,7.322,7.3355,7.3725,7.4247,7.47,7.4526,7.4241,7.4212,7.4018,7.2992,7.2124,7.1818,7.1552,7.0915,7.0283,6.9832,6.9375,6.9287,6.9638,6.9685,6.9726,6.9914,7.0059,7.0041,6.983,6.9429,6.9065,6.8948,6.8977,6.9123,6.9167,6.9313,6.9458,6.9631,6.9573,6.9472,6.9356,6.9298,6.9255]},{"header":{"parameterUnit":"m.s-1","parameterCategory":1,"la1":31.0,"la2":29.5877,"lo1":-88.7671,"lo2":-86.6584,"dy":0.0162,"dx":0.0185,"nx":115,"ny":88,"refTime":"2023-04-24T00:00:00:Z","depth":0,"parameterNumber":3,"parameterNumberName":"V-component_of_WINDS"},"data":[0.0,0.0,0.0,0.0,0.0,0.0,0.0,0.0,0.0,0.0,0.0,0.0,0.0,0.0,0.0,0.0,0.0,0.0,0.0,0.0,0.0,0.0,0.0,0.0,0.0,0.0,0.0,0.0,0.0,0.0,0.0,0.0,0.0,0.0,0.0,0.0,0.0,0.0,0.0,0.0,0.0,0.0,0.0,0.0,0.0,0.0,0.0,0.0,0.0,0.0,0.0,0.0,0.0,0.0,0.0,0.0,0.0,0.0,0.0,0.0,0.0,0.0,0.0,0.0,0.0,0.0,0.0,0.0,0.0,0.0,0.0,0.0,0.0,0.0,0.0,0.0,0.0,0.0,0.0,0.0,0.0,0.0,0.0,0.0,0.0,0.0,0.0,0.0,0.0,0.0,0.0,0.0,0.0,0.0,0.0,0.0,0.0,0.0,0.0,0.0,0.0,0.0,0.0,0.0,0.0,0.0,0.0,0.0,0.0,0.0,0.0,0.0,0.0,0.0,0.0,0.0,0.0,0.0,0.0,0.0,0.0,0.0,0.0,0.0,0.0,0.0,0.0,0.0,0.0,0.0,0.0,0.0,0.0,0.0,0.0,0.0,0.0,0.0,0.0,0.0,0.0,0.0,0.0,0.0,0.0,0.0,0.0,0.0,0.0,0.0,0.0,0.0,0.0,0.0,0.0,0.0,0.0,0.0,0.0,0.0,0.0,0.0,0.0,0.0,0.0,0.0,0.0,0.0,0.0,0.0,0.0,0.0,0.0,0.0,0.0,0.0,0.0,0.0,0.0,0.0,0.0,0.0,0.0,0.0,0.0,0.0,0.0,0.0,0.0,0.0,0.0,0.0,0.0,0.0,0.0,0.0,0.0,0.0,0.0,0.0,0.0,0.0,0.0,0.0,0.0,0.0,0.0,0.0,0.0,0.0,0.0,0.0,0.0,0.0,0.0,0.0,0.0,0.0,0.0,0.0,0.0,0.0,0.0,0.0,0.0,0.0,0.0,0.0,0.0,0.0,0.0,0.0,0.0,0.0,0.0,0.0,0.0,0.0,0.0,0.0,0.0,0.0,0.0,0.0,0.0,0.0,0.0,0.0,0.0,0.0,0.0,0.0,0.0,0.0,0.0,0.0,0.0,0.0,0.0,0.0,0.0,0.0,0.0,0.0,0.0,0.0,0.0,0.0,0.0,0.0,0.0,0.0,0.0,0.0,0.0,0.0,0.0,0.0,0.0,0.0,0.0,0.0,0.0,0.0,0.0,0.0,0.0,0.0,0.0,0.0,0.0,0.0,0.0,0.0,0.0,0.0,0.0,0.0,0.0,0.0,0.0,0.0,0.0,0.0,0.0,0.0,0.0,0.0,0.0,0.0,0.0,0.0,0.0,0.0,0.0,0.0,0.0,0.0,0.0,0.0,0.0,0.0,0.0,0.0,0.0,0.0,0.0,0.0,0.0,0.0,0.0,0.0,0.0,0.0,0.0,0.0,0.0,0.0,0.0,0.0,0.0,0.0,0.0,0.0,0.0,0.0,0.0,0.0,0.0,0.0,0.0,0.0,0.0,0.0,0.0,0.0,0.0,0.0,0.0,0.0,0.0,0.0,0.0,0.0,0.0,0.0,0.0,0.0,0.0,0.0,0.0,0.0,0.0,0.0,0.0,0.0,0.0,0.0,0.0,0.0,0.0,0.0,0.0,0.0,0.0,0.0,0.0,0.0,0.0,0.0,0.0,0.0,0.0,0.0,0.0,0.0,0.0,0.0,0.0,0.0,0.0,0.0,0.0,0.0,0.0,0.0,0.0,0.0,0.0,0.0,0.0,0.0,0.0,0.0,0.0,0.0,0.0,0.0,0.0,0.0,0.0,0.0,0.0,0.0,0.0,0.0,0.0,0.0,0.0,0.0,0.0,0.0,0.0,0.0,0.0,0.0,0.0,0.0,0.0,0.0,0.0,0.0,0.0,0.0,0.0,0.0,0.0,0.0,0.0,0.0,0.0,0.0,0.0,0.0,0.0,0.0,0.0,0.0,0.0,0.0,0.0,0.0,0.0,0.0,0.0,0.0,0.0,0.0,0.0,0.0,0.0,0.0,0.0,0.0,0.0,0.0,0.0,0.0,0.0,0.0,0.0,0.0,0.0,0.0,0.0,0.0,0.0,0.0,0.0,0.0,0.0,0.0,0.0,0.0,0.0,0.0,0.0,0.0,0.0,0.0,0.0,0.0,0.0,0.0,0.0,0.0,0.0,0.0,0.0,0.0,0.0,0.0,0.0,0.0,0.0,0.0,0.0,0.0,0.0,0.0,0.0,0.0,0.0,0.0,0.0,0.0,0.0,0.0,0.0,0.0,0.0,0.0,0.0,0.0,0.0,0.0,0.0,0.0,0.0,0.0,0.0,0.0,0.0,0.0,0.0,0.0,0.0,0.0,0.0,0.0,0.0,0.0,0.0,0.0,0.0,0.0,0.0,0.0,0.0,0.0,0.0,0.0,0.0,0.0,0.0,0.0,0.0,0.0,0.0,0.0,0.0,0.0,0.0,0.0,0.0,0.0,0.0,0.0,0.0,0.0,0.0,0.0,0.0,0.0,0.0,0.0,0.0,0.0,0.0,0.0,0.0,0.0,0.0,0.0,0.0,0.0,0.0,0.0,0.0,0.0,0.0,0.0,0.0,0.0,0.0,0.0,0.0,0.0,0.0,0.0,0.0,0.0,0.0,0.0,0.0,0.0,0.0,0.0,0.0,0.0,0.0,0.0,0.0,0.0,0.0,0.0,0.0,0.0,0.0,0.0,0.0,0.0,0.0,0.0,0.0,0.0,0.0,0.0,0.0,0.0,0.0,0.0,0.0,0.0,0.0,0.0,0.0,0.0,0.0,0.0,0.0,0.0,0.0,0.0,0.0,0.0,0.0,0.0,0.0,0.0,0.0,0.0,0.0,0.0,0.0,0.0,0.0,0.0,0.0,0.0,0.0,0.0,0.0,0.0,0.0,0.0,0.0,0.0,0.0,0.0,0.0,0.0,0.0,0.0,0.0,0.0,0.0,0.0,0.0,0.0,0.0,0.0,0.0,0.0,0.0,0.0,0.0,0.0,0.0,0.0,0.0,0.0,0.0,0.0,0.0,0.0,0.0,0.0,0.0,0.0,0.0,0.0,0.0,0.0,0.0,0.0,0.0,0.0,0.0,0.0,0.0,0.0,0.0,0.0,0.0,0.0,0.0,0.0,0.0,0.0,0.0,0.0,0.0,0.0,0.0,0.0,0.0,0.0,0.0,0.0,0.0,0.0,0.0,0.0,0.0,0.0,0.0,0.0,0.0,0.0,0.0,0.0,0.0,0.0,0.0,0.0,0.0,0.0,0.0,0.0,0.0,0.0,0.0,0.0,0.0,0.0,0.0,0.0,0.0,0.0,0.0,0.0,0.0,0.0,0.0,0.0,0.0,0.0,0.0,0.0,0.0,0.0,0.0,0.0,0.0,0.0,0.0,0.0,0.0,0.0,0.0,0.0,0.0,0.0,0.0,0.0,0.0,0.0,0.0,0.0,0.0,0.0,0.0,0.0,0.0,0.0,0.0,0.0,0.0,0.0,0.0,0.0,0.0,0.0,0.0,0.0,0.0,0.0,0.0,0.0,0.0,0.0,0.0,0.0,0.0,0.0,0.0,0.0,0.0,0.0,0.0,0.0,0.0,0.0,0.0,0.0,0.0,0.0,0.0,0.0,0.0,0.0,0.0,0.0,0.0,0.0,0.0,0.0,0.0,0.0,0.0,0.0,0.0,0.0,0.0,0.0,0.0,0.0,0.0,0.0,0.0,0.0,0.0,0.0,0.0,0.0,0.0,0.0,0.0,0.0,0.0,0.0,0.0,0.0,0.0,0.0,0.0,0.0,0.0,0.0,0.0,0.0,0.0,0.0,0.0,0.0,0.0,0.0,0.0,0.0,0.0,0.0,0.0,0.0,0.0,0.0,0.0,0.0,0.0,0.0,0.0,0.0,0.0,0.0,0.0,0.0,0.0,0.0,0.0,0.0,0.0,0.0,0.0,0.0,0.0,0.0,0.0,0.0,0.0,0.0,0.0,0.0,0.0,0.0,0.0,0.0,0.0,0.0,0.0,0.0,0.0,0.0,0.0,0.0,0.0,0.0,0.0,0.0,0.0,0.0,0.0,0.0,0.0,0.0,0.0,0.0,0.0,0.0,0.0,0.0,0.0,0.0,0.0,0.0,0.0,0.0,0.0,0.0,0.0,0.0,0.0,0.0,0.0,0.0,0.0,0.0,1.4866,0.0,0.0,0.0,0.0,0.0,0.0,0.0,0.0,0.0,0.0,0.0,0.0,0.0,0.0,0.0,0.0,0.0,0.0,0.0,0.0,0.0,0.0,0.0,0.0,0.0,0.0,0.0,0.0,0.0,0.0,0.0,0.0,0.0,0.0,0.0,0.0,0.0,0.0,0.0,0.0,0.0,0.0,0.0,0.0,0.0,0.0,0.0,0.0,0.0,0.0,0.0,0.0,0.0,0.0,0.0,0.0,0.0,0.0,0.0,0.0,0.0,0.0,0.0,0.0,0.0,0.0,0.0,0.0,0.0,0.0,0.0,0.0,0.0,0.0,0.0,0.0,0.0,0.0,0.0,0.0,0.0,0.0,0.0,0.0,0.0,0.0,0.0,0.0,0.0,0.0,0.0,0.0,0.0,0.0,0.0,0.0,0.0,0.0,0.0,0.0,0.0,0.0,0.0,0.0,0.0,0.0,0.0,0.0,0.0,0.0,1.5419,1.5648,1.4758,1.4432,1.4743,0.0,0.0,0.0,0.0,0.0,0.0,0.0,0.0,0.0,0.0,0.0,0.0,0.0,0.0,0.0,0.0,0.0,0.0,0.0,0.0,0.0,0.0,0.0,0.0,0.0,0.0,0.0,0.0,0.0,0.0,0.0,0.0,0.0,0.0,0.0,0.0,0.0,0.0,0.0,0.0,0.0,0.0,0.0,0.0,0.0,0.0,0.0,0.0,0.0,0.0,0.0,0.0,0.0,0.0,0.0,0.0,0.0,0.0,0.0,0.0,0.0,0.0,0.0,0.0,0.0,0.0,0.0,0.0,0.0,0.0,0.0,0.0,0.0,0.0,0.0,0.0,0.0,0.0,0.0,0.0,0.0,0.0,0.0,0.0,0.0,0.0,0.0,0.0,0.0,0.0,0.0,0.0,0.0,0.0,0.0,0.0,0.0,0.0,0.0,0.0,0.0,0.0,0.0,0.0,0.0,0.0,0.0,0.0,0.0,0.0,0.0,0.0,1.4712,1.428,1.4427,0.0,0.0,0.0,0.0,0.0,0.0,0.0,0.0,0.0,0.0,0.0,0.0,0.0,0.0,0.0,0.0,0.0,0.0,0.0,0.0,0.0,0.0,0.0,0.0,0.0,0.0,0.0,0.0,0.0,0.0,0.0,0.0,0.0,0.0,0.0,0.0,0.0,0.0,0.0,0.0,0.0,0.0,0.0,0.0,0.0,0.0,0.0,0.0,0.0,0.0,0.0,0.0,0.0,0.0,0.0,0.0,0.0,0.0,0.0,0.0,0.0,0.0,0.0,0.0,0.0,0.0,0.0,0.0,0.0,0.0,0.0,0.0,0.0,0.0,0.0,0.0,0.0,0.0,0.0,0.0,0.0,0.0,0.0,0.0,0.0,0.0,0.0,0.0,0.0,0.0,0.0,0.0,0.0,0.0,0.0,0.0,0.0,0.0,0.0,0.0,0.0,0.0,0.0,0.0,0.0,0.0,0.0,0.0,0.0,0.0,1.6577,1.5875,1.5458,0.0,1.4051,0.0,0.0,0.0,0.0,0.0,0.0,0.0,0.0,0.0,0.0,0.0,0.0,0.0,0.0,0.0,0.0,0.0,0.0,0.0,0.0,0.0,0.0,0.0,0.0,0.0,0.0,0.0,0.0,0.0,0.0,0.0,0.0,0.0,0.0,0.0,0.0,0.0,0.0,0.0,0.0,0.0,0.0,0.0,0.0,0.0,0.0,0.0,0.0,0.0,0.0,0.0,0.0,0.0,0.0,0.0,0.0,0.0,0.0,0.0,0.0,0.0,0.0,0.0,0.0,0.0,0.0,0.0,0.0,0.0,0.0,0.0,0.0,0.0,0.0,0.0,0.0,0.0,0.0,0.0,0.0,0.0,0.0,0.0,0.0,0.0,0.0,0.0,0.0,0.0,0.0,0.0,0.0,0.0,0.0,0.0,0.0,0.0,0.0,0.0,0.0,0.0,0.0,0.0,0.0,0.0,0.0,0.0,0.0,0.0,0.0,1.6269,1.5624,1.5022,1.4502,0.0,0.0,0.0,0.0,0.0,0.0,0.0,0.0,0.0,0.0,0.0,0.0,0.0,0.0,0.0,0.0,0.0,0.0,0.0,0.0,0.0,0.0,0.0,0.0,0.0,0.0,0.0,0.0,0.0,0.0,0.0,0.0,0.0,0.0,0.0,0.0,0.0,0.0,0.0,0.0,0.0,0.0,0.0,0.0,0.0,0.0,0.0,0.0,0.0,0.0,0.0,0.0,0.0,0.0,0.0,0.0,0.0,0.0,0.0,0.0,0.0,0.0,0.0,0.0,0.0,0.0,0.0,0.0,0.0,0.0,0.0,0.0,0.0,0.0,0.0,0.0,0.0,0.0,0.0,0.0,0.0,0.0,0.0,0.0,0.0,0.0,0.0,0.0,0.0,0.0,0.0,0.0,0.0,0.0,0.0,0.0,0.0,0.0,0.0,0.0,0.0,0.0,0.0,0.0,0.0,0.0,0.0,0.0,0.0,0.0,1.6765,1.6095,1.541,1.4628,1.4171,1.4117,0.0,0.0,0.0,0.0,0.0,0.0,0.0,0.0,0.0,0.0,0.0,0.0,0.0,0.0,0.0,0.0,0.0,0.0,0.0,0.0,0.0,0.0,0.0,0.0,0.0,0.0,0.0,0.0,0.0,0.0,0.0,0.0,0.0,0.0,0.0,0.0,0.0,0.0,0.0,0.0,0.0,0.0,0.0,0.0,0.0,0.0,0.0,0.0,0.0,0.0,0.0,0.0,0.0,0.0,0.0,0.0,0.0,0.0,0.0,0.0,0.0,0.0,0.0,0.0,0.0,0.0,0.0,0.0,0.0,0.0,0.0,0.0,0.0,0.0,0.0,0.0,0.0,0.0,0.0,0.0,0.0,0.0,0.0,0.0,0.0,0.0,0.0,0.0,0.0,0.0,0.0,0.0,0.0,0.0,0.0,0.0,0.0,0.0,0.0,0.0,0.0,0.0,0.0,0.0,0.0,0.0,0.0,0.0,0.0,1.6985,1.6449,1.5403,1.4631,1.4122,0.0,0.0,0.0,0.0,0.0,0.0,0.0,0.0,0.0,0.0,0.0,0.0,0.0,0.0,0.0,0.0,0.0,0.0,0.0,0.0,0.0,0.0,0.0,0.0,0.0,0.0,0.0,0.0,0.0,0.0,0.0,0.0,0.0,0.0,0.0,0.0,0.0,0.0,0.0,0.0,0.0,0.0,0.0,0.0,0.0,0.0,0.0,0.0,0.0,0.0,0.0,0.0,0.0,0.0,0.0,0.0,0.0,0.0,0.0,0.0,0.0,0.0,0.0,0.0,0.0,0.0,0.0,0.0,0.0,0.0,0.0,0.0,0.0,0.0,0.0,0.0,0.0,0.0,0.0,0.0,0.0,0.0,0.0,0.0,0.0,0.0,0.0,0.0,0.0,0.0,0.0,0.0,0.0,0.0,0.0,0.0,0.0,0.0,0.0,0.0,0.0,0.0,0.0,0.0,0.0,0.0,0.0,0.0,0.0,1.7305,1.6987,1.6166,1.4891,1.4759,1.4357,0.0,0.0,0.0,0.0,0.0,0.0,0.0,0.0,0.0,0.0,0.0,0.0,0.0,0.0,0.0,0.0,0.0,0.0,0.0,0.0,0.0,0.0,0.0,0.0,0.0,0.0,0.0,0.0,0.0,0.0,0.0,0.0,0.0,0.0,0.0,0.0,0.0,0.0,0.0,0.0,0.0,0.0,0.0,0.0,0.0,0.0,0.0,0.0,0.0,0.0,0.0,0.0,0.0,0.0,0.0,0.0,0.0,0.0,0.0,0.0,0.0,0.0,0.0,0.0,0.0,0.0,0.0,0.0,0.0,0.0,0.0,0.0,0.0,0.0,0.0,0.0,0.0,0.0,0.0,0.0,0.0,0.0,0.0,0.0,0.0,0.0,0.0,0.0,0.0,0.0,0.0,0.0,0.0,0.0,0.0,0.0,0.0,0.0,0.0,0.0,0.0,0.0,0.0,0.0,0.0,0.0,0.0,0.0,0.0,1.7811,0.0,1.6482,0.0,1.5436,1.4903,0.0,0.0,0.0,0.0,0.0,0.0,0.0,0.0,0.0,0.0,0.0,0.0,0.0,0.0,0.0,0.0,0.0,0.0,0.0,0.0,0.0,0.0,0.0,0.0,0.0,0.0,0.0,0.0,0.0,0.0,0.0,0.0,0.0,0.0,0.0,0.0,0.0,0.0,0.0,0.0,0.0,0.0,0.0,0.0,0.0,0.0,0.0,0.0,0.0,0.0,0.0,0.0,0.0,0.0,0.0,0.0,0.0,0.0,0.0,0.0,0.0,0.0,0.0,0.0,0.0,0.0,0.0,0.0,0.0,0.0,0.0,0.0,0.0,0.0,0.0,0.0,0.0,0.0,0.0,0.0,0.0,0.0,0.0,0.0,0.0,0.0,0.0,0.0,0.0,0.0,0.0,0.0,0.0,0.0,0.0,0.0,0.0,0.0,0.0,0.0,0.0,0.0,0.0,0.0,0.0,0.0,0.0,0.0,1.7913,1.8576,1.8161,1.7678,1.7058,1.6804,1.5787,0.0,0.0,0.0,0.0,0.0,0.0,0.0,0.0,0.0,0.0,0.0,0.0,0.0,0.0,0.0,0.0,0.0,0.0,0.0,0.0,0.0,0.0,0.0,0.0,0.0,0.0,0.0,0.0,0.0,0.0,0.0,0.0,0.0,0.0,0.0,0.0,0.0,0.0,0.0,0.0,0.0,0.0,0.0,0.0,0.0,0.0,0.0,0.0,0.0,0.0,0.0,0.0,0.0,0.0,0.0,0.0,0.0,0.0,0.0,0.0,0.0,0.0,0.0,0.0,0.0,0.0,0.0,0.0,0.0,0.0,0.0,0.0,0.0,0.0,0.0,0.0,0.0,0.0,0.0,0.0,0.0,0.0,0.0,0.0,0.0,0.0,0.0,0.0,0.0,0.0,0.0,0.0,0.0,0.0,0.0,0.0,0.0,0.0,0.0,0.0,0.0,0.0,0.0,0.0,0.0,0.0,0.0,0.0,0.0,1.9914,2.0203,2.027,2.0074,1.8855,1.7578,0.0,0.0,0.0,0.0,0.0,0.0,0.0,0.0,0.0,0.0,0.0,0.0,0.0,0.0,0.0,0.0,0.0,0.0,0.0,0.0,0.0,0.0,0.0,0.0,0.0,0.0,0.0,0.0,0.0,0.0,0.0,0.0,0.0,0.0,0.0,0.0,0.0,0.0,0.0,0.0,0.0,0.0,0.0,0.0,0.0,0.0,0.0,0.0,0.0,0.0,0.0,0.0,0.0,0.0,0.0,0.0,0.0,0.0,0.0,0.0,0.0,0.0,0.0,0.0,0.0,0.0,0.0,0.0,0.0,0.0,0.0,0.0,0.0,0.0,0.0,0.0,0.0,0.0,0.0,0.0,0.0,0.0,0.0,0.0,0.0,0.0,0.0,0.0,0.0,0.0,0.0,0.0,0.0,0.0,0.0,0.0,0.0,0.0,0.0,0.0,0.0,0.0,0.0,0.0,0.0,0.0,0.0,0.0,0.0,2.1969,2.2375,2.2578,2.2545,2.0987,1.9501,1.8054,0.0,0.0,0.0,0.0,0.0,0.0,0.0,0.0,0.0,0.0,0.0,0.0,0.0,0.0,0.0,0.0,0.0,0.0,0.0,0.0,0.0,0.0,0.0,0.0,0.0,0.0,0.0,0.0,0.0,0.0,0.0,0.0,0.0,0.0,0.0,0.0,0.0,0.0,0.0,0.0,0.0,0.0,0.0,0.0,0.0,0.0,0.0,0.0,0.0,0.0,0.0,0.0,0.0,0.0,0.0,0.0,0.0,0.0,0.0,0.0,0.0,0.0,0.0,0.0,0.0,0.0,0.0,0.0,0.0,0.0,0.0,0.0,0.0,0.0,0.0,0.0,0.0,0.0,0.0,0.0,0.0,0.0,0.0,0.0,0.0,0.0,0.0,0.0,0.0,0.0,0.0,0.0,0.0,0.0,0.0,0.0,0.0,0.0,0.0,0.0,0.0,0.0,0.0,0.0,0.0,0.0,0.0,0.0,2.4508,2.4624,2.4643,2.4563,2.3182,2.1471,0.0,0.0,0.0,0.0,0.0,0.0,0.0,0.0,0.0,0.0,0.0,0.0,0.0,0.0,0.0,0.0,0.0,0.0,0.0,0.0,0.0,0.0,0.0,0.0,0.0,0.0,0.0,0.0,0.0,0.0,0.0,0.0,0.0,0.0,0.0,0.0,0.0,0.0,0.0,0.0,0.0,0.0,0.0,0.0,0.0,0.0,0.0,0.0,0.0,0.0,0.0,0.0,0.0,0.0,0.0,0.0,0.0,0.0,0.0,0.0,0.0,0.0,0.0,0.0,0.0,0.0,0.0,0.0,0.0,0.0,0.0,0.0,0.0,0.0,0.0,0.0,0.0,0.0,0.0,0.0,0.0,0.0,0.0,0.0,0.0,0.0,0.0,0.0,0.0,0.0,0.0,0.0,0.0,0.0,0.0,0.0,0.0,0.0,0.0,0.0,0.0,0.0,0.0,0.0,0.0,0.0,0.0,0.0,0.0,2.4981,2.6804,2.7788,2.7719,2.5434,2.3341,0.0,0.0,0.0,0.0,0.0,0.0,0.0,0.0,0.0,0.0,0.0,0.0,0.0,0.0,0.0,0.0,0.0,0.0,0.0,0.0,0.0,0.0,0.0,0.0,0.0,0.0,0.0,0.0,0.0,0.0,0.0,0.0,0.0,0.0,0.0,0.0,0.0,0.0,0.0,0.0,0.0,0.0,0.0,0.0,0.0,0.0,0.0,0.0,0.0,0.0,0.0,0.0,0.0,0.0,0.0,0.0,0.0,0.0,0.0,0.0,0.0,0.0,0.0,0.0,0.0,0.0,0.0,0.0,0.0,0.0,0.0,0.0,0.0,0.0,0.0,0.0,0.0,0.0,0.0,0.0,0.0,0.0,0.0,0.0,0.0,0.0,0.0,0.0,0.0,0.0,0.0,0.0,0.0,0.0,0.0,0.0,0.0,0.0,0.0,0.0,0.0,0.0,0.0,0.0,0.0,0.0,0.0,0.0,2.4829,2.597,2.8096,2.921,2.921,2.7216,2.5151,0.0,0.0,0.0,0.0,0.0,0.0,0.0,0.0,0.0,0.0,0.0,0.0,0.0,0.0,0.0,0.0,0.0,0.0,0.0,0.0,0.0,0.0,0.0,0.0,0.0,0.0,0.0,0.0,0.0,0.0,0.0,0.0,0.0,0.0,0.0,0.0,0.0,0.0,0.0,0.0,0.0,0.0,0.0,0.0,0.0,0.0,0.0,0.0,0.0,0.0,0.0,0.0,0.0,0.0,0.0,0.0,0.0,0.0,0.0,0.0,0.0,0.0,0.0,0.0,0.0,0.0,0.0,0.0,0.0,0.0,0.0,0.0,0.0,0.0,0.0,0.0,0.0,0.0,0.0,0.0,0.0,0.0,0.0,0.0,0.0,0.0,0.0,0.0,0.0,0.0,0.0,0.0,0.0,0.0,0.0,0.0,0.0,0.0,0.0,0.0,0.0,0.0,0.0,0.0,0.0,0.0,0.0,0.0,2.5542,2.7449,2.8918,2.9663,2.9662,2.8506,2.666,0.0,0.0,0.0,0.0,0.0,0.0,0.0,0.0,0.0,0.0,0.0,0.0,0.0,0.0,0.0,0.0,0.0,0.0,0.0,0.0,0.0,0.0,0.0,0.0,0.0,0.0,0.0,0.0,0.0,0.0,0.0,0.0,0.0,0.0,0.0,0.0,0.0,0.0,0.0,0.0,0.0,0.0,0.0,0.0,0.0,0.0,0.0,0.0,0.0,0.0,0.0,0.0,0.0,0.0,0.0,0.0,0.0,0.0,0.0,0.0,0.0,0.0,0.0,0.0,0.0,0.0,0.0,0.0,0.0,0.0,0.0,0.0,0.0,0.0,0.0,0.0,0.0,0.0,0.0,0.0,0.0,0.0,0.0,0.0,0.0,0.0,0.0,0.0,0.0,0.0,0.0,0.0,0.0,0.0,0.0,0.0,0.0,0.0,0.0,0.0,0.0,0.0,0.0,0.0,0.0,0.0,0.0,0.0,2.6744,2.9322,3.0294,3.0847,3.0965,2.8786,2.6504,0.0,0.0,0.0,0.0,0.0,0.0,0.0,0.0,0.0,0.0,0.0,0.0,0.0,0.0,0.0,0.0,0.0,0.0,0.0,0.0,0.0,0.0,0.0,0.0,0.0,0.0,0.0,0.0,0.0,0.0,0.0,0.0,0.0,0.0,0.0,0.0,0.0,0.0,0.0,0.0,0.0,0.0,0.0,0.0,0.0,0.0,0.0,0.0,1.5899,0.0,0.0,0.0,0.0,0.0,0.0,0.0,0.0,0.0,0.0,0.0,0.0,0.0,0.0,0.0,0.0,0.0,0.0,0.0,0.0,0.0,0.0,0.0,0.0,0.0,0.0,0.0,0.0,0.0,0.0,0.0,0.0,0.0,0.0,0.0,0.0,0.0,0.0,0.0,0.0,0.0,0.0,0.0,0.0,0.0,0.0,0.0,0.0,0.0,0.0,0.0,0.0,0.0,0.0,0.0,0.0,0.0,0.0,0.0,2.7958,3.0725,3.1234,3.1594,3.1804,2.957,2.7489,0.0,0.0,0.0,0.0,0.0,0.0,0.0,0.0,0.0,0.0,0.0,0.0,0.0,0.0,0.0,0.0,0.0,0.0,0.0,0.0,0.0,0.0,0.0,0.0,0.0,0.0,0.0,0.0,0.0,0.0,0.0,0.0,0.0,0.0,0.0,0.0,0.0,0.0,0.0,0.0,0.0,0.0,0.0,0.0,0.0,0.0,0.0,0.0,0.0,0.0,0.0,0.0,0.0,0.0,0.0,0.0,0.0,0.0,0.0,0.0,0.0,0.0,0.0,0.0,0.0,0.0,0.0,0.0,0.0,0.0,0.0,0.0,0.0,0.0,0.0,0.0,0.0,0.0,0.0,0.0,0.0,0.0,0.0,0.0,0.0,0.0,0.0,0.0,0.0,0.0,0.0,0.0,0.0,0.0,0.0,0.0,0.0,0.0,0.0,0.0,0.0,0.0,0.0,0.0,0.0,0.0,0.0,2.7182,2.9358,3.2135,3.2237,3.2502,3.3044,3.0879,2.9139,2.7948,0.0,0.0,0.0,0.0,0.0,0.0,0.0,0.0,0.0,0.0,0.0,0.0,0.0,0.0,0.0,0.0,0.0,0.0,0.0,0.0,0.0,0.0,0.0,0.0,0.0,0.0,0.0,0.0,0.0,0.0,0.0,0.0,0.0,0.0,0.0,0.0,0.0,0.0,1.2809,1.4703,0.0,0.0,0.0,0.0,0.0,0.0,0.0,0.0,1.8208,0.0,0.0,0.0,0.0,0.0,0.0,0.0,0.0,0.0,0.0,0.0,0.0,0.0,0.0,0.0,0.0,0.0,0.0,0.0,0.0,0.0,0.0,0.0,0.0,0.0,0.0,0.0,0.0,0.0,0.0,0.0,0.0,0.0,0.0,0.0,0.0,0.0,0.0,0.0,0.0,0.0,0.0,0.0,0.0,0.0,0.0,0.0,0.0,0.0,0.0,0.0,0.0,0.0,0.0,0.0,0.0,2.6029,2.8531,3.1339,3.4376,3.4145,3.4585,3.5799,3.3247,3.1327,3.0217,0.0,0.0,0.0,0.0,0.0,0.0,0.0,0.0,0.0,0.0,0.0,0.0,0.0,0.0,0.0,0.0,0.0,0.0,0.0,0.0,0.0,0.0,0.0,0.0,0.0,0.0,0.0,0.0,0.0,0.0,0.0,0.0,0.0,0.0,0.0,0.0,0.0,0.0,0.0,1.5988,1.7538,0.0,0.0,0.0,0.0,0.0,0.0,0.0,0.0,1.8596,0.0,0.0,0.0,0.0,0.0,0.0,0.0,0.0,0.0,0.0,0.0,0.0,0.0,0.0,0.0,0.0,0.0,0.0,0.0,0.0,0.0,0.0,0.0,0.0,0.0,0.0,0.0,0.0,0.0,0.0,0.0,0.0,0.0,0.0,0.0,0.0,0.0,0.0,0.0,0.0,0.0,0.0,0.0,0.0,0.0,0.0,0.0,0.0,0.0,0.0,0.0,0.0,0.0,0.0,0.0,2.7737,3.0428,3.321,3.6004,3.5764,3.5984,3.6856,3.3422,3.1199,0.0,0.0,0.0,0.0,0.0,0.0,0.0,0.0,0.0,0.0,0.0,0.0,0.0,0.0,0.0,0.0,0.0,0.0,0.0,0.0,0.0,0.0,0.0,0.0,0.0,0.0,0.0,0.0,0.0,0.0,0.0,0.0,0.0,0.0,0.0,0.0,0.0,0.0,0.0,0.0,1.6585,1.7454,1.8057,0.0,0.0,0.0,0.0,0.0,0.0,1.9764,2.0142,0.0,0.0,0.0,0.0,0.0,0.0,0.0,0.0,0.0,0.0,0.0,0.0,0.0,0.0,0.0,0.0,0.0,0.0,0.0,0.0,0.0,0.0,0.0,0.0,0.0,0.0,0.0,0.0,0.0,0.0,0.0,0.0,0.0,0.0,0.0,0.0,0.0,0.0,0.0,0.0,0.0,0.0,0.0,0.0,0.0,0.0,0.0,0.0,0.0,0.0,0.0,0.0,0.0,0.0,0.0,2.9398,3.2248,3.4972,3.7413,3.7208,3.7253,3.7652,3.3996,3.1377,0.0,0.0,0.0,0.0,0.0,0.0,0.0,0.0,0.0,0.0,0.0,0.0,0.0,0.0,0.0,0.0,0.0,0.0,0.0,0.0,0.0,0.0,0.0,0.0,0.0,0.0,0.0,0.0,0.0,0.0,0.0,0.0,0.0,0.0,0.0,0.0,0.0,0.0,0.0,0.0,0.0,1.7605,1.8075,1.8817,0.0,0.0,0.0,0.0,2.0137,2.1228,0.0,0.0,0.0,0.0,0.0,0.0,0.0,0.0,0.0,0.0,0.0,0.0,0.0,0.0,0.0,0.0,0.0,0.0,0.0,0.0,0.0,0.0,0.0,0.0,0.0,0.0,0.0,0.0,0.0,0.0,0.0,0.0,0.0,0.0,0.0,0.0,0.0,0.0,0.0,0.0,0.0,0.0,0.0,0.0,0.0,0.0,0.0,0.0,0.0,0.0,0.0,0.0,0.0,0.0,0.0,0.0,2.9883,3.3516,3.6545,3.8736,3.856,3.8657,3.921,3.7093,3.4112,0.0,0.0,0.0,0.0,0.0,0.0,0.0,0.0,0.0,0.0,0.0,0.0,0.0,0.0,0.0,0.0,0.0,0.0,0.0,0.0,0.0,0.0,0.0,0.0,0.0,0.0,0.0,0.0,0.0,0.0,0.0,0.0,0.0,0.0,0.0,0.0,0.0,0.0,0.0,0.0,0.0,1.9048,1.8667,2.0284,2.1197,0.0,0.0,0.0,2.0737,2.1707,0.0,0.0,0.0,0.0,0.0,0.0,0.0,0.0,0.0,0.0,0.0,0.0,0.0,0.0,0.0,0.0,0.0,0.0,0.0,0.0,0.0,0.0,0.0,0.0,0.0,0.0,0.0,0.0,0.0,0.0,0.0,0.0,0.0,0.0,0.0,0.0,0.0,0.0,0.0,0.0,0.0,0.0,0.0,0.0,0.0,0.0,0.0,0.0,0.0,0.0,0.0,0.0,0.0,0.0,0.0,2.9465,3.1984,3.5808,3.8754,4.0583,4.0328,4.0123,4.0109,3.7056,3.4224,0.0,0.0,0.0,0.0,0.0,0.0,0.0,0.0,0.0,0.0,0.0,0.0,0.0,0.0,0.0,0.0,0.0,0.0,0.0,0.0,0.0,0.0,0.0,0.0,0.0,0.0,0.0,0.0,0.0,0.0,0.0,0.0,0.0,0.0,0.0,0.0,0.0,0.0,0.0,0.0,0.0,0.0,1.8922,2.0873,0.0,0.0,0.0,2.3284,2.2974,0.0,0.0,0.0,0.0,0.0,0.0,0.0,0.0,0.0,0.0,0.0,0.0,0.0,0.0,0.0,0.0,0.0,0.0,0.0,0.0,0.0,0.0,0.0,0.0,0.0,0.0,0.0,0.0,0.0,0.0,0.0,0.0,0.0,0.0,0.0,0.0,0.0,0.0,0.0,0.0,0.0,0.0,0.0,0.0,0.0,0.0,0.0,0.0,0.0,0.0,0.0,0.0,0.0,0.0,0.0,0.0,0.0,3.3787,3.7872,4.0658,4.1982,4.1761,4.129,4.0555,3.7335,0.0,0.0,0.0,0.0,0.0,0.0,0.0,0.0,0.0,0.0,0.0,0.0,0.0,0.0,0.0,0.0,0.0,0.0,0.0,0.0,0.0,0.0,0.0,0.0,0.0,0.0,0.0,1.5729,0.0,0.0,0.0,0.0,0.0,0.0,0.0,0.0,0.0,0.0,0.0,0.0,0.0,0.0,2.0244,1.944,2.1671,2.3109,0.0,0.0,2.4851,2.4713,2.4529,2.4224,0.0,0.0,0.0,0.0,0.0,0.0,0.0,0.0,0.0,0.0,0.0,0.0,0.0,0.0,0.0,0.0,0.0,0.0,0.0,0.0,0.0,0.0,0.0,0.0,0.0,0.0,0.0,0.0,0.0,0.0,0.0,0.0,0.0,0.0,0.0,0.0,0.0,0.0,0.0,0.0,0.0,0.0,0.0,0.0,0.0,0.0,0.0,0.0,0.0,0.0,0.0,0.0,0.0,0.0,0.0,3.4559,3.9232,4.1919,4.2441,4.2429,4.185,4.0623,3.9307,3.6979,0.0,0.0,0.0,0.0,0.0,0.0,0.0,0.0,0.0,0.0,0.0,0.0,0.0,0.0,0.0,0.0,0.0,0.0,0.0,0.0,0.0,0.0,0.0,0.0,0.0,0.0,0.0,0.0,0.0,0.0,0.0,0.0,0.0,0.0,0.0,0.0,0.0,0.0,0.0,0.0,0.0,2.1671,2.0624,2.3102,2.4643,0.0,0.0,2.5966,2.51,2.5363,2.5303,2.4251,0.0,0.0,0.0,0.0,0.0,0.0,0.0,0.0,0.0,0.0,0.0,0.0,0.0,0.0,0.0,0.0,0.0,0.0,0.0,0.0,0.0,0.0,0.0,0.0,0.0,0.0,0.0,0.0,0.0,0.0,0.0,0.0,0.0,0.0,0.0,0.0,0.0,0.0,0.0,0.0,0.0,0.0,0.0,0.0,0.0,0.0,0.0,0.0,0.0,0.0,0.0,0.0,0.0,3.3022,3.5364,4.0522,4.333,4.3712,4.3753,4.3098,4.181,4.0436,3.8017,0.0,0.0,0.0,0.0,0.0,0.0,0.0,0.0,0.0,0.0,0.0,0.0,0.0,0.0,0.0,0.0,0.0,0.0,0.0,0.0,0.0,0.0,0.0,0.0,0.0,0.0,0.0,0.0,1.7216,1.7515,1.7956,0.0,0.0,0.0,0.0,0.0,0.0,0.0,0.0,0.0,0.0,2.3802,2.366,2.5128,0.0,0.0,2.5812,2.6362,2.6235,2.5673,2.5249,2.5253,2.4262,0.0,0.0,0.0,0.0,0.0,0.0,0.0,0.0,0.0,0.0,0.0,0.0,0.0,0.0,0.0,0.0,0.0,0.0,0.0,0.0,0.0,0.0,0.0,0.0,0.0,0.0,0.0,0.0,0.0,0.0,0.0,0.0,0.0,0.0,0.0,0.0,0.0,0.0,0.0,0.0,0.0,0.0,0.0,0.0,0.0,0.0,0.0,0.0,0.0,0.0,0.0,0.0,3.4438,3.6333,4.1898,4.4746,4.4667,4.4849,4.4153,4.2546,4.1353,3.9157,0.0,0.0,0.0,0.0,0.0,0.0,0.0,0.0,0.0,0.0,0.0,0.0,0.0,0.0,0.0,0.0,0.0,0.0,0.0,0.0,0.0,0.0,0.0,0.0,0.0,0.0,0.0,0.0,1.7744,1.7969,1.8683,0.0,0.0,0.0,0.0,0.0,0.0,0.0,0.0,0.0,0.0,2.6031,2.602,2.6797,2.7238,2.6816,2.6951,2.7287,2.7889,2.6707,2.5727,2.5753,0.0,0.0,0.0,0.0,0.0,0.0,0.0,0.0,0.0,0.0,0.0,0.0,0.0,0.0,0.0,0.0,0.0,0.0,0.0,0.0,0.0,0.0,0.0,0.0,0.0,0.0,0.0,0.0,0.0,0.0,0.0,0.0,0.0,0.0,0.0,0.0,0.0,0.0,0.0,0.0,0.0,0.0,0.0,0.0,0.0,0.0,0.0,0.0,0.0,0.0,0.0,0.0,0.0,0.0,3.7591,4.3442,4.6058,4.5158,4.5583,4.4755,4.2627,4.2081,4.0536,3.7792,0.0,0.0,0.0,0.0,0.0,0.0,0.0,0.0,0.0,0.0,0.0,0.0,0.0,0.0,0.0,0.0,0.0,0.0,0.0,0.0,0.0,0.0,0.0,0.0,0.0,0.0,1.9346,1.907,1.9001,0.0,0.0,0.0,0.0,0.0,0.0,0.0,0.0,0.0,0.0,2.7861,2.8271,2.733,2.7938,2.8523,2.8559,2.8538,2.8943,2.9963,2.8679,2.6999,0.0,0.0,0.0,0.0,0.0,0.0,0.0,0.0,0.0,0.0,0.0,0.0,0.0,0.0,0.0,0.0,0.0,0.0,0.0,0.0,0.0,0.0,0.0,0.0,0.0,0.0,0.0,2.3285,2.3243,0.0,0.0,0.0,0.0,0.0,0.0,0.0,0.0,0.0,0.0,0.0,3.2035,3.3326,0.0,0.0,0.0,0.0,0.0,0.0,0.0,0.0,0.0,0.0,0.0,0.0,3.6896,3.8255,4.3699,4.6447,4.6095,4.5978,4.5124,4.3536,4.2805,4.0983,3.7882,0.0,0.0,0.0,0.0,0.0,0.0,0.0,0.0,0.0,0.0,0.0,0.0,0.0,0.0,0.0,0.0,0.0,0.0,0.0,0.0,0.0,0.0,0.0,0.0,0.0,2.1175,0.0,0.0,0.0,0.0,0.0,0.0,0.0,0.0,0.0,0.0,0.0,2.512,2.7445,2.8961,2.9756,2.9555,3.0047,3.0275,0.0,0.0,0.0,0.0,0.0,0.0,0.0,0.0,0.0,0.0,0.0,0.0,0.0,0.0,3.0563,2.9205,2.8815,2.878,2.9106,0.0,0.0,0.0,0.0,0.0,0.0,0.0,0.0,0.0,0.0,0.0,0.0,0.0,0.0,0.0,0.0,2.4717,0.0,0.0,0.0,0.0,0.0,0.0,0.0,0.0,3.085,3.3425,3.5524,3.6812,3.754,0.0,3.7612,3.6091,0.0,0.0,0.0,0.0,0.0,0.0,0.0,0.0,3.8062,3.9465,4.446,4.6939,4.6611,4.6494,4.5638,4.4043,4.2454,4.0303,3.7466,3.4299,3.2738,0.0,0.0,0.0,0.0,0.0,0.0,0.0,0.0,0.0,0.0,0.0,0.0,0.0,0.0,0.0,0.0,0.0,0.0,0.0,0.0,0.0,0.0,0.0,2.2301,0.0,0.0,0.0,0.0,0.0,0.0,0.0,0.0,0.0,2.5392,2.5771,2.7027,2.9789,3.0859,3.1329,3.1219,0.0,0.0,0.0,0.0,0.0,0.0,0.0,2.9079,2.931,2.8659,2.8535,2.9759,3.1062,3.2175,3.2838,0.0,0.0,3.1146,3.0659,3.0782,3.1386,3.1444,3.1563,3.2175,3.262,3.2978,0.0,0.0,0.0,0.0,0.0,0.0,0.0,0.0,2.5849,2.6356,0.0,2.5192,0.0,0.0,0.0,0.0,0.0,0.0,0.0,0.0,3.3828,3.5776,3.6758,3.7948,3.8437,3.8416,3.886,3.9022,3.8736,3.4302,0.0,0.0,0.0,0.0,0.0,0.0,3.9761,4.1381,4.577,4.7615,4.6728,4.7102,4.6285,4.3984,4.1218,3.8819,3.6837,3.6566,3.5383,3.2875,3.3216,0.0,0.0,0.0,0.0,0.0,0.0,0.0,0.0,0.0,0.0,0.0,0.0,0.0,0.0,0.0,0.0,0.0,0.0,0.0,0.0,2.3471,0.0,0.0,0.0,0.0,0.0,0.0,0.0,0.0,0.0,0.0,2.8472,2.883,3.0214,3.3326,0.0,0.0,0.0,0.0,3.1975,3.1768,3.169,3.2176,3.3573,3.1876,3.0176,2.9631,0.0,0.0,3.0962,3.2813,3.4358,3.5504,3.5681,3.5099,3.3285,3.3094,3.3398,3.3922,3.3714,3.3643,3.4035,3.4518,3.4805,3.3644,0.0,0.0,0.0,0.0,2.9972,2.9579,2.8816,2.9525,3.008,3.0456,2.9344,0.0,0.0,0.0,0.0,0.0,0.0,3.2275,3.4509,3.7635,4.0145,4.2061,4.2714,4.3055,4.3048,4.2837,4.2428,4.1808,3.965,3.7145,3.4443,0.0,0.0,0.0,0.0,4.1908,4.363,4.6572,4.7964,4.7662,4.7126,4.5731,4.349,4.2113,4.0526,3.8726,3.7329,3.6255,3.5469,3.4083,0.0,0.0,0.0,0.0,0.0,0.0,0.0,0.0,0.0,0.0,0.0,0.0,0.0,0.0,0.0,0.0,0.0,0.0,0.0,2.618,2.6099,2.5777,0.0,0.0,0.0,0.0,0.0,0.0,0.0,0.0,0.0,3.2522,3.1009,3.0786,0.0,0.0,3.3766,3.4192,3.3936,3.3782,3.3996,0.0,0.0,0.0,3.2323,3.1804,3.1641,3.2083,3.2854,3.412,3.5288,3.6168,3.6531,3.7202,3.7546,3.7053,3.583,3.5182,3.5504,3.5501,3.5655,3.6359,3.7041,3.7488,3.656,3.5135,3.3653,3.2708,3.2236,3.23,3.2065,3.1617,3.2187,3.2822,3.3356,3.2247,3.1729,3.1703,3.1017,0.0,0.0,0.0,3.5449,3.7689,4.042,4.2711,4.4516,4.4996,4.5232,4.5225,4.4953,4.4585,4.4117,4.3203,4.1778,3.9774,0.0,0.0,3.8523,4.1479,4.3703,4.5176,4.7322,4.8312,4.808,4.6975,4.5449,4.3587,4.2591,4.1343,3.9755,3.8291,3.7372,3.7032,3.5568,3.4232,0.0,0.0,0.0,0.0,0.0,0.0,0.0,0.0,0.0,0.0,0.0,2.5911,0.0,0.0,0.0,0.0,2.7364,2.7616,2.7747,2.7547,0.0,0.0,0.0,0.0,0.0,0.0,0.0,2.9194,3.1495,3.3635,3.4989,3.38,3.3427,3.5069,3.4986,3.4989,3.5505,0.0,3.5282,3.5046,3.4533,3.3954,3.3315,3.2956,3.2793,3.2923,3.396,3.5202,3.6358,3.7276,3.8069,3.8734,3.9393,3.9952,4.0143,3.8861,3.7727,3.7725,3.7541,3.7686,3.8521,3.9202,3.9698,3.9355,3.8766,3.6791,3.5664,3.5156,3.4867,3.4594,3.4358,3.4234,3.479,3.5672,3.4158,3.4475,3.6038,3.515,0.0,0.0,3.6571,3.8409,4.0331,4.2455,4.4017,4.5113,4.5554,4.5755,4.5755,4.5717,4.5764,4.5844,4.5415,4.5435,4.5744,4.2086,4.0723,4.1806,4.3671,4.5217,4.6348,4.7979,4.8613,4.8103,4.6814,4.5474,4.4149,4.289,4.1604,4.0221,3.9495,3.8755,3.7971,3.7521,3.6638,3.5196,0.0,0.0,0.0,0.0,0.0,0.0,0.0,0.0,0.0,0.0,0.0,0.0,0.0,0.0,0.0,2.7751,0.0,2.8841,2.8354,0.0,0.0,0.0,2.8374,2.788,2.9851,3.1288,3.1435,0.0,0.0,0.0,0.0,3.7284,3.7614,3.6916,3.6436,3.6567,3.67,3.6455,3.5551,3.5137,3.4861,3.4448,3.3885,3.3589,3.3918,3.4844,3.6278,3.7806,3.8844,4.0013,4.1325,4.1799,4.1901,4.2302,4.1546,4.0964,4.0109,3.9623,3.957,4.0341,4.0879,4.1309,4.1175,4.1003,4.0202,3.8672,3.686,3.6745,3.7023,3.753,3.6912,3.696,3.7424,3.6439,3.611,3.627,3.6646,3.6936,3.7332,3.9611,4.1254,4.2474,4.4525,4.6011,4.6956,4.7066,4.7172,4.7174,4.6837,4.6864,4.719,4.7122,4.7103,4.7112,4.6454,4.5923,4.5598,4.5725,4.6424,4.7634,4.8077,4.8219,4.808,4.7427,4.6392,4.5016,4.4058,4.2934,4.1671,4.1138,4.0513,3.9719,3.9303,3.8527,3.7327,3.6624,0.0,0.0,0.0,0.0,0.0,0.0,0.0,0.0,0.0,2.7254,2.7798,0.0,2.8879,0.0,3.0123,3.0919,3.1219,3.0895,0.0,0.0,3.0507,3.1001,3.1478,3.2527,3.3356,3.3688,3.5517,3.7009,3.7602,3.881,3.9676,3.9716,3.8238,3.7594,3.8771,3.7925,3.7314,3.743,3.6518,3.5704,3.5509,3.5365,3.5369,3.5879,3.6949,3.8147,3.9259,4.0112,4.0939,4.1638,4.206,4.2281,4.2421,4.2211,4.1917,4.1379,4.0929,4.0787,4.1341,4.205,4.2562,4.347,4.2909,4.2906,4.1854,4.0156,3.9415,3.935,3.9757,3.9328,3.927,3.9452,3.901,3.8681,3.8545,3.9127,3.9548,3.9969,4.245,4.3841,4.4401,4.646,4.7726,4.8208,4.8238,4.8041,4.7705,4.7844,4.7822,4.7705,4.8083,4.8491,4.8862,4.9077,4.8812,4.8096,4.7186,4.7089,4.7778,4.7987,4.8219,4.8428,4.7755,4.6868,4.5696,4.4757,4.3761,4.2675,4.208,4.1582,4.1155,4.0567,3.9883,3.9084,3.784,3.6272,0.0,0.0,0.0,0.0,0.0,0.0,0.0,0.0,0.0,0.0,0.0,3.1012,0.0,3.2628,0.0,3.3148,3.2714,3.2459,3.2555,3.2606,3.3002,3.3947,3.4753,3.5451,3.5987,3.7681,3.8908,3.9185,4.0243,4.0952,4.0777,3.9772,3.924,3.9622,3.8959,3.8354,3.8164,3.7216,3.6413,3.6267,3.6359,3.673,3.7448,3.8417,3.9477,4.0542,4.1274,4.1922,4.2521,4.2845,4.2987,4.2967,4.2816,4.2599,4.2392,4.2297,4.2277,4.2277,4.2704,4.3103,4.5715,4.4525,4.4915,4.4617,4.3752,4.2287,4.1657,4.1598,4.1503,4.146,4.1457,4.1484,4.1543,4.1641,4.2104,4.2333,4.2549,4.4873,4.5981,4.6139,4.8073,4.9071,4.9172,4.9179,4.8799,4.8103,4.8739,4.8739,4.8083,4.8866,4.9648,5.0341,5.0454,5.0157,4.9489,4.815,4.7476,4.7495,4.7894,4.8312,4.8775,4.7894,4.7026,4.6275,4.5297,4.4427,4.3665,4.2825,4.2353,4.2345,4.156,4.0916,4.046,3.8464,3.6988,0.0,3.4684,0.0,0.0,0.0,0.0,0.0,0.0,0.0,0.0,3.2191,3.3193,3.5313,3.5149,3.4957,3.4959,3.4364,3.4222,3.4804,3.4613,3.4862,3.5877,3.6712,3.7493,3.8236,3.9647,4.0583,4.0671,4.1326,4.1651,4.1255,4.1095,4.0699,4.0036,3.9718,3.9197,3.809,3.7611,3.7289,3.6975,3.7195,3.7868,3.8725,3.948,4.0476,4.1736,4.2284,4.2809,4.347,4.3612,4.3652,4.3691,4.3402,4.3173,4.305,4.33,4.3426,4.3109,4.3243,4.3681,4.6301,4.5443,4.5518,4.5253,4.4745,4.4393,4.4048,4.3674,4.3042,4.2751,4.2751,4.3157,4.3496,4.3833,4.4676,4.506,4.514,4.6262,4.6969,4.7313,4.8462,4.9391,5.0035,5.0119,5.0052,4.9861,4.9686,4.9664,4.9881,5.0452,5.0586,5.0335,5.0689,5.0228,4.8966,0.0,0.0,0.0,4.8034,4.815,4.8219,4.7685,4.734,4.7129,4.6252,0.0,4.5547,4.4387,4.36,4.3334,4.2539,0.0,0.0,0.0,0.0,0.0,0.0,0.0,0.0,0.0,0.0,0.0,3.6915,3.6284,3.5051,3.5567,3.6414,3.7406,3.7404,3.7347,3.7333,3.7221,3.7081,3.6942,3.7146,3.7492,3.7992,3.8464,3.9098,3.9921,4.0607,4.1148,4.1547,4.1991,4.2109,4.1709,4.1588,4.1234,4.046,4.001,3.948,3.8856,3.863,3.8384,3.7754,3.8548,3.9365,4.004,4.0495,4.1326,4.2541,4.2892,4.3119,4.3649,4.3691,4.3691,4.3712,4.3628,4.3502,4.3171,4.3456,4.3559,4.3183,4.3915,4.4621,4.8025,0.0,4.7,4.6756,0.0,4.5828,4.5515,4.5243,4.4621,4.451,4.4769,4.5216,4.5644,4.6052,4.6759,4.721,4.7484,4.8293,4.8809,4.9031,4.9965,5.0637,5.1043,5.1068,5.0979,5.0751,5.0976,5.1087,5.1196,5.2037,5.2132,5.1409,5.2068,5.1609,4.9974,4.9446,4.8824,4.8103,4.8103,4.8123,4.8141,4.7684,4.7354,4.7098,0.0,0.0,0.0,0.0,0.0,0.0,0.0,0.0,0.0,0.0,0.0,3.867,3.8711,3.8389,3.7422,3.8407,3.9323,3.9746,4.0794,4.0497,3.8313,3.9089,3.9851,4.0218,4.0031,3.9881,3.9881,3.9542,3.928,3.9317,3.933,3.9472,3.9873,4.0428,4.0957,4.1406,4.2182,4.2709,4.2728,4.3109,4.3158,4.2756,4.2671,4.2417,4.1738,4.0726,3.9876,3.943,3.9345,3.931,3.9249,3.9748,4.0626,4.1261,4.1771,4.248,4.3544,4.3535,4.3603,4.4152,4.4012,4.3773,4.4019,4.4052,4.398,4.3851,4.4248,4.4507,4.412,4.4227,4.4452,4.9691,4.8454,4.8583,4.8354,4.7873,4.712,4.687,4.6977,0.0,0.0,0.0,4.7329,4.7786,4.8229,4.8763,4.9176,4.9507,5.0201,5.0482,5.0437,5.1276,5.1663,5.1678,5.1836,5.1717,5.1387,5.2318,5.2586,5.2314,5.3545,5.367,5.2903,5.3531,5.2897,5.1061,5.0519,4.9627,4.8312,4.8335,4.8392,4.8431,4.79,4.7482,4.7179,4.656,4.6308,4.6442,4.5856,4.5325,4.4917,4.4401,4.3636,4.2576,4.2019,4.1288,4.0376,4.0172,4.0034,3.9816,4.0822,4.175,4.2347,4.377,4.3685,4.1431,4.2226,4.2825,4.2844,4.2418,4.2186,4.2246,4.1602,4.1324,4.1709,4.1385,4.1275,4.163,4.2195,4.261,4.2812,4.3602,4.4213,4.3959,4.409,4.4171,4.389,4.3662,4.3568,4.302,4.1763,4.0695,4.0357,4.0435,4.0474,4.0799,4.1365,4.1917,4.2753,4.3276,4.3832,4.4461,4.443,4.4497,4.5104,4.4579,4.4381,4.4628,4.4638,4.454,4.4618,4.5122,4.543,4.4959,4.4334,4.412,5.0199,4.8944,4.935,4.9263,4.8799,4.8673,4.9096,4.9628,4.7694,4.7309,4.8171,4.9032,4.9636,5.007,5.0938,5.1138,5.0854,5.0957,5.0795,0.0,5.0947,5.1194,5.1227,5.2019,5.236,5.2382,5.3253,5.3693,5.376,5.4683,5.4682,5.3823,5.3841,5.2744,5.0606,5.0337,4.981,4.8844,4.919,4.938,4.939,4.8558,4.8274,4.8536,4.735,4.6937,4.7374,4.6229,4.5386,4.4987,4.4227,4.3524,4.302,4.2264,4.1896,4.2072,4.1752,4.1664,4.2028,4.2853,4.3821,4.4937,4.5657,4.5378,4.3961,4.3999,4.4129,4.4129,4.3794,4.3678,4.394,4.3559,4.3431,4.3807,4.3507,4.3281,4.3308,4.3436,4.3678,4.3979,4.4139,4.4527,4.4737,4.4568,4.4397,4.423,4.4152,4.3754,4.3604,4.2722,4.2087,4.2004,4.2281,4.254,4.2683,4.3358,4.3962,4.455,4.4936,4.5358,4.5896,4.5901,4.5923,4.617,4.5724,4.5584,4.5949,4.5452,4.5239,4.5392,4.5433,4.514,4.4748,4.4414,4.4433,5.1302,5.0468,5.018,4.9954,4.9733,4.9223,4.952,5.0329,4.9581,4.961,5.0257,5.0954,5.1229,5.1229,5.1866,5.1915,5.1458,5.1481,5.1368,5.1211,5.166,5.1854,5.1929,5.2557,5.3156,5.3703,5.439,5.4853,5.5178,5.611,5.5843,5.4383,5.3564,5.2566,5.1542,5.0998,5.0656,5.0474,4.9902,4.9485,4.929,4.9094,4.8912,4.8633,4.7748,4.7275,4.726,4.645,4.5798,4.5391,4.4998,4.4496,4.3846,4.3639,4.3419,4.3199,4.3391,4.3626,4.3849,4.5116,4.6234,4.7036,4.7537,4.7456,4.6585,4.6327,4.6187,4.6166,4.5821,4.5677,4.5819,4.5448,4.5153,4.5089,4.4916,4.4699,4.4489,4.4635,4.4856,4.5047,4.5265,4.5487,4.5679,4.5509,4.54,4.5379,4.5184,4.5076,4.5097,4.4731,4.419,4.362,4.3633,4.3976,4.4361,4.4787,4.5276,4.568,4.5912,4.6264,4.6616,4.6598,4.6643,4.6952,4.6564,4.632,4.6689,4.6435,4.6156,4.5976,4.6123,4.5808,4.5302,4.4766,4.4492,5.2821,5.1982,5.146,5.1022,5.065,4.9914,5.0082,5.0877,5.1122,5.1555,5.2118,5.2495,5.2392,5.2019,5.2454,5.2392,5.2021,5.207,5.2053,5.2017,5.2445,5.2649,5.2737,5.3427,5.4266,5.5082,5.5907,5.6529,5.6994,5.7801,5.7193,5.521,5.3506,5.2557,5.2312,5.152,5.1225,5.1384,5.0474,4.9837,4.965,4.9778,4.9552,4.9037,4.8246,4.7722,4.7471,4.6916,4.644,4.6028,4.5973,4.569,4.5058,4.5189,4.5088,4.4703,4.5123,4.5527,4.5675,4.7006,4.8061,4.8501,4.898,4.9064,4.8712,4.8359,4.8025,4.7734,4.7319,4.7213,4.7253,4.6832,4.647,4.6316,4.6102,4.5907,4.5694,4.584,4.5993,4.6011,4.6181,4.6267,4.6308,4.6308,4.6248,4.6228,4.6308,4.6308,4.6308,4.6308,4.5868,4.5439,4.5057,4.5311,4.6018,4.6272,4.6504,4.6824,4.6993,4.7239,4.7422,4.7239,4.7262,4.7823,4.741,4.7205,4.7436,4.7284,4.7018,4.6752,4.6653,4.6418,4.5439,4.4687,4.4379,5.4698,5.3247,5.342,5.2873,5.168,5.1468,5.1701,5.2142,5.1831,5.2218,5.2948,5.3118,5.2847,5.2536,5.2911,5.287,5.2437,5.2869,5.2843,5.2532,5.2917,5.3118,5.3404,5.4978,5.5865,5.6287,5.8186,5.9177,5.9269,5.9748,5.891,5.6594,5.4285,5.2715,5.1927,5.1361,5.0907,5.0474,5.0793,5.1159,5.146,5.0754,5.0486,5.0828,4.9208,4.852,4.8789,4.8055,4.7351,4.6909,4.685,4.6864,4.6776,4.6486,4.6571,4.7216,4.703,4.705,4.7423,4.8004,4.8564,4.8915,4.9422,4.9677,4.9573,4.9533,4.8985,4.8066,4.7713,4.7858,4.8167,4.751,4.7311,4.7829,4.7329,4.7018,4.7218,4.7103,4.6882,4.6882,4.6575,4.6308,4.6352,4.633,4.6308,4.6308,4.6308,4.6308,4.6308,4.6374,4.6638,4.702,4.7,4.6958,4.7372,4.7864,4.7977,4.8126,4.853,4.8637,4.8616,4.868,4.887,4.8535,4.8497,4.8289,4.8412,4.8281,4.7669,4.7401,4.6892,4.6046,4.4874,4.4263,4.4213,5.5702,5.4422,5.412,5.3136,5.1897,5.1771,5.1876,5.2054,5.2144,5.2274,5.2431,5.293,5.293,5.2516,5.2994,5.2785,5.2168,5.2852,5.31,5.3024,5.3994,5.4774,5.546,5.7022,5.8069,5.872,6.0246,6.084,6.0467,5.9855,5.8726,5.7156,5.5089,5.3543,5.2625,5.161,5.1111,5.1223,5.1406,5.1746,5.2086,5.156,5.1175,5.0997,5.0092,4.9399,4.9085,4.8468,4.7882,4.7461,4.7435,4.7426,4.7474,4.7273,4.7318,4.7672,4.7794,4.8065,4.8484,4.9175,4.9784,5.0202,5.0667,5.0817,5.0544,5.0294,4.9744,4.9027,4.8669,4.8604,4.8748,4.847,4.8317,4.8353,4.8049,4.7789,4.768,4.755,4.742,4.7376,4.7007,4.6723,4.668,4.6483,4.633,4.6308,4.6308,4.6308,4.6308,4.6549,4.6985,4.7528,4.7745,4.8027,4.8415,4.8651,4.878,4.8823,4.8952,4.9102,4.9102,4.9102,4.908,4.9102,4.8915,4.8853,4.8955,4.8869,4.8467,4.8036,4.712,4.6091,4.531,4.4823,4.4815,5.6786,5.544,5.4259,5.3097,5.1998,5.1819,5.1779,5.1765,5.189,5.1851,5.1895,5.2663,5.2898,5.2784,5.3179,5.3061,5.2745,5.3303,5.3746,5.4104,5.5238,5.6376,5.7492,5.9032,6.0215,6.1073,6.2122,6.2473,6.1909,6.0309,5.9096,5.8073,5.5955,5.4319,5.3355,5.2102,5.1588,5.1769,5.1927,5.2152,5.2402,5.2288,5.2029,5.1673,5.1216,5.0688,5.0048,4.9472,4.8924,4.8468,4.834,4.82,4.8074,4.8083,4.8086,4.8107,4.8397,4.8795,4.9238,5.0103,5.0802,5.1265,5.1728,5.177,5.1308,5.0738,5.021,4.9721,4.9337,4.9081,4.9102,4.8973,4.8802,4.8587,4.8522,4.8286,4.8134,4.8004,4.7896,4.7853,4.7506,4.7115,4.6963,4.6614,4.6308,4.6308,4.6308,4.6308,4.633,4.6593,4.6985,4.7593,4.7984,4.8393,4.8952,4.9059,4.9102,4.9102,4.9102,4.9102,4.9102,4.9102,4.9102,4.9102,4.9102,4.9102,4.908,4.9059,4.8744,4.8071,4.7197,4.623,4.5452,4.5181,4.5167,5.8198,5.5919,5.4017,5.3004,5.2451,5.1954,5.1774,5.1878,5.097,5.0995,5.1966,5.2512,5.2838,5.3405,5.4002,5.4176,5.4529,5.4665,5.525,5.6031,5.6621,5.7553,5.8982,6.0838,6.2045,6.2644,6.3817,6.4432,6.4279,6.2155,6.0756,6.007,5.6996,5.4871,5.3899,5.2925,5.222,5.1972,5.2265,5.2492,5.2581,5.2961,5.314,5.3034,5.2628,5.2286,5.216,5.144,5.0758,5.037,4.9845,4.9423,4.9102,4.9018,4.8977,4.8998,4.9039,4.9253,4.9764,5.0591,5.1286,5.1748,5.2145,5.2186,5.1747,5.0907,5.0231,4.9763,4.9358,4.9102,4.9059,4.8802,4.8716,4.8952,4.8673,4.863,4.8952,4.8565,4.8394,4.8307,4.7982,4.7485,4.705,4.6573,4.6374,4.633,4.6308,4.6308,4.633,4.6374,4.6854,4.7463,4.7831,4.809,4.8866,4.9102,4.9102,4.9102,4.9102,4.9102,4.9102,4.9102,4.9102,4.9102,4.9102,4.9102,4.9102,4.8871,4.8433,4.7848,4.7183,4.6338,4.5709,4.5246,4.5189,5.877,5.6379,5.4401,5.332,5.2909,5.2435,5.2576,5.3047,5.2439,5.2873,5.4051,5.4877,5.5675,5.6418,5.7257,5.687,5.5776,5.6544,5.749,5.8435,5.9236,6.0374,6.1795,6.3112,6.3929,6.4456,6.5189,6.5418,6.4979,6.3362,6.1965,6.0669,5.8426,5.6421,5.4926,5.356,5.2852,5.2713,5.2872,5.3096,5.3409,5.3899,5.4165,5.4121,5.3393,5.2781,5.2484,5.2165,5.1824,5.1418,5.065,5.0161,4.9968,4.9418,4.9209,4.9444,4.9486,4.9955,5.0886,5.135,5.1852,5.2519,5.2456,5.2395,5.2019,5.1139,5.0316,5.0061,4.9465,4.9123,4.908,4.893,4.8887,4.9058,4.8952,4.8887,4.9016,4.893,4.8845,4.878,4.8436,4.7854,4.7246,4.6854,4.6636,4.6374,4.6308,4.6308,4.6418,4.6767,4.7289,4.7701,4.822,4.8715,4.8973,4.9102,4.9102,4.9102,4.9102,4.9102,4.9102,4.9102,4.9102,4.9102,4.9102,4.906,4.9039,4.9018,4.8495,4.7829,4.7143,4.6716,4.6023,4.5677,4.5556,5.87,5.6872,5.5035,5.4148,5.3853,5.3539,5.3845,5.4521,5.411,5.4538,5.5623,5.6732,5.7694,5.8614,5.9974,5.9929,5.8481,5.8729,5.9361,6.0395,6.1124,6.2307,6.3883,6.4767,6.5486,6.6004,6.6219,6.6069,6.5477,6.4186,6.2777,6.1354,5.9416,5.7514,5.5704,5.4313,5.3563,5.3315,5.3342,5.3587,5.3943,5.4431,5.4696,5.463,5.4165,5.3681,5.3226,5.3032,5.2774,5.2322,5.1591,5.0949,5.0478,4.9715,4.9422,4.9699,5.0146,5.0802,5.1852,5.2394,5.2913,5.3429,5.3223,5.2954,5.2602,5.1391,5.0675,5.0273,4.9636,4.9102,4.9059,4.8952,4.8887,4.8887,4.8866,4.8866,4.8887,4.8995,4.908,4.9016,4.8673,4.8113,4.7573,4.7333,4.7028,4.6593,4.6527,4.6507,4.6636,4.7007,4.7636,4.7918,4.8393,4.8802,4.9037,4.9102,4.9102,4.9102,4.9102,4.9102,4.9102,4.9102,4.9081,4.9102,4.906,4.9019,4.8977,4.9018,4.8579,4.7871,4.7564,4.7174,4.666,4.6209,4.5821,5.8047,5.7376,5.5923,5.5365,5.5383,5.5278,5.5611,5.6086,5.5708,5.5976,5.6886,5.7802,5.8789,5.956,6.145,6.2623,6.2369,6.0817,6.0756,6.2001,6.2201,6.339,6.5307,6.5925,6.6501,6.718,6.6946,6.6519,6.5914,6.4583,6.3232,6.177,5.9958,5.8141,5.6185,5.5273,5.4257,5.3759,5.392,5.4033,5.3988,5.4674,5.4983,5.4961,5.5203,5.5181,5.4697,5.4193,5.3713,5.332,5.2757,5.1873,5.0777,5.0098,4.9784,5.0209,5.1056,5.1895,5.2606,5.3748,5.439,5.4444,5.4401,5.3929,5.308,5.1831,5.0865,5.0464,4.9741,4.9142,4.9076,4.8795,4.8497,4.8394,4.8436,4.8373,4.8481,4.8802,4.9102,4.9037,4.8737,4.8416,4.8265,4.7962,4.7528,4.7137,4.7007,4.6987,4.7028,4.7224,4.7508,4.8092,4.8544,4.8823,4.8995,4.9102,4.9102,4.9102,4.9102,4.9102,4.9102,4.9102,4.8998,4.8977,4.8894,4.8832,4.8708,4.8687,4.8396,4.7856,4.7734,4.732,4.6701,4.6045,4.5595,5.871,5.8396,5.7296,5.7009,5.7231,5.6948,5.7464,5.85,5.8094,5.8686,5.9915,6.0446,6.1047,6.1775,6.2662,6.3259,6.3617,6.2906,6.3208,6.4263,6.5008,6.5657,6.6427,6.7267,6.7434,6.7061,6.6882,6.639,6.5613,6.4834,6.3747,6.2314,6.0718,5.9339,5.7985,5.6524,5.5591,5.5666,5.5446,5.5488,5.5839,5.6319,5.6558,5.6557,5.6709,5.6557,5.6079,5.5356,5.4742,5.4258,5.3494,5.2561,5.1611,5.0966,5.1271,5.2474,5.2942,5.3895,5.5112,5.5609,5.5883,5.5756,5.5315,5.4532,5.356,5.2063,5.1122,5.0826,5.0096,4.9573,4.9449,4.9113,4.8675,4.8412,4.8113,4.7967,4.8045,4.8369,4.8748,4.9018,4.8973,4.8759,4.8479,4.8199,4.8005,4.7593,4.7485,4.7485,4.7506,4.7703,4.7984,4.8351,4.863,4.8845,4.8995,4.9102,4.9102,4.9102,4.9102,4.9102,4.9102,4.9081,4.8977,4.8853,4.8749,4.8583,4.848,4.8314,4.8045,4.7568,4.7093,4.666,4.6209,4.5718,4.5223,5.9329,5.8933,5.832,5.8349,5.8742,5.859,5.9272,6.0343,6.0196,6.0847,6.1915,6.2412,6.2964,6.3669,6.404,6.4516,6.4921,6.4817,6.5349,6.637,6.6718,6.7291,6.7852,6.854,6.8446,6.7661,6.7239,6.6476,6.54,6.4901,6.3892,6.2367,6.1223,6.0089,5.8978,5.749,5.6887,5.7199,5.6837,5.6785,5.7221,5.7546,5.7606,5.7445,5.7573,5.7422,5.6969,5.6253,5.5576,5.4851,5.3733,5.273,5.2167,5.1998,5.2499,5.3703,5.4745,5.5716,5.6721,5.6924,5.7063,5.6864,5.6051,5.5064,5.3998,5.2504,5.1574,5.1056,5.0295,4.9742,4.9637,4.9098,4.8639,4.8376,4.8137,4.7944,4.7976,4.8198,4.8475,4.8767,4.8956,4.891,4.8759,4.8651,4.8479,4.807,4.7961,4.7982,4.8026,4.8199,4.8393,4.8587,4.8866,4.9016,4.9059,4.9102,4.9102,4.9102,4.9102,4.9102,4.9102,4.9102,4.9039,4.8874,4.8728,4.8355,4.8211,4.8107,4.7879,4.7216,4.6536,4.6309,4.596,4.532,4.4818,5.9996,5.9176,5.9154,5.9498,5.9977,6.0363,6.1078,6.1858,6.203,6.2336,6.2901,6.3564,6.4198,6.4809,6.526,6.582,6.655,6.6107,6.6789,6.7769,6.7894,6.822,6.9644,6.9567,6.9107,6.8664,6.7797,6.6647,6.5313,6.4876,6.376,6.2167,6.1494,6.0632,5.9474,5.8188,5.8052,5.8474,5.8062,5.8074,5.8421,5.8462,5.8255,5.786,5.8156,5.8109,5.7659,5.6969,5.6166,5.5203,5.3533,5.2723,5.2771,5.3061,5.3493,5.4501,5.6271,5.7158,5.755,5.7855,5.797,5.7813,5.6624,5.549,5.4359,5.2906,5.1764,5.1126,5.0247,4.9736,4.9597,4.9078,4.8526,4.8352,4.8223,4.8137,4.8272,4.8348,4.8484,4.862,4.8872,4.9142,4.9141,4.9141,4.8905,4.8565,4.8393,4.8307,4.8329,4.8415,4.8608,4.878,4.893,4.9059,4.9102,4.9102,4.9102,4.9102,4.9102,4.9102,4.906,4.9019,4.8957,4.8791,4.8563,4.8169,4.7817,4.7651,4.7277,4.6576,4.6184,4.6075,4.5613,4.4882,4.4471,6.1163,6.0685,6.0979,6.1404,6.1874,6.2345,6.2851,6.3413,6.3808,6.4135,6.454,6.4475,6.4747,6.5118,6.5026,6.5382,6.6099,6.6133,6.7367,6.9223,6.9287,6.9791,7.0494,6.9728,6.901,6.8511,6.7571,6.6237,6.4963,6.4767,6.3892,6.2456,6.1942,6.1537,6.1013,6.0055,5.9959,6.0355,6.0241,6.016,6.0263,6.0233,6.021,6.0089,5.9751,5.937,5.8837,5.7487,5.5904,5.4387,5.3524,5.355,5.428,5.4369,5.5152,5.7024,5.7922,5.8727,5.9192,5.9126,5.8899,5.84,5.6906,5.5407,5.4067,5.2412,5.1451,5.0929,5.0274,4.9835,4.9985,4.9569,4.9113,4.8718,4.8266,4.8005,4.82,4.8323,4.8557,4.9221,4.9401,4.9469,4.947,4.9449,4.9303,4.8904,4.8565,4.8372,4.8307,4.8329,4.8415,4.8608,4.878,4.8973,4.9102,4.9102,4.9102,4.9102,4.9102,4.9102,4.8998,4.8832,4.8687,4.8522,4.8231,4.7879,4.7361,4.699,4.6433,4.5957,4.5414,4.5092,4.4853,4.4331,4.4092,6.2169,6.1529,6.2016,6.2621,6.3301,6.3769,6.4234,6.4673,6.5158,6.5338,6.5418,6.5553,6.5677,6.5861,6.5626,6.601,6.6821,6.6505,6.7767,6.9954,7.0637,7.1227,7.1353,7.0303,6.9351,6.8647,6.7605,6.6244,6.4963,6.4702,6.3914,6.2812,6.2345,6.2099,6.1761,6.1181,6.1106,6.1576,6.1597,6.151,6.1702,6.1461,6.116,6.0962,6.046,5.9856,5.8858,5.7465,5.5904,5.4542,5.3966,5.4166,5.4961,5.5576,5.6709,5.8709,5.9155,5.9663,5.9961,5.9771,5.9291,5.8545,5.7029,5.5539,5.4192,5.2599,5.1619,5.1336,5.0498,5.0164,5.0119,4.9719,4.9216,4.8888,4.8456,4.8089,4.803,4.798,4.8154,4.8557,4.8898,4.9154,4.9175,4.9175,4.9032,4.8742,4.828,4.8153,4.807,4.8092,4.8052,4.8099,4.8356,4.857,4.8721,4.8764,4.8765,4.8807,4.8723,4.8807,4.8786,4.8621,4.8664,4.8458,4.8003,4.7547,4.7091,4.6533,4.5933,4.5369,4.4675,4.4273,4.41,4.4044,4.3793,6.2928,6.2011,6.2545,6.3297,6.4125,6.4712,6.5077,6.5593,6.5958,6.5909,6.5756,6.6412,6.6614,6.6818,6.6555,6.7239,6.8072,6.7337,6.8617,7.0386,7.1618,7.2236,7.1861,7.0979,7.0058,6.9229,6.8147,6.66,6.5338,6.4849,6.4029,6.3058,6.2701,6.2478,6.2208,6.1697,6.1898,6.2398,6.2293,6.2276,6.2445,6.2121,6.1732,6.1323,6.0546,5.9687,5.8549,5.7296,5.61,5.4895,5.4697,5.4631,5.4961,5.6514,5.7874,5.8903,5.9758,6.0207,6.0069,5.9695,5.9205,5.8385,5.6815,5.5467,5.4257,5.2949,5.2006,5.1575,5.093,5.057,5.0294,4.9584,4.9144,4.8989,4.8904,4.8379,4.781,4.7612,4.7513,4.7163,4.7829,4.8155,4.8169,4.8147,4.8107,4.779,4.7478,4.7208,4.7151,4.7116,4.7143,4.7256,4.7617,4.8063,4.8213,4.8363,4.8366,4.8367,4.82,4.822,4.8384,4.8386,4.8638,4.8474,4.7623,4.7166,4.6975,4.633,4.5543,4.4925,4.4354,4.3976,4.3694,4.3696,4.3574,6.3386,6.2523,6.3344,6.3811,6.415,6.492,6.5338,6.5493,6.597,6.6093,6.6115,6.6562,6.6818,6.6839,6.695,6.7286,6.8248,6.8254,6.9257,7.1161,7.234,7.2333,7.1816,7.1061,7.0428,6.9651,6.8751,6.7257,6.5813,6.5223,6.4614,6.3325,6.3056,6.3102,6.2943,6.2759,6.2892,6.3099,6.3025,6.2975,6.2967,6.2648,6.2309,6.2023,6.0932,6.0011,5.9073,5.7607,5.6601,5.6079,5.5313,5.5027,5.5882,5.7164,5.8517,5.9565,6.0342,6.0474,5.9854,5.9548,5.9003,5.7771,5.6209,5.4498,5.3566,5.2671,5.1859,5.1429,5.1341,5.1227,5.0795,4.9997,4.9558,4.9351,4.8762,4.8018,4.7402,4.7646,4.7714,4.7512,4.7511,4.7665,4.7334,4.7268,4.7108,4.6789,4.6462,4.613,4.6122,4.6178,4.6188,4.6299,4.6608,4.6968,4.7094,4.7326,4.7576,4.7642,4.7561,4.7392,4.7575,4.7643,4.7704,4.7438,4.697,4.6674,4.6514,4.5827,4.4977,4.448,4.4019,4.3634,4.3371,4.3398,4.3295,6.4437,6.4035,6.4256,6.4502,6.4854,6.5492,6.5822,6.5906,6.6319,6.6492,6.6523,6.6924,6.7243,6.7485,6.7758,6.8269,6.8947,6.9552,7.0334,7.1461,7.2245,7.2359,7.1986,7.1327,7.0717,6.9724,6.8878,6.7449,6.6083,6.5491,6.478,6.3414,6.3277,6.3255,6.3277,6.3277,6.3255,6.3255,6.3277,6.3277,6.3227,6.2865,6.2408,6.208,6.0994,6.0091,5.948,5.772,5.6863,5.6514,5.6035,5.6013,5.6947,5.8088,5.9198,6.0009,6.0409,6.0294,5.9703,5.9456,5.8948,5.7491,5.6036,5.4961,5.39,5.2985,5.2423,5.2152,5.2064,5.1861,5.1093,5.0408,4.9994,4.9725,4.8898,4.7962,4.7415,4.7266,4.7005,4.659,4.6451,4.647,4.6381,4.6168,4.6168,4.5867,4.562,4.5335,4.5401,4.5439,4.5235,4.5295,4.5553,4.5772,4.5896,4.6163,4.6614,4.6736,4.6776,4.6579,4.6485,4.6481,4.6476,4.6379,4.634,4.6096,4.5828,4.5101,4.4413,4.4003,4.3569,4.3268,4.2989,4.2857,4.2743,6.5734,6.5702,6.5158,6.5251,6.5733,6.6101,6.6223,6.6314,6.6753,6.6808,6.6937,6.7349,6.7798,6.8201,6.8683,6.9265,7.0015,7.0867,7.1512,7.1718,7.2258,7.2315,7.203,7.149,7.0758,6.9479,6.9105,6.7775,6.628,6.5589,6.4927,6.3599,6.3277,6.3277,6.3277,6.3277,6.3277,6.3277,6.3277,6.3277,6.3253,6.2915,6.2532,6.1976,6.1105,6.0161,5.9345,5.7993,5.702,5.6931,5.6993,5.7533,5.8331,5.9009,5.9705,6.0174,6.0276,5.9939,5.9444,5.9167,5.8619,5.7341,5.6275,5.5379,5.4431,5.3699,5.323,5.2939,5.2692,5.2154,5.132,5.075,5.0456,5.0062,4.9102,4.8141,4.746,4.6561,4.5726,4.5141,4.5119,4.5105,4.4942,4.4763,4.4887,4.4932,4.4695,4.4532,4.4577,4.4486,4.4166,4.3992,4.4133,4.4401,4.4547,4.409,4.4633,4.5133,4.5391,4.5153,4.4886,4.4434,4.4458,4.5708,4.5827,4.5336,4.4726,4.3954,4.3444,4.3307,4.297,4.2503,4.2316,4.2242,4.2209,6.6664,6.6244,6.6102,6.6104,6.617,6.6139,6.6136,6.6219,6.6631,6.6834,6.6971,6.7693,6.8098,6.8358,6.8773,6.9583,7.0684,7.1547,7.1952,7.2088,7.2429,7.2411,7.1754,7.1222,7.062,7.0223,6.9723,6.8455,6.678,6.6155,6.5222,6.3739,6.3349,6.3349,6.3301,6.3277,6.3277,6.3277,6.3277,6.3277,6.3253,6.3091,6.2863,6.2313,6.1399,6.0407,5.9329,5.8475,5.7958,5.7977,5.8279,5.8927,5.9541,5.9671,5.9777,6.0075,6.0191,5.983,5.9125,5.8591,5.7725,5.6498,5.5533,5.4785,5.4232,5.3921,5.3654,5.323,5.2851,5.2424,5.2267,5.1437,5.0798,5.0191,4.9187,4.799,4.7109,4.6054,4.5093,4.4638,4.4242,4.3855,4.3799,4.3634,4.3567,4.3562,4.3327,4.3197,4.3176,4.303,4.277,4.2626,4.2564,4.2852,4.3133,4.2409,4.2294,4.2961,4.3173,4.2947,4.2568,4.1959,4.2306,4.3802,4.4189,4.3612,4.304,4.263,4.2254,4.1942,4.1775,4.1651,4.1605,4.1553,4.1667,6.7354,6.7103,6.68,6.6357,6.5906,6.6022,6.6112,6.6176,6.6583,6.7099,6.7523,6.8014,6.8329,6.8684,6.9475,7.0459,7.1418,7.1944,7.2075,7.1992,7.2022,7.2001,7.1347,7.0754,7.0584,7.036,6.9983,6.8797,6.6998,6.6812,6.5614,6.4196,6.371,6.3588,6.3372,6.3277,6.3277,6.3277,6.3277,6.3277,6.3233,6.3078,6.279,6.2358,6.1473,6.0452,5.9841,5.8959,5.8903,5.9228,5.9281,5.9813,6.021,6.0214,5.9971,6.0123,5.9968,5.9593,5.8824,5.8218,5.7372,5.6562,5.5555,5.4983,5.4696,5.4475,5.4032,5.3566,5.3119,5.2766,5.2468,5.1841,5.1301,5.0619,4.9484,4.832,4.7278,4.6027,4.524,4.4585,4.4116,4.367,4.303,4.2802,4.2384,4.2142,4.2007,4.1955,4.1956,4.1929,4.1848,4.178,4.178,4.1955,4.216,4.1641,4.1149,4.1539,4.1467,4.1204,4.1117,4.0901,4.1247,4.2204,4.2123,4.1862,4.184,4.1556,4.1072,4.0698,4.0814,4.0894,4.0884,4.0887,4.114,6.8098,6.807,6.7417,6.6597,6.5859,6.5972,6.5989,6.602,6.648,6.7169,6.7933,6.7997,6.8201,6.8795,6.9694,7.076,7.1857,7.1814,7.144,7.1136,7.0949,7.0901,7.0685,7.0283,6.9819,6.9872,6.9421,6.843,6.7339,6.6959,6.5836,6.4484,6.3998,6.3734,6.3349,6.3277,6.3277,6.3277,6.3277,6.3255,6.308,6.2812,6.2478,6.2322,6.1163,6.0484,6.0052,5.9479,5.9447,5.977,5.9866,6.0004,6.0607,6.04,6.0116,5.997,5.9624,5.9158,5.8562,5.7814,5.7083,5.6495,5.5818,5.5445,5.5093,5.463,5.4276,5.3899,5.3432,5.2972,5.2565,5.2173,5.1591,5.0823,4.9817,4.8724,4.7642,4.6565,4.5659,4.4946,4.4215,4.3659,4.3173,4.2411,4.2119,4.1845,4.1669,4.1489,4.1484,4.1479,4.1413,4.126,4.1226,4.1275,4.1329,4.1263,4.1028,4.1262,4.0851,4.0354,4.0367,4.0359,4.0661,4.0703,4.0467,4.0264,4.0393,4.0468,3.9947,3.975,3.9995,4.0114,4.0068,4.0557,4.112,6.9228,6.9105,6.8095,6.737,6.6714,6.6194,6.5727,6.5473,6.6176,6.679,6.7515,6.7357,6.7615,6.8251,6.8779,6.9741,7.0444,7.0572,7.0347,7.008,6.9773,6.9596,6.9422,6.8948,6.8831,6.8924,6.8367,6.7759,6.7117,6.6668,6.5755,6.4389,6.3754,6.3349,6.3325,6.3211,6.3277,6.3277,6.3255,6.3056,6.2723,6.2544,6.2052,6.1536,6.1037,6.0558,5.9874,5.948,5.9602,5.9662,5.9629,5.9823,6.0179,5.9893,5.9637,5.9454,5.9137,5.8669,5.8177,5.7425,5.6755,5.632,5.5708,5.5247,5.4807,5.4432,5.4099,5.3899,5.3498,5.3084,5.27,5.2462,5.1731,5.0897,4.998,4.8932,4.7861,4.6969,4.6068,4.5412,4.4703,4.4108,4.3596,4.2703,4.1917,4.1602,4.1348,4.119,4.1037,4.1059,4.1059,4.0936,4.0733,4.0726,4.0706,4.0604,4.0614,4.0852,4.0296,3.963,3.9626,3.9565,3.9024,3.8985,3.8903,3.9201,3.9656,3.956,3.889,3.901,3.9556,3.9481,3.9223,3.9976,4.0996,6.8776,6.8447,6.769,6.6988,6.6393,6.5774,6.5825,6.6278,6.6367,6.6877,6.7514,6.7255,6.7592,6.8304,6.8727,6.9332,7.0005,6.9898,6.9528,6.9081,6.8793,6.8685,6.8642,6.8278,6.8029,6.7866,6.7595,6.701,6.6548,6.6313,6.5722,6.4564,6.3964,6.359,6.3189,6.3012,6.2923,6.2812,6.2634,6.2435,6.2119,6.1661,6.1185,6.0714,6.026,5.9782,5.9463,5.9279,5.9426,5.9554,5.9634,5.9684,5.9809,5.9661,5.9384,5.869,5.8541,5.8306,5.8027,5.7254,5.6647,5.6124,5.562,5.5071,5.4478,5.4257,5.397,5.3511,5.3593,5.3352,5.2902,5.2666,5.1892,5.1035,5.0094,4.9003,4.7998,4.7264,4.6442,4.5807,4.5191,4.4595,4.4019,4.3351,4.2434,4.1692,4.1438,4.124,4.0969,4.0765,4.0742,4.0685,4.0427,4.0221,4.0151,4.0087,3.9959,4.003,3.9749,3.9195,3.8992,3.8722,3.8443,3.8452,3.8791,3.9027,3.9226,3.9152,3.8962,3.9081,3.9242,3.9451,3.9643,3.9976,4.0977,6.8184,6.7568,6.7163,6.6693,6.6188,6.5663,6.5984,6.6718,6.6514,6.6817,6.7296,6.7116,6.7441,6.8111,6.8237,6.8523,6.9415,6.9236,6.8721,6.8181,6.7779,6.7585,6.7302,6.7068,6.685,6.7035,6.6512,6.6032,6.5749,6.5502,6.522,6.4604,6.3784,6.3386,6.2918,6.2439,6.2125,6.189,6.1648,6.1427,6.118,6.0634,6.0272,5.9844,5.9348,5.8874,5.8963,5.8647,5.88,5.9347,5.9071,5.8942,5.91,5.8768,5.837,5.7816,5.7598,5.7468,5.7362,5.6972,5.6583,5.6057,5.5333,5.461,5.4128,5.4171,5.4193,5.3472,5.3292,5.3314,5.3165,5.2756,5.1913,5.1034,5.0118,4.9028,4.7981,4.7289,4.668,4.6111,4.5519,4.5012,4.444,4.3975,4.3128,4.2029,4.1551,4.1313,4.0945,4.0554,4.0412,4.0344,4.0092,3.9847,3.9784,3.9686,3.9527,3.9377,3.9098,3.8922,3.8815,3.8653,3.8456,3.8554,3.8833,3.923,3.9639,3.9376,3.9174,3.943,3.9689,4.0131,4.0406,4.0657,4.1289,6.7934,6.7062,6.7009,6.6866,6.6636,6.6558,6.6176,6.596,6.6189,6.6324,6.6469,6.639,6.6678,6.7093,6.7099,6.739,6.8269,6.7392,6.7213,6.6756,6.6122,6.5982,6.5834,6.5595,6.5133,6.5098,6.5136,6.5021,6.4702,6.446,6.4316,6.404,6.3415,6.2623,6.2089,6.1748,6.1159,6.0859,6.0567,6.0301,6.0034,5.9652,5.9451,5.9008,5.863,5.8496,5.8896,5.8129,5.801,5.8796,5.8191,5.7941,5.8085,5.7629,5.7148,5.6972,5.6689,5.6603,5.6495,5.6669,5.6538,5.5859,5.4982,5.4128,5.38,5.3061,5.3061,5.3496,5.3145,5.2968,5.2904,5.2686,5.1718,5.0861,4.9946,4.8963,4.8021,4.7354,4.6767,4.633,4.5785,4.5194,4.4596,4.4032,4.3324,4.2233,4.1425,4.1166,4.0735,4.0369,4.0149,3.9967,3.9715,3.9561,3.9527,3.9373,3.9184,3.9147,3.8997,3.8897,3.882,3.8662,3.8726,3.8854,3.9174,3.9621,4.0049,4.0152,4.0173,3.9986,4.0198,4.0828,4.1292,4.1565,4.2406,6.7728,6.7324,6.6667,6.6315,6.6171,6.6022,6.6009,6.5978,6.5834,6.573,6.5757,6.5783,6.607,6.6426,6.6549,6.6671,6.7153,6.7014,6.6635,6.624,6.5771,6.5468,6.5227,6.492,6.4593,6.4353,6.4265,6.407,6.3833,6.3653,6.3394,6.3157,6.2974,6.2793,6.2258,6.11,6.0377,5.9934,5.9623,5.9316,5.8871,5.8464,5.8106,5.7643,5.7193,5.7213,5.7497,5.7295,5.753,5.7701,5.7345,5.7255,5.7166,5.6603,5.6341,5.6298,5.608,5.6015,5.6037,5.6211,5.6146,5.5575,5.4609,5.38,5.3582,5.3082,5.2886,5.2909,5.2736,5.2561,5.2605,5.2087,5.1227,5.0499,4.9708,4.8832,4.8086,4.7421,4.6734,4.6215,4.5757,4.525,4.4636,4.4025,4.3258,4.244,4.1684,4.0988,4.0584,4.0109,3.9811,3.9585,3.9333,3.9162,3.9128,3.8974,3.8803,3.8877,3.8933,3.8899,3.8903,3.9259,3.9327,3.943,3.9706,4.0303,4.081,4.1147,4.1189,4.1042,4.1294,4.1775,4.2151,4.2527,4.3233,6.7579,6.7264,6.6779,6.6447,6.6238,6.6086,6.6195,6.6367,6.6087,6.5647,6.5417,6.5417,6.5631,6.6018,6.6119,6.6104,6.6342,6.6466,6.6297,6.5996,6.5685,6.5505,6.527,6.492,6.4484,6.4114,6.3961,6.3807,6.3412,6.3189,6.2993,6.2837,6.2675,6.2366,6.1369,6.0341,5.9357,5.8963,5.8548,5.8218,5.7795,5.737,5.7013,5.6683,5.637,5.6521,5.6848,5.6911,5.702,5.7084,5.6887,5.6538,5.6277,5.5993,5.573,5.5687,5.5687,5.5709,5.573,5.5796,5.5642,5.5137,5.4478,5.3735,5.332,5.3101,5.2775,5.2557,5.2325,5.211,5.2131,5.1504,5.0838,5.015,4.9596,4.8805,4.8134,4.7454,4.6747,4.6102,4.5612,4.5095,4.438,4.3735,4.3044,4.2295,4.157,4.094,4.0552,4.0007,3.9377,3.9179,3.8974,3.8837,3.8712,3.867,3.8666,3.8821,3.8877,3.8911,3.9013,3.9455,3.9943,4.0113,4.0515,4.1147,4.1756,4.232,4.232,4.2132,4.2508,4.2965,4.3379,4.3751,4.3813,6.7557,6.6766,6.7437,6.7509,6.7059,6.7106,6.6932,6.6595,6.649,6.6048,6.5312,6.5318,6.5433,6.5601,6.5667,6.5565,6.5598,6.6138,6.6128,6.5594,6.57,6.5677,6.5307,6.4848,6.4408,6.4112,6.3878,6.3606,6.3344,6.2914,6.2672,6.2176,6.1697,6.1124,5.9777,5.8347,5.7626,5.754,5.7196,5.698,5.6785,5.6434,5.6193,5.5995,5.6016,5.619,5.6538,5.6755,5.6886,5.6972,5.6539,5.6124,5.5752,5.5225,5.4939,5.4895,5.4851,5.4829,5.4829,5.5203,5.5137,5.4829,5.4259,5.3757,5.3255,5.2862,5.2536,5.2321,5.1724,5.1465,5.1267,5.098,5.0297,4.987,4.9338,4.8851,4.8179,4.78,4.7136,4.6303,4.5523,4.4845,4.4094,4.3382,4.2763,4.2087,4.1409,4.0889,4.0416,3.9883,3.9174,3.8919,3.8748,3.8657,3.8593,3.8533,3.8568,3.8704,3.8939,3.9174,3.9348,3.9731,4.0198,4.0705,4.1402,4.2093,4.2863,4.3629,4.3566,4.3525,4.3814,4.4205,4.4636,4.4861,4.4841,6.74,6.7038,6.6837,6.6713,6.6667,6.6893,6.6542,6.5752,6.5115,6.4776,6.4815,6.4802,6.5076,6.5294,6.5206,6.5083,6.5124,6.5357,6.541,6.5397,6.5593,6.5523,6.5192,6.4707,6.4293,6.4211,6.3907,6.3619,6.3785,6.2881,6.2114,6.1574,6.0256,5.9567,5.9449,5.8544,5.7448,5.7319,5.68,5.619,5.5905,5.5708,5.5511,5.5269,5.5511,5.5949,5.6386,5.6603,5.6907,5.6972,5.6473,5.5993,5.5643,5.5115,5.4719,5.4719,5.4719,5.4873,5.4961,5.5137,5.4873,5.4587,5.4259,5.3888,5.3604,5.2909,5.2455,5.1916,5.1167,5.0802,5.0289,4.9903,4.9457,4.9497,4.9115,4.8756,4.8272,4.8163,4.7718,4.6729,4.5867,4.5167,4.4403,4.3639,4.2951,4.2278,4.1644,4.0561,3.9917,3.9524,3.8955,3.8765,3.8615,3.8542,3.849,3.8554,3.8666,3.8837,3.9323,3.9813,4.0004,4.0346,4.1024,4.1821,4.2447,4.3071,4.3898,4.4596,4.4862,4.5025,4.5148,4.5189,4.5372,4.5576,4.5698,6.7218,6.7121,6.6788,6.6648,6.6622,6.6549,6.5894,6.4913,6.4195,6.4062,6.4221,6.4274,6.4364,6.4633,6.4813,6.4551,6.4557,6.5354,6.552,6.5512,6.5524,6.5602,6.5324,6.463,6.4289,6.417,6.3694,6.3317,6.3553,6.2521,6.1568,6.0353,5.8644,5.8502,5.8541,5.7845,5.7019,5.6807,5.627,5.5927,5.5577,5.5269,5.5027,5.5027,5.5291,5.5818,5.619,5.6603,5.7016,5.6907,5.6516,5.5949,5.5577,5.5181,5.4785,5.4873,5.5137,5.5335,5.5489,5.5467,5.5203,5.4676,5.4347,5.4106,5.3844,5.3191,5.2477,5.1767,5.0783,5.0081,4.9531,4.9087,4.875,4.879,4.8706,4.8307,4.8141,4.7972,4.7598,4.667,4.6054,4.5376,4.478,4.4003,4.3265,4.2582,4.1917,4.0852,3.988,3.9579,3.9302,3.9046,3.8875,3.8833,3.879,3.8704,3.8837,3.9007,3.9646,4.0385,4.1147,4.1591,4.2281,4.2905,4.3443,4.4062,4.4944,4.5576,4.5962,4.6165,4.6246,4.6225,4.6165,4.6326,4.6549,6.7039,6.6965,6.7329,6.7357,6.7094,6.6206,6.5214,6.4298,6.4181,6.3913,6.3653,6.3694,6.3705,6.362,6.4289,6.4306,6.4082,6.539,6.5616,6.5693,6.5517,6.5667,6.5403,6.4798,6.4297,6.3814,6.3401,6.3053,6.3043,6.173,6.0583,5.9617,5.8358,5.792,5.7598,5.7219,5.6575,5.6192,5.6009,5.5664,5.5291,5.4961,5.4741,5.4785,5.5202,5.5617,5.6052,5.6573,5.6684,5.6535,5.6189,5.5621,5.5181,5.4829,5.5049,5.5379,5.5796,5.5838,5.5968,5.5859,5.5461,5.4846,5.4566,5.4325,5.3801,5.3148,5.2369,5.1381,5.0337,4.966,4.9007,4.8463,4.79,4.7962,4.7983,4.7816,4.7672,4.7423,4.703,4.6475,4.6004,4.5473,4.5083,4.439,4.3897,4.3569,4.2992,4.2318,4.1379,4.0581,4.0243,3.9689,3.9497,3.9281,3.9242,3.9437,3.9774,4.0176,4.0409,4.1063,4.1905,4.2926,4.3609,4.4165,4.4432,4.5067,4.5982,4.6669,4.7213,4.7293,4.7092,4.7152,4.7052,4.7253,4.7453,6.6911,6.6926,6.7238,6.7165,6.6737,6.581,6.4738,6.3661,6.2993,6.2614,6.263,6.267,6.2902,6.3313,6.3618,6.3761,6.4237,6.4693,6.4863,6.498,6.5174,6.5085,6.4768,6.4333,6.4095,6.3886,6.3441,6.2834,6.2355,6.1064,5.9713,5.8613,5.8226,5.7653,5.7111,5.6825,5.6279,5.578,5.5639,5.5379,5.5071,5.4741,5.45,5.4566,5.4806,5.5174,5.5493,5.6147,5.6344,5.6515,5.6553,5.632,5.6299,5.5906,5.584,5.5817,5.579,5.5607,5.591,5.5737,5.5362,5.4916,5.451,5.3906,5.3386,5.2758,5.2003,5.0996,4.9892,4.9091,4.8421,4.7817,4.7486,4.7465,4.7506,4.7506,4.7403,4.7278,4.6907,4.6576,4.6105,4.5902,4.5474,4.5087,4.4658,4.4475,4.4089,4.3399,4.2707,4.1852,4.1159,4.0615,4.04,4.0261,4.0487,4.0713,4.1045,4.1378,4.1651,4.2218,4.3464,4.4412,4.5005,4.5576,4.6124,4.6548,4.7051,4.7632,4.8152,4.7893,4.7693,4.7833,4.7994,4.8132,4.8331,6.6813,6.6885,6.7165,6.7014,6.6494,6.5761,6.4776,6.3683,6.2586,6.2038,6.1907,6.1974,6.2225,6.266,6.3241,6.3757,6.4066,6.4796,6.5088,6.5083,6.4704,6.461,6.4245,6.3759,6.353,6.3414,6.3074,6.2454,6.2013,6.1102,5.9827,5.8662,5.8365,5.7476,5.687,5.6748,5.6407,5.577,5.5312,5.5093,5.4785,5.4499,5.4259,5.4216,5.4455,5.4688,5.5139,5.5883,5.6292,5.6414,5.6478,5.6238,5.6083,5.5691,5.5713,5.5643,5.5721,5.5711,5.5881,5.5731,5.5374,5.4934,5.4444,5.3759,5.3095,5.2473,5.1615,5.0698,4.9512,4.8442,4.7817,4.7258,4.7175,4.7113,4.7175,4.7237,4.7216,4.7236,4.6986,4.6694,4.6468,4.6307,4.6023,4.5678,4.5291,4.4886,4.4442,4.3958,4.3335,4.2688,4.2034,4.1501,4.141,4.1363,4.1634,4.1927,4.2295,4.2645,4.3029,4.3774,4.5046,4.5941,4.6568,4.7272,4.7971,4.817,4.821,4.8567,4.8905,4.8648,4.8609,4.8905,4.9006,4.8907,4.9125,6.6818,6.6942,6.7283,6.7088,6.6385,6.6067,6.5279,6.4114,6.2752,6.1927,6.154,6.148,6.1563,6.1928,6.285,6.3439,6.3899,6.4583,6.4964,6.5359,6.457,6.4236,6.3904,6.3329,6.3037,6.2574,6.2208,6.2034,6.212,6.0997,5.9482,5.8868,5.8434,5.7503,5.6429,5.6893,5.6525,5.5554,5.5203,5.4983,5.4543,5.4237,5.4019,5.4237,5.4499,5.4844,5.5655,5.618,5.648,5.614,5.5891,5.5583,5.5338,5.5112,5.5238,5.5366,5.5598,5.5656,5.5717,5.5632,5.5232,5.4844,5.4469,5.3738,5.3054,5.223,5.1335,5.0399,4.9237,4.8212,4.7506,4.7113,4.6968,4.6925,4.6965,4.7088,4.7188,4.7226,4.7244,4.6993,4.6892,4.6731,4.6468,4.6124,4.5799,4.527,4.4762,4.434,4.4019,4.348,4.3041,4.2519,4.2515,4.255,4.2706,4.3024,4.3465,4.3869,4.4477,4.5657,4.717,4.7772,4.811,4.8668,4.9142,4.9221,4.932,4.9595,4.9732,4.9654,4.9712,5.0045,5.0087,4.9931,4.9892,6.7796,6.8102,6.8503,6.7825,6.6526,6.6776,6.5501,6.3331,6.2735,6.2039,6.1557,6.114,6.1006,6.1324,6.2245,6.2781,6.3083,6.4006,6.4218,6.4223,6.3869,6.3786,6.3676,6.3081,6.2659,6.2377,6.2045,6.148,6.0729,5.9597,5.851,5.7556,5.763,5.7369,5.6078,5.6698,5.6463,5.5424,5.5049,5.4718,5.4233,5.3624,5.3256,5.3256,5.3383,5.4223,5.4915,5.5341,5.5701,5.5841,5.5904,5.5771,5.5616,5.5334,5.5378,5.5603,5.5474,5.5507,5.5415,5.5392,5.5107,5.4623,5.4183,5.3613,5.2923,5.2006,5.1075,5.0078,4.9173,4.819,4.7443,4.7132,4.6904,4.6879,4.6873,4.7054,4.7234,4.7333,4.7453,4.7435,4.7356,4.7155,4.6894,4.6631,4.6265,4.5793,4.5196,4.4807,4.4719,4.4359,4.4187,4.3794,4.3777,4.3818,4.3939,4.438,4.4983,4.577,4.652,4.7823,4.9219,4.9612,4.9847,4.9869,5.0104,5.028,5.0397,5.0458,5.0555,5.0536,5.0649,5.0902,5.1134,5.1076,5.0921,6.8465,6.856,6.8939,6.8235,6.6972,6.6892,6.5547,6.3532,6.2469,6.1812,6.128,6.0737,6.0494,6.0818,6.1704,6.2045,6.2296,6.3298,6.3375,6.3207,6.3208,6.3218,6.3028,6.286,6.2597,6.2295,6.1942,6.1172,5.9672,5.9169,5.8476,5.7275,5.7563,5.7146,5.5971,5.6258,5.6287,5.5424,5.4893,5.4494,5.4011,5.3428,5.3386,5.3256,5.3577,5.422,5.4893,5.5386,5.5582,5.5534,5.5249,5.4838,5.4697,5.4707,5.473,5.4904,5.5029,5.5334,5.518,5.5099,5.504,5.4712,5.4132,5.3641,5.3393,5.2524,5.1407,5.0473,5.0031,4.9147,4.852,4.8144,4.785,4.7761,4.7694,4.7752,4.7824,4.7874,4.8084,4.8299,4.8179,4.7997,4.7775,4.7593,4.7182,4.6531,4.5926,4.5676,4.552,4.5539,4.5291,4.5234,4.5302,4.5348,4.5493,4.6012,4.667,4.754,4.8401,4.9322,5.0277,5.1053,5.1539,5.1462,5.1443,5.152,5.1597,5.1524,5.1408,5.1366,5.1501,5.1693,5.1905,5.2096,5.1962,6.9014,6.8806,6.9127,6.8513,6.7415,6.6853,6.5539,6.3739,6.2347,6.1433,6.0847,6.0282,6.0092,6.0629,6.139,6.1525,6.1904,6.2658,6.2625,6.2454,6.2474,6.2765,6.2829,6.2588,6.2193,6.1787,6.1359,6.0555,5.9427,5.882,5.8061,5.7436,5.6954,5.6469,5.5846,5.5881,5.5998,5.5115,5.4606,5.4471,5.4015,5.3517,5.367,5.3953,5.4452,5.4905,5.5716,5.6165,5.6133,5.57,5.5137,5.4676,5.4516,5.4706,5.4507,5.4681,5.5182,5.5339,5.5285,5.5232,5.5275,5.5085,5.4375,5.3968,5.3762,5.3052,5.1961,5.1161,5.0739,5.0025,4.9394,4.8868,4.8592,4.8416,4.8348,4.8408,4.8413,4.846,4.8741,4.9065,4.8968,4.8806,4.8579,4.8438,4.7931,4.7291,4.6924,4.6732,4.6638,4.6792,4.6781,4.6905,4.7073,4.7124,4.7079,4.7759,4.8498,4.8954,4.9762,5.0546,5.1324,5.2073,5.2669,5.2916,5.2897,5.2688,5.2593,5.2497,5.2383,5.2154,5.2249,5.2383,5.2574,5.2745,5.2816,6.9746,6.997,7.0044,6.9175,6.7865,6.7641,6.6027,6.3533,6.2635,6.1653,6.0549,5.9953,5.9907,6.0603,6.1213,6.1323,6.114,6.1878,6.1994,6.1813,6.1816,6.2372,6.2631,6.2169,6.1487,6.1014,6.0505,5.9594,5.8961,5.792,5.6939,5.6366,5.5817,5.5262,5.4548,5.4788,5.5065,5.4368,5.4456,5.4521,5.4325,5.3866,5.3343,5.3907,5.4901,5.5723,5.6474,5.687,5.6993,5.6692,5.59,5.5262,5.5081,5.5114,5.5089,5.5024,5.5502,5.5807,5.585,5.568,5.5731,5.5909,5.5328,5.4803,5.4498,5.4048,5.2953,5.1918,5.1247,5.0208,4.9514,4.8985,4.8665,4.8624,4.8568,4.8861,4.9039,4.9188,4.9407,4.9611,4.9707,4.9474,4.9197,4.8887,4.8471,4.797,4.7795,4.762,4.7668,4.7917,4.822,4.8529,4.8774,4.8628,4.8535,4.962,5.0369,5.0708,5.1106,5.1857,5.2531,5.3124,5.3596,5.3747,5.3709,5.3521,5.3464,5.3276,5.3086,5.2859,5.2935,5.3068,5.3219,5.3295,5.3351]}]]